[[{"header":{"parameterUnit":"m.s-1","parameterCategory":1,"la1":30.6,"la2":28.766,"lo1":-90.7593,"lo2":-88.6598,"dy":0.0162,"dx":0.0183,"nx":116,"ny":114,"refTime":"2024-05-05T06:00:00:Z","depth":0,"parameterNumber":2,"parameterNumberName":"U-component_of_WINDS"},"data":[0.0,0.0,0.0,0.0,0.0,0.0,0.0,0.0,0.0,0.0,0.0,0.0,0.0,0.0,0.0,0.0,0.0,0.0,0.0,0.0,0.0,0.0,0.0,0.0,0.0,0.0,0.0,0.0,0.0,0.0,0.0,0.0,0.0,0.0,0.0,0.0,0.0,0.0,0.0,0.0,0.0,0.0,0.0,0.0,0.0,0.0,0.0,0.0,0.0,0.0,0.0,0.0,0.0,0.0,0.0,0.0,0.0,0.0,0.0,0.0,0.0,0.0,0.0,0.0,0.0,0.0,0.0,0.0,0.0,0.0,0.0,0.0,0.0,0.0,0.0,0.0,0.0,0.0,0.0,0.0,0.0,0.0,0.0,0.0,0.0,0.0,0.0,0.0,0.0,0.0,0.0,0.0,0.0,0.0,0.0,0.0,0.0,0.0,0.0,0.0,0.0,0.0,0.0,0.0,0.0,0.0,0.0,0.0,0.0,0.0,0.0,0.0,0.0,0.0,0.0,0.0,0.0,0.0,0.0,0.0,0.0,0.0,0.0,0.0,0.0,0.0,0.0,0.0,0.0,0.0,0.0,0.0,0.0,0.0,0.0,0.0,0.0,0.0,0.0,0.0,0.0,0.0,0.0,0.0,0.0,0.0,0.0,0.0,0.0,0.0,0.0,0.0,0.0,0.0,0.0,0.0,0.0,0.0,0.0,0.0,0.0,0.0,0.0,0.0,0.0,0.0,0.0,0.0,0.0,0.0,0.0,0.0,0.0,0.0,0.0,0.0,0.0,0.0,0.0,0.0,0.0,0.0,0.0,0.0,0.0,0.0,0.0,0.0,0.0,0.0,0.0,0.0,0.0,0.0,0.0,0.0,0.0,0.0,0.0,0.0,0.0,0.0,0.0,0.0,0.0,0.0,0.0,0.0,0.0,0.0,0.0,0.0,0.0,0.0,0.0,0.0,0.0,0.0,0.0,0.0,0.0,0.0,0.0,0.0,0.0,0.0,0.0,0.0,0.0,0.0,0.0,0.0,0.0,0.0,0.0,0.0,0.0,0.0,0.0,0.0,0.0,0.0,0.0,0.0,0.0,0.0,0.0,0.0,0.0,0.0,0.0,0.0,0.0,0.0,0.0,0.0,0.0,0.0,0.0,0.0,0.0,0.0,0.0,0.0,0.0,0.0,0.0,0.0,0.0,0.0,0.0,0.0,0.0,0.0,0.0,0.0,0.0,0.0,0.0,0.0,0.0,0.0,0.0,0.0,0.0,0.0,0.0,0.0,0.0,0.0,0.0,0.0,0.0,0.0,0.0,0.0,0.0,0.0,0.0,0.0,0.0,0.0,0.0,0.0,0.0,0.0,0.0,0.0,0.0,0.0,0.0,0.0,0.0,0.0,0.0,0.0,0.0,0.0,0.0,0.0,0.0,0.0,0.0,0.0,0.0,0.0,0.0,0.0,0.0,0.0,0.0,0.0,0.0,0.0,0.0,0.0,0.0,0.0,0.0,0.0,0.0,0.0,0.0,0.0,0.0,0.0,0.0,0.0,0.0,0.0,0.0,0.0,0.0,0.0,0.0,0.0,0.0,0.0,0.0,0.0,0.0,0.0,0.0,0.0,0.0,0.0,0.0,0.0,0.0,0.0,0.0,0.0,0.0,0.0,0.0,0.0,0.0,0.0,0.0,0.0,0.0,0.0,0.0,0.0,0.0,0.0,0.0,0.0,0.0,0.0,0.0,0.0,0.0,0.0,0.0,0.0,0.0,0.0,0.0,0.0,0.0,0.0,0.0,0.0,0.0,0.0,0.0,0.0,0.0,0.0,0.0,0.0,0.0,0.0,0.0,0.0,0.0,0.0,0.0,0.0,0.0,0.0,0.0,0.0,0.0,0.0,0.0,0.0,0.0,0.0,0.0,0.0,0.0,0.0,0.0,0.0,0.0,0.0,0.0,0.0,0.0,0.0,0.0,0.0,0.0,0.0,0.0,0.0,0.0,0.0,0.0,0.0,0.0,0.0,0.0,0.0,0.0,0.0,0.0,0.0,0.0,0.0,0.0,0.0,0.0,0.0,0.0,0.0,0.0,0.0,0.0,0.0,0.0,0.0,0.0,0.0,0.0,0.0,0.0,0.0,0.0,0.0,0.0,0.0,0.0,0.0,0.0,0.0,0.0,0.0,0.0,0.0,0.0,0.0,0.0,0.0,0.0,0.0,0.0,0.0,0.0,0.0,0.0,0.0,0.0,0.0,0.0,0.0,0.0,0.0,0.0,0.0,0.0,0.0,0.0,0.0,0.0,0.0,0.0,0.0,0.0,0.0,0.0,0.0,0.0,0.0,0.0,0.0,0.0,0.0,0.0,0.0,0.0,0.0,0.0,0.0,0.0,0.0,0.0,0.0,0.0,0.0,0.0,0.0,0.0,0.0,0.0,0.0,0.0,0.0,0.0,0.0,0.0,0.0,0.0,0.0,0.0,0.0,0.0,0.0,0.0,0.0,0.0,0.0,0.0,0.0,0.0,0.0,0.0,0.0,0.0,0.0,0.0,0.0,0.0,0.0,0.0,0.0,0.0,0.0,0.0,0.0,0.0,0.0,0.0,0.0,0.0,0.0,0.0,0.0,0.0,0.0,0.0,0.0,0.0,0.0,0.0,0.0,0.0,0.0,0.0,0.0,0.0,0.0,0.0,0.0,0.0,0.0,0.0,0.0,0.0,0.0,0.0,0.0,0.0,0.0,0.0,0.0,0.0,0.0,0.0,0.0,0.0,0.0,0.0,0.0,0.0,0.0,0.0,0.0,0.0,0.0,0.0,0.0,0.0,0.0,0.0,0.0,0.0,0.0,0.0,0.0,0.0,0.0,0.0,0.0,0.0,0.0,0.0,0.0,0.0,0.0,0.0,0.0,0.0,0.0,0.0,0.0,0.0,0.0,0.0,0.0,0.0,0.0,0.0,0.0,0.0,0.0,0.0,0.0,0.0,0.0,0.0,0.0,0.0,0.0,0.0,0.0,0.0,0.0,0.0,0.0,0.0,0.0,0.0,0.0,0.0,0.0,0.0,0.0,0.0,0.0,0.0,0.0,0.0,0.0,0.0,0.0,0.0,0.0,0.0,0.0,0.0,0.0,0.0,0.0,0.0,0.0,0.0,0.0,0.0,0.0,0.0,0.0,0.0,0.0,0.0,0.0,0.0,0.0,0.0,0.0,0.0,0.0,0.0,0.0,0.0,0.0,0.0,0.0,0.0,0.0,0.0,0.0,0.0,0.0,0.0,0.0,0.0,0.0,0.0,0.0,0.0,0.0,0.0,0.0,0.0,0.0,0.0,0.0,0.0,0.0,0.0,0.0,0.0,0.0,0.0,0.0,0.0,0.0,0.0,0.0,0.0,0.0,0.0,0.0,0.0,0.0,0.0,0.0,0.0,0.0,0.0,0.0,0.0,0.0,0.0,0.0,0.0,0.0,0.0,0.0,0.0,0.0,0.0,0.0,0.0,0.0,0.0,0.0,0.0,0.0,0.0,0.0,0.0,0.0,0.0,0.0,0.0,0.0,0.0,0.0,0.0,0.0,0.0,0.0,0.0,0.0,0.0,0.0,0.0,0.0,0.0,0.0,0.0,0.0,0.0,0.0,0.0,0.0,0.0,0.0,0.0,0.0,0.0,0.0,0.0,0.0,0.0,0.0,0.0,0.0,0.0,0.0,0.0,0.0,0.0,0.0,0.0,0.0,0.0,0.0,0.0,0.0,0.0,0.0,0.0,0.0,0.0,0.0,0.0,0.0,0.0,0.0,0.0,0.0,0.0,0.0,0.0,0.0,0.0,0.0,0.0,0.0,0.0,0.0,0.0,0.0,0.0,0.0,0.0,0.0,0.0,0.0,0.0,0.0,0.0,0.0,0.0,0.0,0.0,0.0,0.0,0.0,0.0,0.0,0.0,0.0,0.0,0.0,0.0,0.0,0.0,0.0,0.0,0.0,0.0,0.0,0.0,0.0,0.0,0.0,0.0,0.0,0.0,0.0,0.0,0.0,0.0,0.0,0.0,0.0,0.0,0.0,0.0,0.0,0.0,0.0,0.0,0.0,0.0,0.0,0.0,0.0,0.0,0.0,0.0,0.0,0.0,0.0,0.0,0.0,0.0,0.0,0.0,0.0,0.0,0.0,0.0,0.0,0.0,0.0,0.0,0.0,0.0,0.0,0.0,0.0,0.0,0.0,0.0,0.0,0.0,0.0,0.0,0.0,0.0,0.0,0.0,0.0,0.0,0.0,0.0,0.0,0.0,0.0,0.0,0.0,0.0,0.0,0.0,0.0,0.0,0.0,0.0,0.0,0.0,0.0,0.0,0.0,0.0,0.0,0.0,0.0,0.0,0.0,0.0,0.0,0.0,0.0,0.0,0.0,0.0,0.0,0.0,0.0,0.0,0.0,0.0,0.0,0.0,0.0,0.0,0.0,0.0,0.0,0.0,0.0,0.0,0.0,0.0,0.0,0.0,0.0,0.0,0.0,0.0,0.0,0.0,0.0,0.0,0.0,0.0,0.0,0.0,0.0,0.0,0.0,0.0,0.0,0.0,0.0,0.0,0.0,0.0,0.0,0.0,0.0,0.0,0.0,0.0,0.0,0.0,0.0,0.0,0.0,0.0,0.0,0.0,0.0,0.0,0.0,0.0,0.0,0.0,0.0,0.0,0.0,0.0,0.0,0.0,0.0,0.0,0.0,0.0,0.0,0.0,0.0,0.0,0.0,0.0,0.0,0.0,0.0,0.0,0.0,0.0,0.0,0.0,0.0,0.0,0.0,0.0,0.0,0.0,0.0,0.0,0.0,0.0,0.0,0.0,0.0,0.0,0.0,0.0,0.0,0.0,0.0,0.0,0.0,0.0,0.0,0.0,0.0,0.0,0.0,0.0,0.0,0.0,0.0,0.0,0.0,0.0,0.0,0.0,0.0,0.0,0.0,0.0,0.0,0.0,0.0,0.0,0.0,0.0,0.0,0.0,0.0,0.0,0.0,0.0,0.0,0.0,0.0,0.0,0.0,0.0,0.0,0.0,0.0,0.0,0.0,0.0,0.0,0.0,0.0,0.0,0.0,0.0,0.0,0.0,0.0,0.0,0.0,0.0,0.0,0.0,0.0,0.0,0.0,0.0,0.0,0.0,0.0,0.0,0.0,0.0,0.0,0.0,0.0,0.0,0.0,0.0,0.0,0.0,0.0,0.0,0.0,0.0,0.0,0.0,0.0,0.0,0.0,0.0,0.0,0.0,0.0,0.0,0.0,0.0,0.0,0.0,0.0,0.0,0.0,0.0,0.0,0.0,0.0,0.0,0.0,0.0,0.0,0.0,0.0,0.0,0.0,0.0,0.0,0.0,0.0,0.0,0.0,0.0,0.0,0.0,0.0,0.0,0.0,0.0,0.0,0.0,0.0,0.0,0.0,0.0,0.0,0.0,0.0,0.0,0.0,0.0,0.0,0.0,0.0,0.0,0.0,0.0,0.0,0.0,0.0,0.0,0.0,0.0,0.0,0.0,0.0,0.0,0.0,0.0,0.0,0.0,0.0,0.0,0.0,0.0,0.0,0.0,0.0,0.0,0.0,0.0,0.0,0.0,0.0,0.0,0.0,0.0,0.0,0.0,0.0,0.0,0.0,0.0,0.0,0.0,0.0,0.0,0.0,0.0,0.0,0.0,0.0,0.0,0.0,0.0,0.0,0.0,0.0,0.0,0.0,0.0,0.0,0.0,0.0,0.0,0.0,0.0,0.0,0.0,0.0,0.0,0.0,0.0,0.0,0.0,0.0,0.0,0.0,0.0,0.0,0.0,0.0,0.0,0.0,0.0,0.0,0.0,0.0,0.0,0.0,0.0,0.0,0.0,0.0,0.0,0.0,0.0,0.0,0.0,0.0,0.0,0.0,0.0,0.0,0.0,0.0,0.0,0.0,0.0,0.0,0.0,0.0,0.0,0.0,0.0,0.0,0.0,0.0,0.0,0.0,0.0,0.0,0.0,0.0,0.0,0.0,0.0,0.0,0.0,0.0,0.0,0.0,0.0,0.0,0.0,0.0,0.0,0.0,0.0,0.0,0.0,0.0,0.0,0.0,0.0,0.0,0.0,0.0,-6.4935,0.0,0.0,0.0,0.0,0.0,0.0,0.0,0.0,0.0,0.0,0.0,0.0,0.0,0.0,0.0,0.0,0.0,0.0,0.0,0.0,0.0,0.0,0.0,0.0,-5.3581,-5.4331,-5.4906,-5.4933,-5.4756,-5.4334,0.0,0.0,0.0,0.0,0.0,-5.5703,-5.5703,-5.5511,-5.5126,-5.5934,-5.6973,-5.8204,-5.7742,-5.7088,-5.6329,0.0,0.0,0.0,0.0,0.0,0.0,0.0,0.0,0.0,0.0,0.0,0.0,0.0,0.0,0.0,0.0,0.0,0.0,0.0,0.0,0.0,0.0,0.0,0.0,0.0,0.0,0.0,0.0,0.0,0.0,0.0,0.0,0.0,0.0,0.0,0.0,0.0,0.0,0.0,0.0,0.0,0.0,0.0,0.0,0.0,0.0,0.0,0.0,0.0,0.0,0.0,0.0,0.0,0.0,0.0,0.0,0.0,0.0,0.0,0.0,0.0,0.0,0.0,0.0,0.0,0.0,0.0,0.0,0.0,0.0,0.0,-6.5164,0.0,0.0,0.0,0.0,0.0,0.0,0.0,0.0,0.0,0.0,0.0,0.0,0.0,0.0,0.0,0.0,0.0,0.0,0.0,0.0,0.0,-5.1974,-5.2895,-5.376,-5.4295,-5.4465,-5.4361,-5.3978,-5.3261,-5.398,0.0,0.0,-5.528,-5.5703,-5.5703,-5.5703,-5.5434,-5.4934,-5.7049,-5.8962,-6.0627,-6.0742,-6.0089,-5.8676,-5.6934,0.0,0.0,0.0,0.0,0.0,0.0,0.0,0.0,0.0,0.0,0.0,0.0,0.0,0.0,0.0,0.0,0.0,0.0,0.0,0.0,0.0,0.0,0.0,0.0,0.0,0.0,0.0,0.0,0.0,0.0,0.0,0.0,0.0,0.0,0.0,0.0,0.0,0.0,0.0,0.0,0.0,0.0,0.0,0.0,0.0,0.0,0.0,0.0,0.0,0.0,0.0,0.0,0.0,0.0,0.0,0.0,0.0,0.0,0.0,0.0,0.0,0.0,0.0,-7.75,-7.8047,-7.832,-7.8475,-7.8552,-7.824,-7.3,-6.9146,-6.6406,0.0,0.0,0.0,0.0,0.0,0.0,0.0,0.0,0.0,0.0,0.0,0.0,0.0,0.0,0.0,0.0,0.0,0.0,0.0,0.0,-5.3498,-5.3824,-5.46,-5.5148,-5.5235,-5.4683,-5.4246,-5.4131,-5.4359,-5.45,-5.4511,-5.528,-5.5703,-5.5703,-5.5703,-5.6011,-5.6676,-6.055,-6.3358,-6.5051,-6.5782,-6.5974,-6.5551,-6.0281,-5.8357,-5.8858,0.0,0.0,0.0,0.0,0.0,0.0,0.0,0.0,0.0,0.0,0.0,0.0,0.0,0.0,0.0,0.0,0.0,0.0,0.0,0.0,0.0,0.0,0.0,0.0,0.0,0.0,0.0,0.0,0.0,0.0,0.0,0.0,0.0,0.0,0.0,0.0,0.0,0.0,0.0,0.0,0.0,-6.3594,-6.2617,0.0,0.0,0.0,0.0,0.0,0.0,0.0,0.0,0.0,0.0,0.0,0.0,0.0,0.0,-7.7617,-7.9844,-8.0351,-7.9258,-8.3789,-8.4844,-8.2773,-8.3554,-8.3867,-8.3789,-8.2226,0.0,-7.1716,-6.8444,0.0,0.0,0.0,0.0,0.0,0.0,0.0,0.0,0.0,0.0,0.0,0.0,0.0,0.0,0.0,0.0,0.0,0.0,0.0,0.0,0.0,-5.6384,-5.7545,-5.7644,-5.8678,-5.8103,-5.5228,-5.5999,-5.5726,-5.3722,-5.4496,-5.516,-5.5621,-5.6154,-5.778,-6.055,-6.3397,-6.5897,-6.8052,-6.8398,-6.8552,-6.8436,-6.5359,-6.2858,-6.0858,-5.9242,0.0,0.0,0.0,0.0,0.0,0.0,0.0,0.0,0.0,0.0,0.0,0.0,0.0,0.0,0.0,0.0,0.0,0.0,0.0,0.0,0.0,0.0,0.0,0.0,0.0,0.0,0.0,0.0,0.0,0.0,0.0,0.0,0.0,0.0,0.0,0.0,0.0,0.0,0.0,-6.332,-6.3984,-6.113,-6.2187,-6.2226,0.0,0.0,0.0,0.0,0.0,0.0,0.0,0.0,0.0,-7.7655,-7.8631,-8.0272,-8.2811,-8.5348,-8.6479,-8.6245,-8.8552,-8.9569,-8.9373,-8.8788,-8.8514,-8.8433,-8.7499,-8.4468,-7.9799,-7.439,-6.9727,-6.5586,0.0,0.0,0.0,0.0,0.0,-5.9985,0.0,0.0,0.0,0.0,0.0,0.0,0.0,0.0,0.0,0.0,0.0,0.0,-5.604,-5.8413,-6.0073,-6.0634,-6.2004,-6.1262,-5.7489,-5.7843,-5.7086,-5.4468,-5.482,-5.5457,-5.6252,-5.7796,-6.0496,-6.433,-6.6449,-6.8706,-7.0975,-7.1206,-7.1321,-7.1283,-7.0398,-6.7782,-6.3935,-6.2166,-5.9973,-5.755,0.0,0.0,0.0,0.0,0.0,0.0,0.0,0.0,0.0,0.0,0.0,0.0,0.0,0.0,0.0,0.0,0.0,0.0,0.0,0.0,0.0,0.0,0.0,0.0,0.0,0.0,0.0,0.0,0.0,0.0,0.0,0.0,0.0,0.0,0.0,0.0,0.0,-6.4492,-6.5546,-6.0971,-6.4686,-6.5742,0.0,0.0,0.0,0.0,0.0,0.0,-7.4763,-7.6406,-7.9296,-8.3785,-8.4996,-8.6401,-8.8158,-9.0066,-9.1429,-9.2289,-9.2256,-9.2846,-9.3862,-9.2574,-9.183,-9.1595,-9.0579,-8.863,-8.5699,-7.9437,-7.4028,-6.9323,-6.6128,-6.4345,-6.3482,-6.2733,-6.2868,-6.351,0.0,0.0,0.0,0.0,0.0,0.0,0.0,0.0,0.0,0.0,0.0,-5.5288,-5.8655,-6.0622,-6.2349,-6.3986,-6.2732,-6.1838,-6.1684,-5.9554,-5.8231,-5.8038,-5.728,-5.728,-5.8154,-6.1308,-6.4343,-6.712,-7.0311,-7.2745,-7.4476,-7.5284,-7.5668,-7.5668,-7.4784,-7.2514,-6.9052,-6.4936,-6.3077,-6.2589,-5.855,0.0,0.0,0.0,0.0,0.0,0.0,0.0,0.0,0.0,0.0,0.0,0.0,0.0,0.0,0.0,0.0,0.0,0.0,0.0,0.0,0.0,0.0,0.0,0.0,0.0,0.0,0.0,0.0,0.0,0.0,0.0,0.0,0.0,0.0,0.0,0.0,0.0,0.0,-6.4646,-7.1445,0.0,0.0,0.0,0.0,-7.1365,-7.3203,-7.5781,-7.9219,-8.2578,-8.5624,-8.8278,-9.0035,-9.1751,-9.3501,-9.3657,-9.4124,-9.4907,-9.4907,-9.4559,-9.3902,-9.3823,-9.3318,-9.2461,-9.146,-8.9544,-8.6765,-8.2233,-7.8209,-7.4508,-7.0263,-6.8065,-6.7209,-6.7034,-6.6942,-6.6947,0.0,0.0,0.0,0.0,0.0,-4.858,-4.8696,-4.9247,-5.0325,-5.2261,-5.4358,-5.7022,-6.0441,-6.3921,-6.6674,-6.8363,-6.8939,-6.807,-6.5384,-6.2835,-6.0479,-5.8292,-5.6817,-5.7808,-6.1505,-6.3806,-6.6794,-7.0542,-7.2709,-7.4399,-7.5553,-7.5861,-7.6284,-7.6823,-7.6515,-7.5707,-7.4284,-6.9475,-6.6167,-6.3846,-6.0669,-5.8366,0.0,0.0,0.0,0.0,0.0,0.0,0.0,0.0,0.0,0.0,0.0,0.0,0.0,0.0,0.0,0.0,0.0,0.0,0.0,0.0,0.0,0.0,0.0,0.0,0.0,0.0,0.0,0.0,0.0,0.0,0.0,0.0,0.0,0.0,0.0,0.0,0.0,-7.1282,-7.7574,0.0,-7.4447,-7.5741,-7.7148,-7.7733,-8.0936,-8.4098,-8.7025,-8.89,-9.1006,-9.3575,-9.4276,-9.4626,-9.4662,-9.5784,-9.5622,-9.4259,-9.4821,-9.4675,-9.3856,-9.2729,-9.1992,-9.1589,-9.059,-8.8935,-8.6755,-8.4592,-8.1377,-7.7545,-7.4816,-7.2876,-7.1528,-7.083,-7.0218,-6.968,0.0,0.0,0.0,-4.7663,-4.8032,-4.8364,-4.8659,-4.9069,-5.0161,-5.2306,-5.5401,-5.8743,-6.2257,-6.6772,-7.0206,-7.1924,-7.2592,-7.1608,-6.8537,-6.4885,-6.1836,-5.9559,-5.8404,-5.9715,-6.3769,-6.6294,-6.9297,-7.2726,-7.4365,-7.5438,-7.6015,-7.6284,-7.6746,-7.7323,-7.7592,-7.7707,-7.7476,-7.3822,-7.0283,-6.6898,-6.3744,-6.1785,-6.0224,0.0,0.0,0.0,0.0,0.0,0.0,0.0,0.0,0.0,0.0,0.0,0.0,0.0,0.0,0.0,0.0,0.0,0.0,0.0,0.0,0.0,0.0,0.0,0.0,0.0,0.0,0.0,0.0,0.0,0.0,0.0,0.0,0.0,0.0,0.0,-7.8004,-7.5732,-8.2846,-8.5777,-8.0261,-8.2614,-8.4608,-8.4879,-8.7806,-9.0616,-9.2913,-9.3851,-9.5099,-9.6771,-9.6259,-9.5826,-9.5553,-9.6084,-9.5645,-9.4239,-9.4535,-9.4233,-9.3417,-9.1941,-9.1093,-9.0655,-8.9352,-8.7916,-8.6429,-8.5107,-8.2619,-7.9475,-7.7638,-7.6389,-7.5437,-7.3891,-7.2954,-7.2324,0.0,-4.7011,-4.6757,-4.7518,-4.8173,-4.8605,-4.8713,-4.9289,-5.0402,-5.2488,-5.6431,-6.0474,-6.4166,-6.8997,-7.2717,-7.4474,-7.3091,-7.1737,-7.0923,-6.5359,-6.2101,-6.2062,-6.2101,-6.3045,-6.4933,-6.8925,-7.189,-7.3704,-7.5302,-7.6053,-7.6053,-7.6938,-7.7323,-7.7361,-7.8169,-7.8515,-7.8477,-7.7746,-7.5476,-7.2014,-6.7821,-6.6013,-6.523,0.0,0.0,0.0,0.0,0.0,0.0,0.0,0.0,0.0,0.0,0.0,0.0,0.0,0.0,0.0,0.0,0.0,0.0,0.0,0.0,0.0,0.0,0.0,0.0,0.0,0.0,0.0,0.0,0.0,0.0,0.0,0.0,0.0,-6.9959,-7.7109,-8.1288,-7.8038,-8.7381,-9.1756,-8.5883,-8.9092,-9.1868,-9.2642,-9.3538,-9.471,-9.6352,-9.7251,-9.7719,-9.7719,-9.6029,-9.5553,-9.6373,-9.4718,-9.4239,-9.502,-9.4161,-9.3312,-9.2507,-9.1609,-9.0724,-8.9802,-8.7925,-8.6666,-8.5761,-8.3831,-8.202,-8.0341,-7.8641,-7.837,-7.8641,-7.6088,-7.5082,-7.4634,-4.5924,-4.625,-4.6622,-4.7044,-4.7731,-4.8421,-4.8902,-4.9166,-5.038,-5.3238,-5.7857,-6.2257,-6.5848,-7.0784,-7.4235,-7.5302,-7.3392,-7.1478,-7.006,-6.5026,-6.1831,-6.1166,-6.232,-6.4946,-6.9193,-7.1593,-7.398,-7.6374,-7.7328,-7.7515,-7.6938,-7.7784,-7.8169,-7.8207,-7.9054,-7.9438,-7.9477,-7.9862,-7.8784,-7.6438,-7.286,-6.991,-6.7242,0.0,0.0,0.0,0.0,0.0,0.0,0.0,0.0,0.0,0.0,0.0,0.0,0.0,0.0,0.0,0.0,0.0,0.0,0.0,0.0,0.0,0.0,0.0,0.0,0.0,0.0,0.0,0.0,0.0,0.0,0.0,-7.2344,-7.6758,-7.6836,-8.2694,-8.777,-8.9955,-9.4606,-9.6714,-9.4399,-9.5812,-9.6477,-9.5415,-9.6149,-9.6847,-9.7315,-9.7578,-9.7695,-9.7706,-9.6638,-9.6172,-9.6387,-9.531,-9.4246,-9.3283,-9.3048,-9.2153,-9.0672,-8.9151,-8.8275,-8.7885,-8.6087,-8.478,-8.3935,-8.3275,-8.1964,-8.037,-7.977,-7.8971,-7.7965,-7.661,-7.4923,-7.2894,-4.5236,-4.5671,-4.617,-4.6795,-4.7681,-4.8477,-4.9052,-4.9324,-5.0572,-5.3633,-5.8498,-6.2835,-6.6026,-7.0884,-7.4005,-7.4082,-7.1865,-6.976,-6.8112,-6.427,-6.2142,-6.2397,-6.4705,-6.7872,-7.1967,-7.4389,-7.6529,-7.8421,-7.9199,-7.9169,-7.8361,-7.9208,-7.94,-7.9092,-7.9977,-8.0323,-8.04,-8.09,-8.0285,-7.8861,-7.6938,-7.4731,-7.2126,-6.8139,-6.6461,-6.5847,-6.2551,-6.166,-6.1772,-5.9633,0.0,0.0,0.0,0.0,0.0,0.0,0.0,0.0,0.0,0.0,0.0,0.0,0.0,0.0,0.0,0.0,0.0,0.0,0.0,0.0,0.0,0.0,0.0,0.0,-7.707,-8.1679,-8.4687,-8.8437,-9.2068,-9.5309,-9.7652,-9.8665,-9.7791,-9.8498,-9.842,-9.7042,-9.7422,-9.7689,-9.7689,-9.7682,-9.7877,-9.8247,-9.7028,-9.6406,-9.6385,-9.4847,-9.3394,-9.2069,-9.1327,-9.0234,-8.8867,-8.7462,-8.6626,0.0,-8.4725,-8.3867,-8.3259,-8.1995,-8.085,0.0,0.0,0.0,0.0,0.0,-7.3175,-7.1236,-4.4874,-4.5204,-4.5649,-4.667,-4.785,-4.8783,-4.9182,-4.9617,-5.0949,-5.3849,-5.8501,-6.2536,-6.5197,-6.9826,-7.2433,-7.1551,-6.9289,-6.7261,-6.5768,-6.3617,-6.3297,-6.5243,-6.859,-7.1552,-7.4014,-7.7246,-7.9323,-8.0092,-8.0939,-8.0939,-8.0092,-8.0862,-8.0785,-7.9977,-8.0862,-8.1246,-8.1246,-8.1323,-8.0939,-8.0208,-7.9939,-7.9208,-7.7784,-7.2381,-7.1722,-7.3202,-6.9289,-6.717,-6.5893,-6.4012,0.0,0.0,0.0,0.0,0.0,0.0,0.0,0.0,0.0,0.0,0.0,0.0,0.0,0.0,0.0,0.0,0.0,0.0,0.0,0.0,0.0,0.0,0.0,0.0,-8.1758,-8.6172,-9.1953,-9.3594,-9.4804,-9.648,-9.8043,-9.8701,-9.7938,-9.856,-9.8632,-9.7756,-9.7714,-9.7714,-9.7714,0.0,0.0,0.0,0.0,-9.6256,-9.6259,-9.3718,-9.203,-9.112,-8.9477,-8.8188,-8.7212,-8.6353,-8.5465,-8.4617,-8.3744,-8.3357,-8.3103,-8.0517,-7.9261,-7.886,-7.7738,-7.6216,-7.4409,-7.2091,-7.0718,0.0,-4.3317,-4.4634,-4.5846,-4.6247,-4.7767,-4.9077,-4.9446,-4.9726,-5.1125,-5.4536,-5.836,-6.1745,-6.4435,-6.7975,-6.9826,-6.8997,-6.7233,-6.5764,-6.4795,-6.4962,-6.6448,-6.9552,-7.2976,-7.563,-7.7476,-8.0169,-8.1631,-8.1823,-8.267,-8.267,-8.1823,-8.1977,-8.1631,-8.09,-8.1708,-8.2054,-8.2093,-8.2824,-8.3016,-8.267,-8.0631,-7.89,-7.7323,-7.5462,-7.4358,-7.3555,-7.2032,-7.2306,-7.2792,-6.904,-6.8474,-6.8624,-6.425,-6.1473,0.0,0.0,0.0,0.0,0.0,0.0,0.0,0.0,0.0,0.0,0.0,0.0,0.0,0.0,0.0,0.0,0.0,0.0,0.0,-7.8984,-8.4101,-8.9101,-9.3086,-9.5,-9.6601,-9.8316,-9.8785,-9.8937,-9.8758,-9.8911,-9.8632,-9.7756,-9.7714,-9.7714,-9.7714,-9.7714,0.0,-9.7935,-9.6244,-9.5352,-9.5335,-9.2814,-9.1126,-9.024,0.0,0.0,-8.6314,-8.5456,-8.4597,-8.3705,-8.2879,-8.214,-8.1451,-8.0673,-7.902,-7.6806,-7.5244,-7.365,-7.2047,-7.0736,-6.9778,-6.8791,-4.2901,-4.4126,-4.537,-4.6077,-4.7408,-4.8674,-4.9514,-4.9862,-5.0976,-5.3646,-5.6383,-5.8909,-6.1044,-6.3898,-6.529,-6.4457,-6.4049,-6.3999,-6.4423,-6.6869,-7.0228,-7.4514,-7.7553,-7.9746,-8.1016,-8.3131,-8.4401,-8.4863,-8.5286,-8.5055,-8.4209,-8.4209,-8.3555,-8.2362,-8.2324,-8.2285,-8.2285,-8.2324,-8.2362,-8.2208,-8.0477,-7.9054,-7.7861,-7.74,-7.6836,-7.6262,-7.6335,-7.6488,-7.6197,-7.3264,-7.253,-7.2151,-6.7917,-6.547,-6.3588,0.0,0.0,0.0,0.0,0.0,0.0,0.0,0.0,0.0,0.0,0.0,0.0,0.0,0.0,-7.0117,-7.2265,0.0,-7.9844,-8.414,-8.7734,-9.1054,-9.4101,-9.5664,-9.6953,-9.8202,-9.8354,-9.8348,-9.8336,-9.8362,-9.8154,-9.7714,-9.7714,-9.7714,-9.7714,-9.7714,-9.7483,-9.7064,-9.6205,-9.5316,-9.4469,-9.2783,-9.1297,-8.9971,-8.8675,-8.7144,-8.5416,-8.4558,-8.3699,-8.284,-8.202,-8.1396,-8.0861,-7.9348,-7.6819,-7.3816,-7.2506,-7.1492,-7.0622,-6.9275,-6.8074,-6.6868,-4.3118,-4.3944,-4.4947,-4.6003,-4.7272,-4.8493,-4.9535,-4.9944,-5.0748,-5.2549,-5.4342,-5.6028,-5.747,-5.9598,-6.0559,-5.969,-6.1019,-6.2835,-6.4997,-6.9327,-7.4202,-7.9515,-8.2016,-8.3708,-8.4555,-8.6055,-8.7094,-8.7632,-8.7632,-8.7286,-8.6594,-8.6247,-8.5363,-8.4055,-8.317,-8.2824,-8.2785,-8.2285,-8.1977,-8.1747,-8.0708,-7.9785,-7.8977,-7.8646,-7.8594,-7.8824,-7.9636,-7.8955,-7.7457,-7.6,-7.49,-7.3704,-7.0977,-6.9441,-6.7809,-6.3514,-6.2939,0.0,0.0,0.0,0.0,0.0,0.0,0.0,0.0,-6.4335,-6.5742,-6.9369,-7.1594,-7.4483,-7.9678,-8.1162,-8.3506,-8.9249,-9.0889,-9.2337,-9.4802,-9.574,-9.6522,-9.7383,-9.7612,-9.7682,-9.768,-9.7701,-9.7685,-9.7682,-9.7682,-9.7682,-9.7682,-9.7522,-9.7128,-9.6429,-9.6055,-9.5043,-9.3322,-9.2322,-9.0955,-8.9224,-8.7663,-8.6056,-8.4519,-8.3816,-8.3074,-8.2254,-8.12,-8.0545,-8.0018,-7.7397,-7.441,-7.1425,-7.0312,-6.9692,-6.9188,-6.7677,-6.6299,-6.5156,-4.3824,-4.4473,-4.519,-4.6055,-4.7905,-4.9408,-4.9663,-4.9944,-5.0748,-5.2549,-5.3881,-5.4972,-5.5885,-5.6867,-5.7055,-5.6052,-5.9601,-6.3564,-6.7529,-7.2558,-7.8038,-8.3939,-8.5863,-8.7248,-8.8094,-8.9017,-8.9171,-8.8556,-8.8556,-8.8479,-8.8363,-8.6824,-8.6017,-8.5786,-8.4978,-8.4632,-8.467,-8.5286,-8.5132,-8.4324,-8.267,-8.1516,-8.0631,-7.9092,-7.8623,-7.8812,-7.8991,-7.8087,-7.6682,-7.5815,-7.49,-7.4148,-7.3821,-7.2606,-7.0458,-6.6299,-6.3549,-6.0937,-5.6632,-5.6326,-5.8082,-6.171,-6.2503,-6.4024,0.0,-7.1281,-7.2006,-7.6147,-7.8993,-8.1371,-8.3474,-8.6403,-8.8989,-9.0476,-9.1451,-9.2708,-9.4676,-9.5037,-9.5485,-9.6523,-9.7263,-9.7688,-9.768,-9.7717,-9.7711,-9.7698,-9.7698,-9.7698,-9.7698,-9.6979,-9.6511,-9.6409,-9.4889,-9.328,-9.1588,-8.9964,-8.8246,-8.6513,-8.5537,-8.4597,-8.3621,-8.3543,-8.3074,-8.2215,-8.0576,-7.8889,-7.7225,-7.5404,-7.3436,-7.1411,-6.9778,-6.8174,-6.6691,-6.5726,-6.5317,-6.497,-4.418,-4.5111,-4.6012,-4.7008,-4.8028,-4.895,-4.9602,-4.9944,-5.0405,-5.1226,-5.1913,-5.2433,-5.2751,-5.3458,-5.3777,-5.3353,-5.8552,-6.3422,-6.7151,-7.4574,-8.1068,-8.6009,-8.8867,-9.0556,-9.0902,-9.1248,-9.1248,-9.0902,-9.0402,-8.9902,-8.9363,-8.8671,-8.8055,-8.7594,-8.6748,-8.6055,-8.5593,-8.5478,-8.4901,-8.4055,-8.2785,-8.1823,-8.09,-7.9169,-7.74,-7.5826,-7.585,-7.4608,0.0,-7.2565,-7.1883,-7.1201,-7.1248,-7.0447,-6.8644,-6.4403,-6.2761,-6.1951,-6.0195,-5.9958,-6.1076,-6.4863,-6.6159,-6.7924,-7.3334,-7.4626,-7.5796,-7.9595,-8.2779,-8.526,-8.6514,-8.8728,-9.078,-9.2112,-9.2618,-9.3341,-9.4696,-9.4512,-9.4228,-9.4218,-9.4531,-9.5115,-9.6165,-9.6668,-9.6936,-9.6932,-9.6925,-9.6959,-9.6959,-9.6133,-9.5193,-9.4225,-9.3483,-9.2273,-9.0557,-8.9308,-8.8092,-8.6837,-8.5471,-8.4333,-8.3465,-8.3035,-8.2059,-8.0693,-7.8936,-7.7447,-7.6012,-7.3818,-7.2119,-7.0726,-6.8974,-6.7245,-6.5654,-6.5239,-6.4519,-6.3643,-4.473,-4.5842,-4.6962,-4.8023,-4.8468,-4.8903,-4.9651,-4.9959,-5.0163,-5.0356,-5.0553,-5.0712,-5.0712,-5.1152,-5.1457,-5.1453,-5.6954,-6.2144,-6.6188,-7.4436,-8.164,-8.7302,-9.0485,-9.2423,-9.3172,-9.2941,-9.2826,-9.2826,-9.1979,-9.1364,-9.0941,-9.0479,-8.994,-8.9325,-8.8248,-8.7401,-8.6786,-8.6209,-8.517,-8.3901,-8.3285,-8.1977,-8.0131,-7.7923,-7.5099,-7.2276,-7.2298,-7.049,-6.8044,-6.7864,-6.7415,-6.6958,-6.7519,-6.7281,-6.609,-6.2272,-6.0799,-6.0736,-6.213,-6.2625,-6.3728,-6.7633,-6.9785,-7.1872,-7.5431,-7.7079,-7.8767,-8.1973,-8.456,-8.6732,-8.8352,-8.9644,-9.098,-9.2693,-9.2926,-9.3196,-9.4027,-9.3617,-9.2919,-9.1991,-9.1875,-9.2265,-9.3318,-9.4799,-9.5812,-9.6043,-9.6075,-9.6071,-9.6071,-9.5248,-9.4116,-9.2634,-9.2358,-9.1304,-8.9319,-8.8412,-8.7431,-8.6296,-8.4809,-8.3789,-8.3152,-8.2332,-8.0849,-7.8897,-7.7648,-7.6308,-7.4882,-7.2734,-7.1147,-6.9917,-6.8138,-6.6418,-6.4863,-6.452,-6.3689,-6.2655,-4.559,-4.6848,-4.8017,-4.8919,-4.9431,-4.9811,-4.9959,-5.0101,-5.0259,-5.0478,-5.0604,-5.0712,-5.0712,-5.0653,-5.0661,-5.065,-5.4522,-5.9409,-6.5263,-7.1336,-7.8826,-8.805,-9.0124,-9.2235,-9.4864,-9.4095,-9.3672,-9.3672,-9.2864,-9.2864,-9.3557,-9.1941,-9.1171,-9.1056,-8.9402,-8.8632,-8.8632,-8.8594,-8.7132,-8.4863,-8.4824,-8.2324,-7.8207,-7.4841,-7.1543,-6.8745,-6.8745,-6.6165,-6.2603,-6.1848,-6.1554,-6.1842,-6.3616,-6.415,-6.3637,-6.1074,-5.7407,-5.5267,-6.0182,-6.211,-6.3915,-6.9065,-7.2842,-7.5763,-7.7511,-7.926,-8.1184,-8.3688,-8.4298,-8.5363,-8.8682,-8.9241,-8.9824,-9.158,-9.1785,-9.1861,-9.2121,-9.2165,-9.1637,-9.0233,-9.0078,-8.9765,0.0,-9.1992,-9.4335,-9.5152,-9.523,-9.523,-9.523,-9.4403,-9.3544,-9.2613,-9.1786,-9.0098,-8.7509,-8.6611,-8.5317,-8.3621,-8.2762,-8.2371,-8.2293,-8.1435,-7.9639,-7.7179,-7.7101,-7.5696,-7.3281,-7.2301,-7.0898,-6.9139,-6.727,-6.5541,-6.4004,-6.3035,-6.2703,-6.2585,-4.6264,-4.7201,-4.8231,-4.9371,-4.9769,-4.9973,-5.0163,-5.0259,-5.0363,-5.0489,-5.0604,0.0,0.0,0.0,0.0,0.0,-5.3903,-5.7784,-6.199,-6.9941,-7.6667,-8.1534,-8.7097,-9.0799,-9.2369,-9.2658,-9.3079,-9.371,-9.2903,-9.2326,-9.2018,-9.1479,-9.1518,-9.2018,-9.0864,-9.0056,-8.9479,-8.8833,-8.7086,-8.4626,-8.2935,-8.0328,-7.7016,-7.2568,-6.7782,-6.3179,0.0,-5.9389,-5.7257,-5.6459,-5.5808,-5.5622,-5.7395,-5.7994,-5.7785,-5.6455,-5.6982,-5.864,-6.1471,-6.531,-6.9505,-7.3493,-7.6253,-7.8544,-8.0786,-8.1757,-8.2611,-8.4026,-8.3363,-8.2904,-8.4056,-8.4696,-8.5565,-8.7229,-8.8905,-9.0301,-9.1053,-9.0663,-8.9309,-8.6658,-8.7334,0.0,0.0,0.0,0.0,-9.2453,-9.2578,-9.2577,-9.2537,-9.2304,-9.1242,-8.921,-8.8855,-8.7717,-8.5674,-8.4807,-8.4095,-8.3465,-8.2098,-8.1435,-8.1396,-7.9951,-7.8468,-7.7023,-7.5891,-7.4251,-7.2302,-7.0835,-6.9524,-6.8242,-6.651,-6.5128,-6.3979,-6.3066,-6.2383,-6.1868,0.0,-4.7903,-4.8799,-4.9721,-4.9973,0.0,0.0,0.0,0.0,0.0,0.0,0.0,0.0,0.0,0.0,0.0,0.0,-5.5638,-5.9,-6.5652,-7.1145,-7.497,-8.0047,-8.3567,-8.5185,-8.513,-8.5817,-8.7329,-8.744,-8.7808,-8.8444,-8.9077,-8.9825,-9.0633,-8.9787,-8.9038,-8.8427,-8.6876,-8.475,-8.216,-7.8974,-7.581,-7.2449,-6.7735,-6.3027,0.0,-5.5756,-5.3965,-5.2926,-5.2694,-5.2268,-5.2051,-5.3511,-5.4257,-5.464,-5.5077,-5.7723,-6.1344,-6.4828,-6.9453,-7.4058,-7.7205,-7.931,-8.0922,-8.23,-8.2621,-8.2582,-8.2543,-8.0911,-7.9368,-7.9057,-7.9149,-7.9703,-8.105,-8.3424,-8.5744,-8.7699,-8.7487,-8.6708,-8.552,-8.6351,-8.6468,0.0,0.0,0.0,-9.0059,-9.025,-9.0101,-8.9771,-8.9791,-8.8902,-8.6912,-8.6874,-8.6089,-8.4366,-8.3797,-8.3191,-8.2606,-8.1513,-8.0498,-7.9561,-7.8468,-7.714,-7.5696,-7.4564,-7.3119,-7.1402,-6.9996,-6.8843,-6.7847,-6.582,-6.4687,-6.4019,-6.2785,-6.2004,-6.1538,0.0,0.0,-4.9778,0.0,0.0,0.0,0.0,0.0,0.0,0.0,0.0,0.0,0.0,0.0,0.0,0.0,0.0,0.0,-5.6231,-5.8844,-6.2835,-6.864,-6.9904,-7.1689,-7.4335,-7.2875,-7.3313,-7.5848,-7.7447,-7.9869,-8.3034,-8.4676,-8.5885,-8.6709,-8.5769,-8.5351,-8.5113,-8.2633,-8.0049,-7.7358,-7.3246,-6.9141,-6.497,-6.0763,-5.7704,-5.5227,-5.1866,-5.0245,-4.9823,-5.0589,-5.0937,-5.127,-5.2284,-5.3314,-5.4601,-5.7148,-5.9808,-6.3344,-6.9962,-7.4266,-7.7504,-8.0009,-8.1804,-8.2795,-8.199,-8.1776,-8.1193,-7.9406,-7.692,-7.4813,-7.3846,-7.3045,-7.287,-7.3798,-7.625,-7.9238,-8.2718,-8.3252,-8.4241,-8.6685,-8.7057,-8.6746,-8.5779,0.0,0.0,-8.7987,0.0,-8.7866,-8.7112,-8.7117,-8.6731,-8.579,-8.5834,-8.5074,-8.3433,-8.3384,-8.257,-8.1005,-8.0927,-7.9522,-7.7101,-7.7062,-7.5657,-7.3312,-7.3236,-7.226,-7.0582,-6.9684,-6.8786,-6.7737,-6.519,-6.421,-6.3996,-6.2181,-6.1554,-6.1601,0.0,0.0,0.0,0.0,0.0,0.0,0.0,0.0,0.0,0.0,0.0,0.0,0.0,0.0,0.0,0.0,0.0,0.0,-5.2931,-5.6537,-5.9599,-6.1785,-6.6207,-6.9582,-7.1732,-7.1918,-7.297,-7.4926,-7.4787,-7.5118,-7.5902,-7.6379,-7.7009,-7.7738,-7.6263,-7.5595,-7.5426,-7.3446,-7.1482,-6.9536,-6.7199,-6.4436,-6.1447,-5.8464,-5.5865,-5.3587,-5.2115,-5.0747,-4.9745,-4.9939,-5.1718,-5.4172,-5.6397,-5.7653,-5.8971,-6.2214,-6.5825,-6.9721,-7.4059,-7.8203,-8.148,-8.2156,-8.2676,-8.2629,-8.1174,-7.9883,-7.8309,-7.5904,-7.2427,-6.9298,-6.7742,-6.9312,-7.131,-7.2809,-7.8328,-8.3231,-8.5383,-8.679,-8.7396,-8.6797,-8.7856,-8.7778,-8.5607,-8.5789,0.0,0.0,-8.5431,-8.5459,-8.5182,-8.5833,-8.5565,-8.4095,-8.404,-8.3549,-8.2467,-8.1874,-8.1355,-8.0966,-7.9678,-7.835,-7.7062,-7.6438,-7.511,-7.3275,-7.2612,-7.1324,-6.9645,-6.8786,-6.7576,-6.6092,-6.4778,-6.3878,-6.3206,-6.2055,-6.1665,-6.1665,0.0,0.0,0.0,0.0,0.0,0.0,0.0,0.0,0.0,0.0,0.0,0.0,0.0,0.0,0.0,0.0,0.0,0.0,0.0,-5.4125,-5.5631,-5.6472,-5.891,-6.0954,-6.2439,-6.29,-6.3987,-6.573,-6.6396,-6.7291,-6.8297,-6.904,-6.9846,-7.0613,-6.9654,-6.9203,-6.9044,-6.6892,-6.5241,0.0,0.0,-5.8743,-5.683,-5.4689,-5.3073,-5.1938,-5.1913,-5.2126,-5.2738,-5.4707,-5.6396,-5.7993,-5.9816,-6.1746,-6.4015,-6.7416,-7.1154,-7.4879,-7.834,-8.2133,-8.4829,-8.3801,-8.3513,-8.2566,-7.9117,-7.7224,-7.5002,-7.0585,-6.6866,-6.3759,-6.164,-6.3696,-6.6251,-6.7968,-7.4326,-8.0329,-8.3863,-8.5526,-8.6842,-8.8118,-8.9124,-8.8853,-8.6648,-8.6532,-8.5901,0.0,-8.3942,-8.371,-8.3351,-8.3813,-8.3668,-8.2766,-8.278,-8.2382,-8.1586,-8.1482,-8.0931,-7.9834,-7.9257,-7.7927,-7.593,-7.547,-7.4338,-7.269,0.0,-7.066,-6.9294,-6.8044,-6.6756,-6.5468,-6.4219,-6.3438,-6.2891,-6.203,-6.1718,-6.1683,0.0,0.0,0.0,0.0,0.0,0.0,0.0,0.0,0.0,0.0,-5.0922,-5.0783,-5.0807,-5.1442,0.0,0.0,0.0,0.0,0.0,0.0,-5.2211,-5.3065,-5.1617,-5.1261,-5.2131,-5.2043,-5.2696,-5.4233,-5.6422,-5.8614,-6.0751,-6.217,-6.3244,-6.3973,-6.3857,-6.3778,-6.3594,-6.1259,-5.9802,-5.8727,-5.5059,-5.3148,-5.2308,0.0,-5.0516,-5.0943,-5.1913,-5.3822,-5.6625,-6.1079,-6.2399,-6.2391,-6.3843,-6.6575,-6.9834,-7.3111,-7.6327,-7.9465,-8.2624,-8.5733,-8.7462,-8.4991,-8.4165,-8.241,-7.6642,-7.4091,-7.1135,-6.4645,-6.115,-5.8489,-5.5966,-5.7899,-6.0546,-6.268,-6.8665,-7.515,-8.1168,-8.2741,-8.5024,-8.9704,-9.0246,-8.9627,-8.8041,-8.6996,-8.5785,-8.4209,-8.3254,-8.246,-8.1843,-8.1804,-8.1834,-8.1883,-8.1968,-8.1646,-8.0897,-8.1522,-8.0622,-7.8233,-7.8872,-7.7466,-7.433,-7.4382,-7.3484,-7.1792,0.0,0.0,-6.9098,-6.7342,-6.617,-6.5273,-6.3633,-6.293,-6.2735,-6.1991,-6.1718,-6.1718,0.0,0.0,0.0,0.0,0.0,0.0,0.0,0.0,0.0,0.0,-5.2504,-5.1809,0.0,0.0,0.0,0.0,0.0,0.0,0.0,0.0,0.0,-5.4016,-5.3107,-5.3048,-5.4,-5.3255,-5.3031,-5.3338,-5.3716,-5.4093,-5.4482,-5.4713,-5.488,-5.4995,-5.4345,-5.4026,-5.3937,-5.2791,-5.2205,-5.2002,-5.1238,-5.0856,-5.0703,-5.0397,0.0,0.0,-5.3763,-5.4975,-5.6729,-6.1103,-6.4286,-6.7223,-7.1765,-7.5003,-7.7644,-8.0334,-8.2542,-8.4505,-8.6468,-8.7965,-8.8378,-8.5894,-8.4204,-8.1546,-7.5624,-7.0863,-6.6153,-6.0661,-5.6963,-5.416,-5.2318,-5.5782,-6.0414,-6.4968,-7.0796,-7.7086,-8.3784,-8.5436,-8.6803,-8.9124,-8.9395,-8.9008,-8.8002,-8.6455,0.0,0.0,0.0,-8.1732,-8.1702,-8.1713,-8.1734,-8.1824,-8.1863,-8.1558,-8.0821,-8.0236,-7.9098,-7.7335,-7.6753,-7.5425,-7.351,-7.3512,-7.2576,-7.0894,0.0,0.0,-6.82,-6.6483,-6.5312,-6.4414,-6.3399,-6.2579,-6.1913,-6.1757,-6.1718,-6.1718,0.0,0.0,0.0,0.0,0.0,0.0,0.0,-5.2556,-5.3283,-5.5378,-5.565,-5.4951,-5.3092,-5.2865,-5.2841,0.0,0.0,0.0,0.0,0.0,0.0,0.0,0.0,0.0,-5.251,-5.248,-5.2448,-5.2427,0.0,-5.2357,-5.225,-5.1732,-5.1505,-5.1467,-5.1085,-5.0932,-5.0894,-5.0474,-5.0283,-5.0283,-5.0283,-5.0588,-5.0971,0.0,0.0,0.0,-5.4276,-5.5653,-5.7757,-6.1215,-6.5287,-6.9692,-7.4557,-7.8117,-8.0993,-8.3518,-8.511,-8.6545,-8.8635,-8.9874,-8.9862,-8.6902,-8.4227,-8.0379,-7.3045,-6.7402,-6.197,-5.5955,-5.2669,-5.0667,-4.988,-5.3208,-5.7575,-6.2283,-6.8064,-7.4157,-8.055,-8.3319,-8.5643,-8.8249,-8.8532,-8.8196,-8.7306,-8.5681,-8.4327,0.0,0.0,-8.1541,-8.1646,-8.168,-8.1713,-8.1734,-8.1359,-8.0824,-8.0087,-7.9239,-7.8001,-7.6438,-7.6016,-7.4923,-7.3315,-7.3283,-7.2344,-7.066,-6.9762,0.0,-6.7927,-6.578,-6.4687,-6.4182,-6.2852,-6.2071,-6.1718,-6.1718,-6.1718,-6.1718,0.0,0.0,0.0,0.0,0.0,0.0,-5.3203,-5.342,-5.4468,-5.7479,-5.863,-5.794,-5.4599,-5.4167,-5.3874,0.0,0.0,0.0,0.0,0.0,0.0,0.0,0.0,0.0,0.0,0.0,0.0,-5.1813,-5.1952,0.0,0.0,0.0,0.0,0.0,-5.0283,-5.0283,-5.0283,-5.0283,-5.0283,0.0,0.0,-5.1009,0.0,0.0,0.0,0.0,0.0,-5.5945,-5.8165,-6.0993,-6.4809,-6.915,-7.3383,-7.7982,-8.2114,-8.3679,-8.5483,-8.7448,-8.959,-9.0946,-9.0999,-8.7638,-8.4239,-7.9414,-7.0705,-6.4524,-5.8806,-5.2158,-4.9393,-4.8107,-4.7979,-5.0752,-5.4403,-5.8537,-6.3731,-6.9546,-7.6059,-7.9609,-8.2854,-8.648,-8.6997,-8.6842,-8.6145,-8.4714,0.0,0.0,0.0,0.0,-8.1577,-8.1491,-8.1398,-8.1398,-8.0599,-7.9765,-7.885,-7.8214,-7.7023,-7.5272,-7.528,-7.4496,-7.3002,-7.3013,-7.2076,-7.0387,-6.9684,0.0,0.0,-6.5273,-6.4299,-6.4143,-6.2384,-6.1681,-6.1683,-6.1683,-6.1686,-6.1688,0.0,0.0,0.0,0.0,0.0,0.0,-5.401,-5.4304,-5.5965,-6.0725,-6.0085,-5.9024,-5.8588,-5.8536,-5.7313,0.0,0.0,0.0,0.0,0.0,0.0,0.0,0.0,0.0,0.0,0.0,0.0,-5.1813,-5.2527,0.0,0.0,0.0,0.0,0.0,0.0,-5.0283,-5.0283,-5.0283,0.0,0.0,0.0,0.0,0.0,0.0,0.0,0.0,0.0,-5.5642,-5.6456,-5.9854,-6.1888,-6.3623,-6.7213,-7.4557,-8.1522,-8.0084,-8.363,-8.8169,-8.9075,-9.0585,-9.1061,-8.7662,-8.425,-7.9259,-6.9932,-6.3227,-5.7202,-5.1084,-4.8505,-4.7055,-4.6287,-4.8994,-5.2464,-5.5993,-5.9591,-6.4894,-7.3171,-7.594,-7.8646,-8.2866,-8.4017,0.0,-8.4327,-8.3476,0.0,0.0,0.0,0.0,0.0,-8.0829,-8.045,-8.045,-7.9653,-7.8548,-7.7151,-7.6981,-7.5763,-7.3527,-7.3518,-7.3041,-7.2104,-7.2107,-7.117,-6.9528,0.0,0.0,0.0,-6.5002,-6.4299,-6.4143,-6.2384,-6.1688,-6.1696,-6.1696,-6.1701,-6.1707,0.0,0.0,0.0,0.0,0.0,0.0,-5.4045,-5.4364,-5.5957,-6.0443,-6.1256,-6.143,-6.1402,-6.0943,-5.8651,-5.3722,-5.3645,0.0,0.0,0.0,0.0,0.0,0.0,0.0,0.0,0.0,-5.1083,-5.1031,-5.1322,0.0,0.0,0.0,0.0,0.0,0.0,-5.0283,-5.0283,-5.0283,0.0,0.0,0.0,0.0,0.0,0.0,0.0,0.0,0.0,0.0,-5.5785,-5.7131,-5.9029,-6.0674,-5.9871,-6.5209,-7.2609,-7.6975,-8.0682,-8.4219,-8.8107,-9.0133,-9.0474,-8.7603,-8.2365,-7.6129,-6.9273,-6.1444,-5.4491,-5.0527,-4.8329,-4.7027,-4.6679,-4.8621,-5.1044,-5.3475,-5.5839,-5.9683,-6.623,-6.9033,-7.2569,-7.8347,-7.9784,0.0,0.0,0.0,0.0,0.0,0.0,0.0,0.0,-7.971,-7.9528,-7.9528,-7.8231,-7.7299,-7.6853,-7.5283,-7.4115,-7.3304,-7.2785,-7.2078,-7.1219,-7.1209,-7.027,-6.863,0.0,0.0,0.0,-6.4804,-6.3984,-6.3401,-6.2197,-6.1694,-6.1699,-6.1704,-6.1707,-6.1708,0.0,0.0,0.0,0.0,0.0,-5.1441,-5.3667,-5.4166,-5.5782,-5.9957,-6.1253,-6.2166,-6.3159,-6.1402,-5.8536,-5.4639,-5.3607,0.0,0.0,0.0,0.0,0.0,0.0,0.0,0.0,0.0,-5.1341,-5.1229,-5.1683,-5.1614,0.0,0.0,-5.0779,-5.0283,0.0,0.0,0.0,0.0,0.0,0.0,0.0,0.0,0.0,0.0,0.0,0.0,0.0,0.0,0.0,0.0,0.0,-5.8114,-5.5283,-5.7738,-6.3124,-7.0648,-7.5813,-8.007,-8.4482,-8.7526,-8.8914,-8.6627,-8.0658,-7.3984,-6.8545,-6.0397,-5.3065,-4.9946,-4.8167,-4.7052,-4.6774,-4.8368,-5.0,-5.099,-5.298,-5.6064,-6.0785,-6.3645,-6.7386,-7.3168,0.0,-7.6548,0.0,0.0,0.0,0.0,0.0,0.0,0.0,-7.7983,-7.7945,-7.8216,-7.6587,-7.5691,-7.5652,-7.3851,-7.293,-7.2921,-7.2016,-7.1307,-7.0681,-7.0436,-6.9491,-6.8083,0.0,0.0,0.0,-6.4379,-6.356,-6.2898,-6.2049,-6.1704,-6.1705,-6.171,-6.1712,-6.1713,0.0,0.0,0.0,0.0,0.0,-5.116,-5.286,-5.3736,-5.5721,-5.9944,-5.9723,-6.0446,-6.3809,-5.9696,-5.6969,-5.7772,-5.5556,0.0,0.0,0.0,0.0,0.0,0.0,0.0,-5.05,-5.2267,-5.3102,-5.2954,-5.4641,-5.4544,-5.2766,-5.2766,-5.1888,-5.0283,0.0,0.0,0.0,0.0,0.0,0.0,0.0,0.0,-5.5403,0.0,0.0,0.0,0.0,0.0,0.0,0.0,0.0,0.0,0.0,-5.4043,-5.4636,-5.9835,-6.8429,-7.6443,-7.7383,-8.2007,-8.6159,-8.4443,-7.9681,-7.3828,-6.7778,-6.0397,-5.3561,-4.9296,-4.7763,-4.6932,-4.5969,-4.7925,-4.941,-4.8592,-5.1331,-5.4808,-5.8264,-6.0919,-6.3824,0.0,0.0,-7.0556,-7.4761,0.0,0.0,0.0,0.0,0.0,0.0,-7.5624,-7.5546,-7.6397,-7.4811,-7.3627,-7.2935,-7.2929,-7.26,-7.1989,-7.1124,-7.0727,-7.0681,-6.982,-6.8915,0.0,0.0,0.0,0.0,-6.3722,-6.3023,-6.2908,-6.2057,-6.1712,-6.1716,-6.1716,-6.1718,-6.1719,0.0,0.0,0.0,0.0,0.0,0.0,-5.1973,-5.2349,-5.3566,-5.6626,-5.7212,-5.8689,-6.2051,-5.995,-5.888,-6.0293,-5.6014,0.0,0.0,0.0,0.0,0.0,0.0,-5.1156,-5.0653,-5.2267,-5.307,-5.2992,-5.3495,-5.3692,-5.3645,-5.2537,-5.1697,-5.1162,-5.0588,-5.0283,0.0,-5.0283,0.0,0.0,0.0,-5.4639,-5.5403,0.0,0.0,0.0,0.0,0.0,0.0,0.0,0.0,0.0,0.0,0.0,0.0,-5.4,-6.0187,-6.7763,-7.2093,-7.4713,-7.5999,-7.4837,-7.0554,-6.5485,-6.1212,-5.6513,-5.2129,-4.9057,-4.867,-4.8638,-4.7741,-4.9173,-5.0612,-5.0952,-5.1927,-5.3638,0.0,0.0,0.0,-6.7939,-7.3844,-7.8069,0.0,0.0,0.0,0.0,0.0,0.0,0.0,-7.4154,-7.4038,-7.5469,-7.3956,-7.278,-7.2078,-7.2123,-7.1534,-7.0273,-7.0583,-7.0112,-6.8977,-6.866,0.0,0.0,0.0,0.0,0.0,-6.321,-6.2666,-6.2088,-6.1824,-6.171,-6.1712,-6.1718,-6.1718,-6.1601,0.0,0.0,0.0,0.0,0.0,0.0,-5.1151,-5.1461,-5.2318,-5.418,-5.4868,-5.6702,-6.0714,-5.9109,-5.8765,-6.1363,-5.6816,0.0,0.0,0.0,0.0,0.0,-5.159,-5.1233,-5.1065,-5.2399,-5.3393,-5.394,-5.4851,-5.5351,-5.5517,-5.4791,-5.3569,-5.204,-5.1505,-5.0894,0.0,-5.0971,0.0,0.0,-5.4104,-5.4906,-5.5403,0.0,0.0,0.0,0.0,0.0,0.0,0.0,0.0,0.0,0.0,0.0,0.0,0.0,-5.3854,-5.8532,-6.4714,-6.7898,-6.9333,-6.8791,-6.5043,-6.0868,-5.8435,-5.4668,-5.1061,-4.8856,-4.8585,-4.8546,-4.8005,-4.9049,-5.0248,-5.1099,-5.2066,-5.3467,0.0,0.0,0.0,-6.7861,0.0,0.0,0.0,0.0,0.0,0.0,0.0,0.0,0.0,0.0,-7.2452,-7.3148,-7.2308,-7.1629,-7.1221,-7.0973,-7.0409,-6.9492,-6.9687,-6.9217,-6.82,-6.7807,0.0,0.0,0.0,0.0,0.0,-6.2666,-6.2201,-6.1704,-6.171,-6.1713,-6.1716,-6.1718,-6.1718,-6.1561,0.0,0.0,0.0,0.0,0.0,0.0,0.0,-5.1044,-5.1773,-5.2499,-5.269,-5.4562,-5.9415,-5.7237,-5.7008,-6.0981,-5.781,0.0,0.0,0.0,0.0,-5.2779,-5.143,-5.1037,-5.1793,-5.2768,-5.4023,-5.5576,-5.7966,-5.8756,-5.8077,-5.8803,-5.6931,-5.3072,-5.2957,-5.1926,-5.0397,-5.2079,0.0,-5.2957,-5.4715,-5.5403,0.0,0.0,0.0,0.0,0.0,0.0,0.0,0.0,0.0,0.0,0.0,0.0,0.0,0.0,0.0,0.0,0.0,-6.1201,-6.4932,-6.4932,-6.2046,-5.8961,-5.8078,-5.4196,0.0,-4.8662,-4.7773,-4.7308,-4.7347,-4.8043,-4.8894,-4.9823,-5.195,0.0,0.0,-5.9434,0.0,0.0,-7.2511,0.0,0.0,0.0,0.0,0.0,0.0,0.0,0.0,0.0,-7.075,-6.9927,-6.9989,-7.0081,-7.0214,-6.9611,-6.9318,-6.9297,-6.8476,-6.8086,-6.8006,-6.7107,0.0,0.0,0.0,0.0,0.0,-6.2012,-6.1704,-6.171,-6.1715,-6.1718,-6.1719,-6.1719,-6.1719,-6.1562,0.0,0.0,0.0,0.0,0.0,0.0,0.0,0.0,0.0,0.0,-5.1467,-5.2843,-5.5326,-5.5479,-5.632,0.0,0.0,0.0,0.0,0.0,0.0,-5.2839,-5.2529,-5.2449,-5.2686,-5.4154,-5.5423,-5.6435,-5.7685,-5.8794,-5.9797,-5.9338,-5.7886,-5.5632,-5.4371,-5.2499,-5.0397,-5.2079,0.0,-5.2957,-5.4715,-5.5403,0.0,0.0,0.0,0.0,-5.5403,-5.5403,0.0,0.0,0.0,0.0,0.0,0.0,0.0,0.0,-4.8591,-4.8693,-5.027,0.0,-5.355,-5.355,-5.284,-5.1703,0.0,-4.9908,-4.9475,-4.7773,-4.8314,-4.9281,-4.9892,-5.0163,-5.0828,-5.2376,0.0,-5.4102,-5.5854,0.0,0.0,-7.131,0.0,0.0,0.0,0.0,0.0,0.0,0.0,0.0,0.0,0.0,-6.9204,-6.8926,-6.8497,-6.8331,-6.8421,-6.9062,-6.8745,-6.7498,-6.7301,-6.6872,-6.6171,-6.5312,0.0,0.0,0.0,0.0,-6.1987,-6.1787,-6.171,-6.1716,-6.1716,-6.1717,-6.1718,-6.1719,-6.1718,-6.1483,0.0,0.0,0.0,0.0,0.0,0.0,0.0,0.0,0.0,0.0,-5.1047,-5.2231,-5.3913,-5.4868,-5.6091,0.0,0.0,0.0,0.0,0.0,0.0,-5.4,-5.331,-5.3104,-5.356,-5.4441,-5.5681,-5.729,-5.8488,-5.9723,-6.0943,-6.0485,-5.8956,-5.6511,-5.4409,-5.2308,-5.0397,-5.2079,-5.2575,-5.2384,-5.4104,0.0,0.0,0.0,0.0,0.0,-5.5403,-5.5403,0.0,-5.5403,-5.5403,-5.5033,0.0,0.0,0.0,0.0,-4.7345,-4.7209,-4.7673,-4.9281,-5.0867,-5.0867,-5.0558,-5.0016,-4.9049,-4.8972,-4.8701,-4.7386,-4.8159,-4.9243,-4.9668,-5.0395,-5.1323,-5.2685,-5.3909,0.0,0.0,0.0,-6.9144,-7.2395,0.0,0.0,0.0,0.0,0.0,0.0,0.0,0.0,0.0,0.0,-6.7708,-6.7019,-6.6708,-6.6941,-6.7737,-6.7707,-6.7187,-6.6288,-6.5896,-6.5467,-6.4999,-6.453,0.0,0.0,0.0,0.0,-6.1716,-6.1711,-6.1712,-6.1717,-6.1717,-6.1717,-6.1718,-6.1719,-6.1718,-6.1445,0.0,0.0,0.0,0.0,0.0,0.0,0.0,0.0,0.0,0.0,0.0,0.0,0.0,0.0,0.0,0.0,0.0,0.0,0.0,0.0,-5.4791,-5.5556,-5.4,-5.3489,-5.4369,-5.4369,-5.5517,-5.7813,-5.9671,-6.0981,-6.1784,-6.2051,-6.0179,-5.6511,-5.4333,-5.2308,-5.0627,-5.227,-5.2537,-5.1926,-5.3607,0.0,0.0,0.0,0.0,0.0,0.0,0.0,0.0,-5.5084,-5.511,-5.4753,-5.2052,0.0,0.0,0.0,0.0,0.0,-4.7216,-4.997,-5.2398,-5.1796,-5.1061,-5.0511,-5.0511,-4.9204,-4.7811,-4.7231,-4.7773,-4.8469,-4.874,-5.0055,-5.1447,-5.2414,0.0,0.0,-6.3072,-6.5183,-6.776,0.0,0.0,0.0,0.0,0.0,0.0,0.0,0.0,0.0,0.0,0.0,0.0,-6.4924,-6.4973,-6.5701,-6.7158,-6.5993,-6.539,-6.539,-6.4531,-6.4101,-6.4101,-6.3945,0.0,0.0,0.0,0.0,-6.1717,-6.1713,-6.1714,-6.1717,-6.1717,-6.1718,-6.1719,-6.1719,-6.1601,-6.125,0.0,0.0,0.0,0.0,0.0,0.0,0.0,0.0,0.0,0.0,0.0,0.0,0.0,0.0,0.0,0.0,0.0,0.0,0.0,-5.6816,-5.6282,-5.6396,-5.4804,-5.4307,-5.5186,-5.5224,-5.576,-5.6791,-5.9911,-6.186,-6.2739,-6.4153,-6.186,-5.6587,-5.618,-5.4295,-5.1493,-5.3187,-5.3416,-5.2766,-5.4486,0.0,0.0,0.0,0.0,0.0,0.0,0.0,0.0,-5.361,-5.3769,-5.3734,-5.0588,0.0,0.0,0.0,0.0,0.0,-4.8833,-5.173,-5.3386,-4.9877,-4.8894,-4.8778,-4.8778,-4.7424,-4.6387,-4.696,-4.7773,-4.8817,-5.0241,-5.1331,-5.2531,-5.4155,0.0,-6.1578,0.0,0.0,0.0,0.0,0.0,0.0,0.0,0.0,0.0,0.0,0.0,0.0,0.0,0.0,0.0,-6.3842,-6.3994,-6.4296,-6.4641,-6.4555,-6.449,-6.449,-6.3628,-6.3198,-6.3162,-6.2459,-6.2031,0.0,0.0,-6.1836,-6.1719,-6.1718,-6.1718,-6.1719,-6.1719,-6.1719,-6.1719,-6.1719,-6.1211,-6.0351,0.0,0.0,0.0,0.0,0.0,0.0,0.0,0.0,0.0,0.0,0.0,0.0,0.0,0.0,0.0,0.0,0.0,0.0,0.0,-5.6816,-5.6816,-5.7275,-5.6091,-5.5441,-5.5403,-5.6282,-5.781,-5.9988,-6.2013,-6.3885,-6.5566,-6.4038,-6.0943,-5.6587,-5.6129,-5.4562,-5.2308,-5.3072,-5.2919,-5.227,0.0,0.0,0.0,0.0,0.0,0.0,0.0,0.0,0.0,0.0,-5.2176,-5.2288,-4.9395,0.0,0.0,0.0,0.0,0.0,-4.7936,-4.9745,-5.1228,-5.1169,-5.2489,-5.3807,-5.3915,-5.1873,-4.9939,-4.9869,-4.9784,-5.0287,-5.1989,-5.3382,-5.544,-5.9026,0.0,-6.3216,0.0,0.0,0.0,0.0,0.0,0.0,0.0,0.0,0.0,0.0,0.0,0.0,0.0,0.0,0.0,0.0,-6.3157,-6.3319,-6.35,-6.3083,-6.3124,-6.3593,-6.2694,-6.2303,-6.2265,-6.1874,-6.1718,-6.1719,0.0,-6.1719,-6.1719,-6.1719,-6.1719,-6.1719,-6.1719,-6.1719,-6.1601,-6.0664,-5.9805,-5.8867,0.0,0.0,0.0,0.0,0.0,0.0,0.0,0.0,0.0,0.0,0.0,0.0,0.0,0.0,0.0,0.0,0.0,0.0,0.0,-5.655,-5.6945,-5.7581,-5.6778,-5.6282,-5.6282,-5.7734,-5.9835,-6.2586,-6.4458,-6.6231,-6.7821,-6.4191,-6.0485,-5.6893,-5.6243,-5.4906,-5.311,-5.3301,-5.2841,-5.2009,0.0,0.0,0.0,0.0,0.0,0.0,0.0,0.0,0.0,0.0,0.0,0.0,0.0,0.0,0.0,-4.6233,-4.5612,-4.5894,-4.7078,-4.8145,-4.9676,-5.2754,-5.4946,-5.6869,-5.874,-5.6244,-5.3614,-5.3923,-5.3149,-5.2754,-5.3884,-5.547,0.0,-6.2915,-6.4048,0.0,0.0,0.0,0.0,0.0,0.0,0.0,0.0,0.0,0.0,0.0,0.0,0.0,0.0,0.0,0.0,0.0,-6.2357,-6.245,-6.2695,-6.2031,-6.2031,-6.2695,-6.2031,-6.1719,-6.1719,-6.1719,-6.1719,-6.1719,-6.1719,-6.1719,-6.1719,-6.1719,-6.1719,-6.1719,-6.1719,-6.1445,-6.0937,-5.9453,-5.8203,-5.7187,0.0,0.0,0.0,0.0,0.0,0.0,0.0,0.0,0.0,0.0,0.0,0.0,0.0,0.0,0.0,0.0,0.0,0.0,-5.562,-5.6387,-5.6776,-5.6715,-5.5938,-5.6549,-5.879,-5.972,-6.0714,-6.1707,-6.6483,-6.8508,-6.7859,-6.5987,-6.251,-5.781,-5.7734,-5.632,-5.4065,-5.4868,-5.4341,-5.3046,-5.3853,0.0,0.0,0.0,0.0,0.0,0.0,0.0,0.0,0.0,0.0,0.0,0.0,0.0,-4.7662,-4.6059,-4.5654,-4.6082,-4.7828,-4.9396,-5.1005,-5.3009,-5.1904,-5.2174,-5.93,-5.7056,-5.4619,-5.8526,-5.8023,-5.6622,-5.5935,-5.725,-5.958,-6.31,-6.4996,0.0,0.0,0.0,0.0,0.0,0.0,0.0,0.0,0.0,0.0,0.0,0.0,0.0,0.0,0.0,0.0,0.0,0.0,-6.1609,-6.1797,-6.1719,-6.1719,-6.1797,-6.1719,-6.1719,-6.1719,-6.1719,-6.1719,-6.1719,-6.1719,-6.1719,-6.1719,-6.1719,-6.1719,-6.1719,-6.1719,-6.0742,-5.9258,-5.8359,-5.6914,-5.5469,0.0,0.0,0.0,0.0,0.0,0.0,0.0,0.0,0.0,0.0,0.0,0.0,0.0,0.0,0.0,0.0,0.0,0.0,-5.4139,-5.4909,-5.5297,-5.5193,-5.5384,-5.6396,-5.8307,-6.0714,-6.3656,-6.7056,-7.0075,-7.0304,-6.7821,-6.5108,-6.1975,-5.8574,-5.7046,-5.5823,-5.4919,-5.4821,-5.4436,-5.3954,-5.438,-5.4165,0.0,0.0,0.0,0.0,0.0,0.0,0.0,0.0,-4.7805,-4.7681,-4.6826,-4.6866,-4.6992,-4.5923,-4.5654,-4.5858,-4.6598,-4.8701,-5.088,-5.1686,-5.1893,-5.3837,-6.107,-6.0809,-5.9493,-6.1118,-6.0925,-6.0035,-5.8681,-6.0692,-6.3023,-6.43,0.0,0.0,0.0,0.0,0.0,0.0,0.0,0.0,0.0,0.0,0.0,0.0,0.0,0.0,0.0,0.0,0.0,0.0,0.0,-6.1495,-6.1719,-6.1719,-6.1719,-6.1719,-6.1719,-6.1719,-6.1719,-6.1719,-6.1719,-6.1719,-6.1719,-6.1719,-6.1719,-6.1719,-6.1367,-6.0859,-6.0351,-5.9414,-5.8203,-5.6797,-5.5508,-5.4414,0.0,0.0,0.0,0.0,0.0,0.0,0.0,0.0,0.0,0.0,0.0,0.0,0.0,0.0,0.0,0.0,0.0,0.0,-5.258,-5.3846,-5.439,-5.3979,-5.4732,-5.6187,-5.8285,-6.1086,-6.4573,-6.8814,-7.0801,-7.0457,-6.7821,-6.4191,-6.144,-5.9376,-5.6625,-5.5594,-5.5847,-5.5105,-5.4728,-5.4585,-5.4721,-5.4575,0.0,0.0,0.0,0.0,0.0,0.0,0.0,0.0,-4.6681,-4.6552,-4.6463,-4.642,-4.6317,-4.5783,-4.6001,-4.6466,-4.6546,-4.8213,-5.0061,-5.0726,-5.1713,-5.4369,-6.1302,-6.2433,-6.2588,-6.4754,-6.3942,-6.2394,-6.0963,-6.2394,0.0,0.0,0.0,0.0,0.0,0.0,0.0,0.0,0.0,0.0,0.0,0.0,0.0,0.0,0.0,0.0,0.0,0.0,0.0,0.0,0.0,0.0,-6.0898,-6.0898,-6.1055,-6.1289,-6.1015,-6.1172,-6.168,-6.1406,-6.1445,-6.168,-6.1133,-6.1055,-6.125,-6.0703,-6.0,-5.914,-5.8594,-5.7695,-5.6523,-5.5312,-5.4141,-5.3164,0.0,0.0,0.0,0.0,0.0,0.0,0.0,0.0,-5.0306,-5.2046,-5.3147,0.0,0.0,0.0,0.0,0.0,-5.2885,-5.1917,-5.1048,-5.3374,-5.4304,-5.3253,-5.3913,-5.5861,-5.9189,-6.0772,-6.2853,-6.5452,-6.7935,-6.8699,-6.7744,-6.3541,-6.1134,-6.0231,-5.6893,-5.5974,-5.6857,-5.6058,-5.5389,-5.4913,-5.5009,-5.5132,-5.511,0.0,0.0,0.0,0.0,0.0,0.0,0.0,-4.723,-4.5997,-4.7734,-4.7058,-4.565,-4.5703,-4.6848,-4.8125,-4.8176,-4.8202,-4.8664,-5.0379,-5.0872,-5.2754,-5.9532,-6.1118,-6.3052,-6.986,-6.723,-6.3449,-6.2588,-6.1737,0.0,0.0,0.0,0.0,0.0,0.0,0.0,0.0,0.0,0.0,0.0,0.0,0.0,0.0,0.0,0.0,0.0,0.0,0.0,0.0,0.0,0.0,-5.9219,-5.9219,-5.9609,-6.039,-5.957,-6.0078,-6.164,-6.0781,-6.0859,-6.1562,-5.9922,-5.9648,-6.0234,-5.8555,-5.7383,-5.6601,-5.6601,-5.5508,-5.3984,-5.4023,-5.2891,-5.1641,0.0,0.0,0.0,0.0,0.0,0.0,0.0,0.0,-5.0248,-5.1364,-5.2324,0.0,0.0,0.0,0.0,0.0,0.0,-5.1403,-5.1159,-5.1853,-5.2376,-5.2578,-5.3304,-5.4455,-5.5941,-5.8649,-6.2689,-6.805,-6.7018,-6.5796,-6.4305,-6.1287,-5.9109,-5.7709,-5.6754,-5.6222,-5.6068,-5.596,-5.5851,-5.5831,-5.599,-5.6107,-5.6008,0.0,0.0,0.0,0.0,0.0,0.0,0.0,0.0,0.0,-4.6415,-4.7016,-4.731,-4.6082,-4.6939,-4.8052,-4.6839,-4.9101,-5.1488,-5.0301,-5.3605,-5.7651,-5.9784,-6.1157,-6.3439,-6.8506,-6.7346,-6.5218,-6.4367,-6.4019,0.0,0.0,0.0,0.0,0.0,0.0,0.0,0.0,0.0,0.0,0.0,0.0,0.0,0.0,0.0,0.0,0.0,0.0,0.0,0.0,0.0,0.0,-5.9219,-5.9219,-5.9336,-5.9531,-5.9297,-5.9765,-6.0742,-5.9922,-5.9687,-5.9922,-5.9414,-5.8984,-5.8515,-5.6797,-5.5937,-5.5703,-5.5703,-5.4609,-5.3242,-5.4453,-5.3437,-5.1562,0.0,0.0,0.0,0.0,0.0,0.0,0.0,0.0,-4.9732,-5.0611,-5.1763,-5.255,0.0,0.0,0.0,0.0,-5.1724,-5.1092,-5.0758,-5.103,-5.1429,-5.1851,-5.2615,-5.384,-5.5584,-5.7839,-6.0938,-6.4907,-6.424,-6.3197,-6.186,-6.0332,-5.888,-5.7632,-5.8092,-5.7758,-5.6845,-5.7016,-5.6831,-5.6383,-5.6506,-5.6361,-5.5934,0.0,0.0,0.0,0.0,0.0,0.0,0.0,0.0,0.0,-4.5914,-4.6603,-4.7294,-4.6461,-4.7449,-4.8833,-4.8753,-5.0735,-5.2847,-5.3074,-5.5971,-5.9215,-6.0993,-6.3478,-6.6147,-6.8738,-6.7926,-6.6572,-6.6069,-6.518,0.0,0.0,0.0,0.0,0.0,0.0,0.0,0.0,0.0,0.0,0.0,0.0,0.0,0.0,0.0,0.0,0.0,0.0,0.0,0.0,0.0,0.0,-5.8164,-5.8164,-5.8359,-5.8671,-5.8319,-5.8593,-5.9375,-5.8906,-5.8867,-5.914,-5.8476,-5.7461,-5.625,-5.4844,-5.4258,-5.4258,-5.4258,-5.3828,-5.3359,-5.4414,-5.3555,-5.2031,0.0,0.0,-4.6079,-4.6002,0.0,0.0,0.0,0.0,-4.9005,-4.9804,-5.1395,-5.2425,0.0,0.0,0.0,0.0,0.0,0.0,-5.017,-5.0867,-5.1326,-5.1458,-5.2236,-5.4146,-5.7267,-5.7823,-5.8095,-5.8153,-6.0201,-6.077,-5.9966,-6.0056,-5.9726,-5.9102,-6.0046,-5.9688,-5.8311,-5.8428,-5.7604,-5.6243,-5.6327,-5.5898,-5.5078,-5.4141,0.0,0.0,0.0,0.0,0.0,0.0,0.0,0.0,-4.6051,-4.6129,-4.6313,-4.6692,-4.8081,-4.9975,-5.205,-5.2406,-5.3097,-5.7159,-5.7959,-5.8797,-6.2791,-6.6737,-6.9551,-6.9628,-6.8622,-6.7655,-6.7423,-6.5489,0.0,0.0,0.0,0.0,0.0,0.0,0.0,0.0,0.0,0.0,0.0,0.0,0.0,0.0,0.0,0.0,0.0,0.0,0.0,0.0,0.0,0.0,-5.6601,-5.66,-5.699,0.0,-5.6985,-5.6986,-5.7654,-5.7734,-5.8203,-5.8867,-5.7187,-5.5586,-5.4062,-5.3164,-5.2773,-5.2734,-5.2851,-5.332,-5.3906,-5.4062,-5.3516,-5.2812,0.0,0.0,-4.6812,-4.6118,0.0,0.0,0.0,0.0,0.0,-4.9019,-5.0589,0.0,0.0,0.0,0.0,0.0,0.0,0.0,-5.1125,-5.1229,-5.1916,-5.3256,-5.4723,-5.6433,-5.8343,-5.6575,-5.5893,-5.645,-5.7513,-5.7621,-5.6813,-5.7482,-5.8114,-5.8644,-5.8944,-5.8202,-5.6745,-5.6166,-5.4972,-5.3593,-5.4297,-5.4453,-5.4101,-5.2539,-5.1601,0.0,0.0,0.0,0.0,0.0,0.0,0.0,-4.617,-4.6986,-4.7612,-4.5723,-4.7305,-4.9475,-4.8647,-5.075,-5.3705,-5.5938,-5.8934,-6.1737,-6.3333,-6.4919,-6.6263,-6.6882,-6.8313,-6.8854,-6.6843,0.0,0.0,0.0,0.0,0.0,0.0,0.0,0.0,0.0,0.0,0.0,0.0,0.0,0.0,0.0,0.0,0.0,0.0,0.0,0.0,0.0,0.0,-5.6601,-5.66,-5.6599,-5.6676,0.0,-5.6671,-5.6322,-5.5896,-5.6561,-5.6992,-5.7109,-5.6055,-5.5351,-5.4961,-5.4062,-5.332,-5.2851,-5.4219,-5.4023,-5.3164,-5.4531,-5.4023,-5.2734,0.0,0.0,0.0,0.0,0.0,0.0,0.0,0.0,0.0,0.0,0.0,0.0,0.0,0.0,0.0,0.0,0.0,0.0,-5.1414,-5.1375,-5.2107,-5.3841,-5.5143,-5.6193,-5.702,-5.5686,-5.4756,-5.431,-5.4706,-5.5001,-5.5257,-5.6934,-5.7779,-5.7947,-5.9289,-5.8325,-5.5662,-5.5784,-5.4601,-5.2734,-5.3203,-5.3125,-5.2656,-5.1758,-5.0625,-4.9414,-4.8086,0.0,0.0,0.0,0.0,0.0,0.0,0.0,-4.7124,-4.5682,-4.6535,-4.8057,-4.8752,-5.0534,-5.3149,-5.694,-6.046,-6.3129,-6.3603,-6.4377,-6.4986,-6.4986,-6.6379,-6.7191,0.0,0.0,0.0,0.0,0.0,0.0,0.0,0.0,0.0,0.0,0.0,0.0,0.0,0.0,0.0,0.0,0.0,0.0,0.0,0.0,0.0,0.0,-5.5351,-5.5351,-5.535,-5.5346,-5.5342,-5.5377,-5.5375,-5.5105,-5.4683,-5.5155,-5.582,-5.6523,-5.5234,-5.4687,-5.4609,-5.375,-5.3125,-5.2773,-5.3711,-5.4023,-5.3984,-5.4492,-5.4101,-5.3242,0.0,0.0,0.0,0.0,0.0,0.0,0.0,0.0,0.0,0.0,0.0,0.0,0.0,0.0,0.0,0.0,0.0,0.0,-5.1391,-5.1552,-5.2291,-5.3832,-5.4606,-5.5138,-5.542,-5.4931,-5.4061,-5.2814,-5.2636,-5.333,-5.4979,-5.694,-5.7714,-5.7592,-5.9576,-5.8367,-5.4861,-5.5458,-5.4218,-5.1836,-5.1992,-5.1601,-5.0937,-5.0781,-4.9453,-4.7578,-4.7422,-4.6914,-4.6289,-4.6289,0.0,0.0,0.0,0.0,-4.5898,-4.5613,-4.5628,-4.6396,-4.911,-5.0586,-5.2701,-5.8264,-6.135,-6.31,-6.3216,-6.3787,-6.4097,-6.341,-6.4068,0.0,0.0,0.0,0.0,0.0,0.0,0.0,0.0,0.0,0.0,0.0,0.0,0.0,0.0,0.0,0.0,0.0,0.0,0.0,0.0,0.0,-5.3881,-5.3984,-5.3983,-5.3982,-5.3981,-5.4012,-5.4005,-5.4003,-5.3838,-5.3845,-5.3977,-5.3514,-5.4297,-5.5859,-5.457,-5.3906,-5.3711,-5.3008,-5.2617,-5.2461,-5.2461,-5.3281,-5.4336,-5.3594,-5.3359,-5.3203,0.0,0.0,0.0,0.0,0.0,0.0,0.0,0.0,0.0,0.0,-5.061,-5.1271,0.0,0.0,-5.1418,-5.1385,-5.1387,-5.1389,-5.1393,0.0,0.0,-5.385,-5.4021,-5.4787,-5.6276,-5.4099,-5.3186,-5.3732,-5.2948,-5.3844,-5.6225,-5.5818,-5.6741,-5.8708,-5.7648,-5.6037,-5.4022,-5.2656,-5.0625,-4.8359,-4.9101,-4.9336,-4.9141,-4.8398,-4.7891,-4.75,-4.6758,-4.6406,-4.6289,-4.6289,-4.6289,0.0,0.0,0.0,-4.493,-4.4133,-4.4403,-4.5044,-4.5481,-4.9365,-5.4149,-5.7856,-5.9609,-6.0576,-6.1273,-6.1543,-6.1582,0.0,0.0,0.0,0.0,0.0,0.0,0.0,0.0,0.0,0.0,0.0,0.0,0.0,0.0,0.0,0.0,0.0,0.0,0.0,0.0,0.0,0.0,-5.3832,-5.3928,-5.3983,-5.3983,-5.4019,-5.4009,-5.4006,-5.4002,-5.3992,-5.3212,-5.326,-5.3938,-5.1634,-5.156,-5.3242,-5.3789,-5.3555,-5.2851,-5.2734,-5.2266,-5.1562,-5.1562,-5.1289,-5.0859,-5.0742,-5.0703,-5.0586,0.0,0.0,0.0,0.0,0.0,0.0,0.0,0.0,0.0,0.0,0.0,-5.1978,-5.1595,-5.1469,-5.1387,-5.1394,-5.1395,-5.1397,-5.1402,-5.1747,-5.2362,-5.3173,-5.324,-5.3576,-5.4297,-5.3241,-5.2614,-5.2497,-5.211,-5.3244,-5.5747,-5.5408,-5.6868,-5.9694,-5.8033,-5.6051,-5.3906,-5.2148,-5.0195,-4.832,-4.8203,-4.8476,-4.8789,-4.793,-4.7617,-4.75,-4.6601,-4.6289,-4.6289,-4.6289,-4.6289,-4.6289,-4.6289,0.0,0.0,0.0,-4.3528,-4.3797,-4.5698,-4.9503,-5.3697,-5.6582,-5.8651,-5.991,-5.9793,-6.0106,-6.0306,-5.9803,0.0,0.0,0.0,0.0,0.0,0.0,0.0,0.0,0.0,0.0,0.0,0.0,0.0,0.0,0.0,0.0,0.0,0.0,0.0,0.0,-5.2344,-5.2436,-5.2302,-5.1873,-5.1833,-5.1593,-5.1109,-5.1576,-5.2042,-5.2546,-5.2149,-5.1927,-5.1789,-5.0614,-5.1049,-5.2656,-5.2109,-5.1641,-5.1289,-5.1289,-5.0781,-5.0,-5.0,-5.0078,-5.0156,-4.9648,-4.9766,-5.0078,0.0,0.0,0.0,0.0,0.0,0.0,0.0,0.0,0.0,0.0,0.0,-5.2374,-5.2381,0.0,0.0,0.0,-5.1088,-5.1011,-5.0779,-5.0777,-5.1163,-5.2016,-5.2051,-5.2117,-5.2283,-5.2325,-5.2055,-5.1394,-5.1396,-5.2921,-5.5853,-5.5485,-5.725,-6.0649,-5.851,-5.6366,-5.418,-5.2031,-5.0351,-4.9141,-4.8047,-4.8008,-4.8516,-4.8086,-4.793,-4.7773,-4.668,-4.6289,-4.6211,-4.5781,-4.5625,-4.5625,-4.5625,-4.5039,0.0,0.0,0.0,-4.2633,-4.5549,-4.8564,-5.1554,-5.4308,-5.6897,-5.87,-5.8461,0.0,-5.9475,0.0,0.0,0.0,0.0,0.0,0.0,0.0,0.0,0.0,0.0,0.0,0.0,0.0,0.0,0.0,0.0,0.0,0.0,0.0,0.0,0.0,-5.0984,-5.0855,-5.0507,-4.988,-4.9838,-4.9479,-4.8798,-4.9655,-5.0436,-5.1063,-5.1286,-5.1063,-5.042,-5.0181,-5.0695,-5.164,-5.039,-4.9726,-4.9531,-4.9531,-4.9141,-4.8555,-4.832,-4.8633,-4.9141,-4.8476,-4.8633,-4.9101,0.0,0.0,0.0,0.0,0.0,0.0,0.0,0.0,0.0,0.0,0.0,-5.1482,-5.1483,-5.144,-5.1088,-5.035,-5.0271,-4.992,-4.9061,-4.9021,-4.9371,-5.0187,-5.0252,0.0,-5.1451,-5.1467,-5.1453,-5.1414,-5.1391,-5.3552,-5.7625,-5.6041,-5.7572,-6.1481,-5.8161,-5.6132,-5.5,-5.168,-5.0195,-4.9961,-4.8281,-4.7617,-4.7734,-4.8555,-4.8828,-4.8594,-4.6914,-4.6289,-4.6055,-4.4375,-4.3828,-4.3828,-4.3828,-4.3242,-4.2539,0.0,0.0,0.0,-4.3329,-4.5146,-4.7309,-5.065,-5.336,-5.5696,0.0,0.0,0.0,0.0,0.0,0.0,0.0,0.0,0.0,0.0,0.0,0.0,0.0,0.0,0.0,0.0,0.0,0.0,0.0,0.0,0.0,0.0,0.0,0.0,-5.0085,-4.941,-4.9023,-4.8977,-4.8976,-4.8892,-4.8798,-4.9655,-5.0124,-5.0163,-5.1013,-5.1373,-5.1312,-5.0492,-4.9717,-4.91,-4.9023,-4.8516,-4.7734,-4.7734,-4.7695,-4.7578,-4.6758,-4.6445,-4.6484,-4.6445,-4.6445,-4.6484,0.0,0.0,0.0,0.0,0.0,0.0,0.0,0.0,0.0,0.0,0.0,0.0,0.0,-5.0936,-5.0506,-5.0234,-5.0195,-5.0273,-5.0507,-5.0507,-5.0623,-5.0934,-5.0928,-5.1078,-5.1385,-5.1418,-5.1414,-5.1414,-5.1384,-5.2757,-5.5375,-5.5308,-5.6405,-5.8357,-5.7147,-5.6133,-5.5117,-5.2187,-5.0351,-4.9297,-4.8672,-4.8437,-4.8398,-4.8164,-4.875,-4.9492,-4.7773,-4.7148,-4.6953,-4.5781,-4.5,-4.4453,-4.3867,-4.2734,-4.1523,-4.0976,-4.0976,-4.1523,-4.3199,-4.4525,-4.6007,-4.8302,-5.1206,-5.3481,-5.3559,-5.5475,0.0,0.0,0.0,0.0,0.0,0.0,0.0,0.0,0.0,0.0,0.0,0.0,0.0,0.0,0.0,0.0,0.0,0.0,0.0,0.0,0.0,0.0,-4.9293,-4.9023,-4.8632,-4.8078,-4.8078,-4.8034,-4.8017,-4.8283,-4.8986,-5.0085,-5.0425,-5.0551,-5.0568,-5.0256,-4.9678,-4.8866,-4.832,-4.7578,-4.6758,-4.6758,-4.6758,-4.6719,-4.6406,-4.6289,-4.6289,-4.6289,-4.6289,-4.6289,0.0,0.0,0.0,0.0,0.0,-5.2891,-5.0898,-5.1055,-5.1211,-5.0664,0.0,0.0,0.0,0.0,-5.0507,-5.0234,-4.9922,-5.0,-5.0547,-5.0546,-5.0702,-5.0975,-5.1012,-5.1125,-5.1393,-5.1393,-5.1393,-5.1393,-5.1125,-5.2026,-5.4018,-5.3984,-5.4765,-5.6132,-5.5234,-5.5351,-5.5976,-5.3086,-5.1367,-5.0547,-4.9961,-4.957,-4.9375,-4.9648,-5.0117,-5.043,-4.8984,-4.8281,-4.7851,-4.668,-4.5937,-4.5234,-4.4062,-4.2344,-4.0664,-4.0078,-4.0312,-4.1055,-4.2461,-4.3281,-4.4297,-4.6601,-4.8393,-4.9903,-5.1076,0.0,0.0,0.0,0.0,0.0,0.0,0.0,0.0,0.0,0.0,0.0,0.0,0.0,0.0,0.0,0.0,0.0,0.0,0.0,0.0,0.0,0.0,0.0,-4.8476,-4.8203,-4.7773,-4.7181,-4.7177,-4.717,-4.7159,-4.7424,-4.8127,-4.9265,-4.9532,-4.9809,-5.0095,-5.0098,-4.9794,-4.9255,-4.871,-4.7812,-4.6719,-4.6406,-4.6289,-4.6328,-4.6601,-4.6562,-4.6328,-4.6641,-4.6562,-4.6289,0.0,0.0,-5.5078,-5.418,-5.3359,-5.2461,-5.1601,-5.1484,-5.1484,-5.1484,0.0,0.0,0.0,0.0,0.0,-5.0312,-4.9492,-4.8984,-4.8984,-4.8984,-4.9336,-5.0194,-5.0233,-5.0583,-5.1398,-5.1398,-5.1398,-5.1398,-5.0583,-5.1483,-5.3905,-5.2187,-5.2734,-5.5078,-5.2578,-5.3789,-5.7461,-5.4023,-5.3086,-5.375,-5.207,-5.0937,-5.0508,-5.2969,-5.2891,-5.1367,-5.0547,-4.9687,-4.8672,-4.6992,-4.6367,-4.5937,-4.418,-4.1914,-3.9922,-3.9922,-3.9922,-4.0117,0.0,0.0,0.0,-4.5273,-4.4844,0.0,-5.0,0.0,0.0,0.0,0.0,0.0,0.0,0.0,0.0,0.0,0.0,0.0,0.0,0.0,0.0,0.0,0.0,0.0,0.0,0.0,0.0,0.0,0.0,-4.7578,-4.7578,-4.6758,-4.6288,-4.6282,-4.6309,-4.63,-4.63,-4.7159,-4.7586,-4.7625,-4.8447,-4.9267,-5.0124,-5.0095,-5.0104,-5.0148,-5.0153,-4.9218,-4.7617,-4.6758,-4.6367,-4.6406,-4.7305,-4.7109,-4.6484,-4.7344,-4.7109,-4.6367,0.0,-5.5976,-5.5976,-5.5078,-5.4726,-5.4297,-5.3398,-5.3281,-5.3281,0.0,0.0,0.0,-5.3281,-5.3281,-5.2695,-5.1211,-5.1406,-5.1367,-5.0742,-5.0703,-5.082,-5.1054,-5.1054,-5.117,-5.1403,-5.14,-5.1398,-5.1398,-5.0583,-5.0858,-5.2108,-5.164,-5.1797,-5.2461,-5.2383,-5.2656,-5.3047,-5.0898,-5.0469,-5.125,-5.1367,-5.1289,-5.1133,-5.1836,-5.2617,-5.3086,-5.1601,-5.0547,-4.9766,-4.9297,-4.7461,-4.4961,-4.2617,-4.1406,-4.0703,-4.0078,-4.0351,-4.0898,-4.1133,0.0,0.0,0.0,0.0,0.0,-4.4414,-4.6484,0.0,0.0,0.0,0.0,0.0,0.0,0.0,0.0,0.0,0.0,0.0,0.0,0.0,0.0,0.0,0.0,0.0,0.0,0.0,0.0,-4.7305,-4.6641,-4.6641,-4.6444,-4.6284,-4.6282,-4.6309,-4.63,-4.63,-4.6534,-4.7276,-4.8486,-4.8681,-4.9579,-5.1023,-5.0409,-5.0455,-5.0969,-4.9763,-4.9335,-4.9414,-4.8555,-4.7812,-4.7344,-4.8203,-4.8398,-4.8203,-4.8437,-4.8398,-4.8164,-5.5234,-5.6015,-5.6328,-5.5469,-5.5312,-5.5,-5.4141,-5.3984,-5.3984,0.0,0.0,0.0,-5.3984,-5.3984,-5.3437,-5.207,-5.2422,-5.2344,-5.1445,-5.1406,-5.1406,-5.1406,-5.1406,-5.1406,-5.1406,-5.1404,-5.1247,-5.0896,-5.0428,-5.0234,-5.0351,-5.0742,-5.0703,-5.039,-5.0898,-5.082,-5.0234,-4.8555,-4.8945,-5.082,-5.1992,-5.2266,-5.207,-5.3164,-5.375,-5.3906,-5.3242,-5.2734,-5.2226,-5.1484,-4.8945,-4.5703,-4.3476,-4.2305,-4.1445,-4.0234,-4.0508,-4.1211,-4.1211,-4.0547,-4.0078,-4.0781,0.0,0.0,-4.2891,-4.4219,-4.5547,0.0,0.0,0.0,0.0,0.0,0.0,0.0,0.0,0.0,0.0,0.0,0.0,0.0,0.0,0.0,0.0,0.0,0.0,0.0,-4.6992,-4.6289,-4.6289,-4.6286,-4.6282,-4.6282,-4.6309,-4.63,-4.63,-4.63,-4.6807,-4.7744,-4.8135,-4.8993,-5.0321,-5.0175,-5.0573,-5.1359,-5.0388,-5.0038,-5.0195,-5.0,-4.9219,-4.8242,-4.9101,-4.9219,-4.8945,-4.9297,-4.9219,-4.8906,0.0,-5.5937,-5.6289,-5.5703,-5.5586,-5.5351,-5.4687,-5.4492,-5.4413,0.0,-5.4333,-5.4333,-5.4411,-5.4335,-5.3945,-5.3047,-5.289,-5.2422,-5.1445,-5.1406,-5.1406,-5.1406,-5.1406,-5.1406,-5.1406,-5.1406,-5.1015,-5.0195,-5.0117,-4.9726,-4.9062,-4.9648,-4.9531,-4.8905,-4.8789,-4.8632,-4.8397,-4.7031,-4.8203,-5.1133,-5.2773,-5.3125,-5.2969,-5.5273,-5.539,-5.4375,-5.5078,-5.5234,-5.4883,-5.3047,-5.0391,-4.7578,-4.5703,-4.4062,-4.2461,-4.0703,-4.0781,-4.1445,-4.125,-4.0547,-4.0273,-4.1758,-3.9844,0.0,-4.3281,-4.2695,-4.2461,0.0,0.0,0.0,0.0,0.0,0.0,0.0,0.0,0.0,0.0,0.0,0.0,0.0,0.0,0.0,0.0,0.0,-4.8984,-4.8906,-4.7305,-4.6289,-4.6289,-4.6286,-4.6283,-4.6282,-4.6309,-4.6302,-4.63,-4.63,-4.6339,-4.6456,-4.7237,-4.8016,-4.8835,-4.9627,-5.0455,-5.1241,-5.1247,-5.0859,-5.0273,-5.0976,-5.0391,-4.9141,-5.0,-4.9844,-4.9258,-5.0039,-4.9844,-4.918,-5.5117,-5.5429,-5.5936,-5.7186,-5.7379,-5.7533,-5.804,-5.7572,-5.7143,-5.7142,-5.6516,-5.636,-5.7064,-5.6518,-5.5737,-5.4877,-5.4138,-5.3085,-5.1483,-5.1405,-5.1406,-5.1406,-5.1404,-5.1402,-5.1405,-5.1405,-5.1014,-5.0194,-4.9492,-4.9414,-4.9922,-4.8671,-4.8398,-4.8867,-4.8163,-4.707,-4.582,-4.6914,-4.7734,-4.8437,-4.9492,-5.1016,-5.2773,-5.3281,-5.457,-5.6015,-5.5508,-5.4844,-5.3906,-5.1484,-5.0234,-4.9258,-4.6836,-4.582,-4.5078,-4.2617,-4.2539,-4.293,-4.1562,-4.0547,-3.9961,-4.0312,-3.9883,0.0,-3.9766,-4.0547,-4.1289,0.0,0.0,0.0,0.0,0.0,0.0,0.0,0.0,0.0,0.0,0.0,0.0,0.0,0.0,0.0,0.0,0.0,-4.9648,-4.8945,-4.7305,-4.6289,-4.6289,-4.6288,-4.6286,-4.6282,-4.6315,-4.6308,-4.63,-4.63,-4.6651,-4.7352,-4.7508,-4.8012,-4.8825,-4.904,-4.9594,-5.0376,-5.0425,-5.0351,-5.0195,-5.0351,-5.0234,-5.0039,-5.0859,-5.1055,-5.0937,-5.1094,-5.1055,-5.0898,-5.457,-5.5349,-5.6206,-5.7104,-5.7259,-5.753,-5.8389,-5.8155,-5.7881,-5.7839,-5.7135,-5.6939,-5.776,-5.6709,-5.5617,-5.4718,-5.3862,-5.2809,-5.148,-5.1404,-5.121,-5.082,-5.0819,-5.0584,-5.0155,-5.0155,-4.9725,-4.8905,-4.8905,-4.8671,-4.8242,-4.824,-4.8239,-4.8201,-4.7342,-4.6483,-4.5664,-4.5664,-4.6172,-4.7148,-4.9297,-5.1445,-5.3398,-5.3828,-5.5078,-5.6523,-5.6094,-5.539,-5.4453,-5.3164,-5.1601,0.0,-4.8164,-4.7305,-4.6523,0.0,-4.4023,-4.3984,-4.2266,-4.1172,0.0,-4.0,0.0,0.0,0.0,-3.9609,-4.0156,0.0,0.0,0.0,0.0,0.0,0.0,0.0,0.0,0.0,0.0,0.0,0.0,0.0,0.0,0.0,0.0,0.0,-4.9648,-4.8359,-4.7031,-4.6289,-4.6289,-4.6288,-4.6286,-4.6282,-4.6316,-4.6309,-4.63,-4.6729,-4.6963,-4.6963,-4.7783,-4.8168,-4.8157,-4.8642,-4.908,-4.9436,-4.9485,-4.953,-4.9531,-4.9531,-4.9805,-5.0234,-5.0625,-5.0781,-5.0859,-5.125,-5.1406,-5.1406,-5.3904,-5.4993,-5.5966,-5.6278,-5.6472,-5.6902,-5.7761,-5.7878,-5.7877,-5.7791,-5.7242,-5.7203,-5.8181,-5.6665,-5.5458,-5.5261,-5.3661,-5.253,-5.2177,-5.1518,-5.0934,-5.0466,-5.0116,-4.9686,-4.9137,-4.8981,-4.8551,-4.7848,-4.8393,-4.8003,-4.6833,-4.7885,-4.8118,-4.7572,-4.6872,-4.6365,-4.5975,-4.4726,-4.5117,-4.6797,-4.957,-5.1719,-5.3359,-5.4219,-5.5078,-5.5859,-5.6055,-5.5664,-5.5,-5.4648,-5.2695,-5.0234,-4.9023,-4.8398,0.0,0.0,0.0,0.0,0.0,0.0,0.0,0.0,0.0,-3.9375,0.0,0.0,0.0,0.0,0.0,0.0,0.0,0.0,0.0,0.0,0.0,0.0,0.0,0.0,0.0,0.0,0.0,0.0,0.0,0.0,-4.875,-4.7695,-4.6484,-4.5937,-4.6289,-4.6289,-4.6287,-4.6282,-4.6317,-4.6311,-4.63,-4.7002,-4.7081,-4.6573,-4.7939,-4.8285,-4.7767,-4.864,-4.904,-4.9046,-4.921,-4.9139,-4.8906,-4.9062,-4.9375,-4.9726,-5.0078,-5.0273,-5.0508,-5.1172,-5.1406,-5.1406,-5.3513,-5.3543,-5.3616,-5.5178,-5.6108,-5.6883,-5.7703,-5.782,-5.782,-5.7818,-5.7701,-5.8287,-5.9927,-5.7935,-5.7313,-5.9499,-5.5407,-5.3302,-5.4747,-5.1976,-5.0535,-5.1243,-4.9789,-4.9277,-4.9946,-4.9244,-4.8814,-4.8656,-4.8037,-4.8039,-4.8586,-4.7214,-4.6944,-4.7615,-4.7495,-4.6599,-4.5195,-4.5741,-4.6562,-4.75,-4.789,-4.9062,0.0,-5.1523,-5.2383,-5.3242,-5.4023,-5.4219,-5.3906,0.0,-5.1562,-5.0858,0.0,-4.8748,-4.91,-4.5038,0.0,0.0,0.0,0.0,0.0,0.0,-4.1523,0.0,0.0,0.0,-3.918,-3.7148,0.0,0.0,0.0,0.0,0.0,0.0,0.0,0.0,0.0,0.0,0.0,0.0,0.0,0.0,0.0,0.0,0.0,-4.75,-4.5351,-4.4687,-4.6211,-4.6289,-4.6288,-4.6282,-4.6282,-4.6315,-4.63,-4.6417,-4.6807,-4.743,-4.7664,-4.8051,-4.8667,-4.9545,-4.9944,-4.9984,-5.0776,-5.0273,-4.8945,-4.9726,-4.9219,-4.8047,-4.9609,-5.0625,-5.1289,-5.1367,-5.1406,-5.1406,-5.1361,-5.1836,-5.2302,-5.3511,-5.4087,-5.4972,-5.6801,-5.7504,-5.7972,-5.848,-5.8128,-5.8089,-5.8792,-5.7504,-5.7035,-5.8089,-5.5283,-5.3762,-5.4504,-5.2713,-5.1312,-5.0651,-4.9517,-4.8772,-4.8655,-4.7327,-4.6859,-4.7366,-4.6506,-4.6273,-4.6628,-4.588,-4.6,-4.6828,-4.6321,-4.6246,-4.6523,-4.6914,-4.6953,-4.6992,0.0,-4.8945,0.0,-5.1289,-5.2695,-5.3516,-5.3867,-5.3984,-5.3828,0.0,-5.1523,0.0,0.0,0.0,0.0,-4.574,0.0,0.0,0.0,0.0,0.0,0.0,0.0,0.0,-3.9726,0.0,-3.8203,0.0,0.0,0.0,0.0,0.0,0.0,0.0,0.0,0.0,0.0,0.0,0.0,0.0,0.0,0.0,0.0,0.0,0.0,0.0,0.0,-4.5547,-4.625,-4.6289,-4.6288,-4.6282,-4.6282,-4.6316,-4.63,-4.6807,-4.6963,-4.6846,-4.7307,-4.7732,-4.8079,-4.8402,-4.8882,-4.9358,-4.972,-4.9491,-4.8945,-4.9297,-4.9023,-4.8476,-4.9726,-5.0391,-5.0742,-5.1211,-5.1406,-5.1406,-4.9112,-5.0064,-5.0976,-5.1757,-5.2141,-5.3224,-5.5829,-5.6532,-5.7313,-5.8909,-5.8324,-5.7972,-5.8441,-5.8402,-5.8363,-5.8363,-5.6762,-5.5669,-5.5396,-5.3684,-5.2049,-5.0526,-4.9437,-4.8578,-4.7948,-4.6464,-4.6035,-4.6661,-4.5522,-4.5365,-4.6035,-4.5093,-4.5251,-4.6273,-4.5887,-4.6284,-4.7264,-4.7734,-4.7734,-4.7499,-4.9179,-4.9218,-4.8593,-5.1055,-5.2539,-5.3242,-5.3047,-5.2969,-5.2812,-5.1953,-5.0703,0.0,-4.9492,0.0,0.0,0.0,0.0,0.0,-4.2849,0.0,0.0,0.0,0.0,0.0,0.0,0.0,0.0,0.0,0.0,0.0,0.0,0.0,0.0,0.0,0.0,0.0,0.0,0.0,0.0,0.0,0.0,0.0,0.0,0.0,0.0,0.0,0.0,0.0,-4.6289,-4.6289,-4.6289,-4.6284,-4.6283,-4.6317,-4.6305,-4.6926,-4.7042,-4.6651,-4.7463,-4.7966,-4.824,-4.848,-4.8763,-4.9165,-4.9172,-4.9061,-4.8906,-4.9141,-4.9258,-4.9336,-5.0195,-5.0547,-5.0586,-5.1172,-5.1406,-5.1406,-4.7212,-4.8248,-4.9211,-5.0031,-5.0891,-5.2334,-5.4942,-5.4667,-5.5329,-5.8675,-5.8324,-5.8441,-6.0119,-6.1798,-6.2774,-6.2774,-6.1213,-5.9846,-5.8985,-5.5005,-5.2314,-5.1414,-4.9735,-4.8798,-4.8759,-4.7939,-4.7549,-4.7549,-4.583,-4.6261,-4.8603,-4.5285,-4.4665,-4.6351,-4.7133,-4.7062,-4.6443,-4.8159,-4.9333,-5.0,-4.9257,-4.9413,-5.0117,0.0,-5.0781,-5.1367,-5.0586,0.0,0.0,-4.9336,-4.8437,0.0,0.0,0.0,0.0,0.0,0.0,0.0,0.0,0.0,0.0,-4.1519,0.0,0.0,0.0,0.0,-4.0773,0.0,0.0,0.0,0.0,0.0,-3.8241,-3.7383,-3.7305,0.0,0.0,0.0,0.0,0.0,0.0,0.0,0.0,0.0,0.0,0.0,0.0,0.0,-4.6211,-4.6289,-4.6289,-4.6287,-4.6284,-4.6319,-4.6312,-4.6344,-4.6768,-4.7586,-4.8369,-4.9187,-5.0046,-5.0878,-5.0846,-5.007,-5.0114,-4.9687,-4.8984,-4.9805,-5.0156,-5.0234,-5.1055,-5.1367,-5.1367,-5.1406,-5.1406,-5.1406,-4.6463,-4.6844,-4.7557,-4.8912,-4.8965,-4.9874,-5.3043,-5.375,-5.5351,-5.937,-6.0155,-6.0976,-6.2648,-6.4414,-6.5232,-6.4684,-6.3105,-6.1759,-6.0898,-5.7855,-5.5435,-5.4029,-5.1765,-5.0516,-5.0516,-4.8057,-4.7002,-4.7586,-4.5869,-4.5439,-4.6261,-4.4504,-4.431,-4.5446,-4.5764,-4.667,-4.812,-4.984,-5.0076,0.0,0.0,-4.8863,-5.0153,0.0,0.0,-4.9726,-4.9453,-4.9336,0.0,-4.8984,-4.8318,-4.7612,-4.7612,-4.6827,-4.5767,-4.5184,-4.4992,0.0,0.0,0.0,-4.4841,-4.253,0.0,0.0,0.0,0.0,0.0,0.0,0.0,0.0,0.0,0.0,-3.7655,-3.7343,-3.7304,-3.6992,0.0,0.0,0.0,0.0,0.0,0.0,0.0,0.0,0.0,0.0,0.0,0.0,0.0,-4.6289,-4.6289,-4.6287,-4.6286,-4.6284,-4.6319,-4.6312,-4.6464,-4.6737,-4.7545,-4.84,-4.9267,-5.0136,-5.069,-5.0969,-5.0975,-5.082,-5.0586,-5.0859,-5.0664,-5.0273,-5.1094,-5.1055,-5.0664,-5.1211,-5.1406,-5.1406,-4.6575,-4.6575,-4.6959,-4.8068,-4.8602,-4.9718,-5.223,-5.3845,-5.6112,-5.9802,-6.1299,-6.2551,-6.3968,-6.5913,-6.6592,-6.5149,-6.457,-6.3315,-6.0885,-5.944,-5.7521,-5.4968,-5.321,-5.2195,-5.1882,-4.9111,-4.7627,-4.7586,-4.6144,-4.5636,-4.5908,-4.4387,-4.4153,-4.5012,-4.5018,-4.6119,-4.808,-4.9801,-5.0076,0.0,0.0,-4.8508,0.0,0.0,-4.9296,-4.9257,0.0,-4.8437,-4.8436,-4.8435,-4.7847,-4.718,-4.7494,-4.6629,-4.545,-4.5456,-4.5066,-4.4559,-4.4243,-4.499,0.0,-4.3344,-4.3699,0.0,-4.2014,0.0,0.0,0.0,0.0,0.0,0.0,0.0,-3.8238,-3.8239,-3.7694,-3.6992,0.0,-3.6016,0.0,0.0,0.0,0.0,0.0,0.0,0.0,0.0,-4.5234,0.0,0.0,0.0,-4.6289,-4.6288,-4.6288,-4.6286,-4.6284,-4.6319,-4.6315,-4.6312,-4.7121,-4.7975,-4.8837,-4.9706,-5.0416,-5.093,-5.0975,-5.0976,-5.0976,-5.0976,-5.0859,-5.0664,-5.1211,-5.1094,-5.0703,-5.1211,-5.1406,-5.1367,-4.7456,-4.7312,-4.7403,-4.7531,-4.9574,-5.1531,-5.2445,0.0,-5.7317,-5.999,-6.1897,-6.3338,-6.4236,-6.6625,-6.7138,-6.4598,-6.5817,-6.4624,-5.9647,-5.9999,0.0,0.0,-5.419,-5.3721,-5.2823,0.0,0.0,-4.7703,-4.6807,-4.6807,-4.7547,-4.4972,-4.4192,-4.501,-4.501,-4.5489,-4.6401,-4.8118,-4.9292,-4.9998,-4.9175,-4.8352,-4.7571,-4.7533,0.0,-4.9759,-4.8118,-4.7533,-4.7533,-4.7532,-4.6985,-4.6438,-4.7258,-4.6985,-4.6281,-4.6281,-4.6282,-4.6125,-4.5298,-4.5102,-4.4905,-4.4,0.0,0.0,0.0,0.0,-4.3686,0.0,0.0,0.0,0.0,0.0,0.0,-3.9798,-3.8356,-3.6952,-3.6133,-3.6016,-3.6016,0.0,0.0,0.0,0.0,0.0,-4.0426,-4.4568,-4.4139,-4.4453,0.0,0.0,0.0,-4.6289,-4.6288,-4.6287,-4.6287,-4.6284,-4.6319,-4.6313,-4.717,-4.8024,-4.8837,-4.9706,-5.0104,-5.0188,-5.0231,-5.0273,-5.0273,-5.0234,-5.0664,-5.1328,-5.1328,-5.1367,-5.1406,-5.1406,-5.1367,-5.1211,-4.734,-4.7822,-4.825,-4.825,-4.9376,-5.0729,0.0,0.0,0.0,0.0,-6.3743,-6.6168,-6.7665,-6.9585,-6.9986,-6.808,-6.7745,0.0,0.0,0.0,0.0,-5.8778,-5.6875,-5.5468,-5.4569,-5.2249,-5.0555,-4.946,-4.7977,-4.7391,-4.7547,-4.5597,-4.4777,-4.501,-4.501,-4.5486,-4.6355,-4.7487,-4.8074,-4.8232,-4.8035,-4.7796,0.0,0.0,-4.7147,-4.7968,-4.6989,-4.6633,-4.6633,-4.6629,-4.6471,-4.6354,-4.6544,-4.6463,-4.6306,-4.6306,-4.6311,-4.6235,-4.6033,-4.6429,-4.6551,-4.5054,-4.5134,-4.5215,0.0,0.0,0.0,0.0,0.0,0.0,0.0,0.0,0.0,-3.8192,-3.7064,-3.6246,-3.6012,0.0,0.0,-3.6871,0.0,0.0,0.0,-3.9528,-4.1247,-4.2925,-4.3474,-4.4453,0.0,0.0,0.0,-4.625,-4.6289,-4.6289,-4.6289,-4.6288,-4.6284,-4.6319,-4.7128,-4.798,-4.8837,-4.9706,-5.0455,-5.1086,-5.1093,-5.1094,-5.1055,-5.0469,-5.0312,-5.0508,-5.0508,-5.0859,-5.1406,-5.1406,-5.1016,-5.0469,-4.7333,-4.8509,-4.9698,-5.0051,0.0,0.0,-5.3327,-5.4641,0.0,-6.0328,-6.3486,0.0,-6.6664,-6.8713,-6.9442,-6.8157,-6.7598,0.0,-6.3858,0.0,0.0,-5.9841,-5.8341,-5.7021,-5.5734,-5.3554,0.0,-5.011,0.0,-4.7958,-4.7554,-4.5836,-4.4781,-4.4426,-4.4426,-4.4938,-4.5806,-4.7055,-4.7572,-4.7461,-4.7109,0.0,0.0,-4.6225,-4.6329,-4.6685,-4.6274,-4.6126,-4.6168,-4.625,-4.6249,-4.6245,-4.6242,-4.6273,-4.63,-4.63,-4.6303,-4.6306,-4.6302,-4.6659,-4.6781,-4.5794,-4.5952,-4.5955,-4.4584,-4.427,-4.427,0.0,0.0,0.0,0.0,0.0,0.0,-3.7058,-3.6319,0.0,0.0,0.0,0.0,0.0,-3.7493,0.0,0.0,0.0,-4.1325,-4.1792,-4.2652,0.0,0.0,0.0,0.0,-4.5156,-4.5898,-4.6289,-4.6289,-4.6289,-4.6287,-4.6318,-4.7132,-4.7984,-4.8831,-4.97,-5.057,-5.1398,-5.1403,-5.1406,-5.1367,-5.0898,-5.0703,-5.0703,-5.0351,-5.0469,-5.0898,-5.0898,-5.082,-5.0625,-4.755,-4.9312,-5.1246,-5.1741,0.0,0.0,0.0,-5.6032,0.0,-5.9855,0.0,-6.4214,-6.3998,-6.6267,-6.7394,-6.6431,0.0,-6.4998,-6.1868,-6.3014,-6.2474,-5.9463,-5.9084,-5.8153,-5.6438,-5.4684,-5.2593,0.0,0.0,-4.832,-4.7375,-4.5734,-4.4443,-4.3501,-4.3657,0.0,0.0,-4.6594,-4.7226,-4.7126,-4.639,-4.6013,-4.5903,-4.5889,-4.5881,-4.5881,-4.587,-4.5903,-4.5991,-4.613,-4.6156,-4.617,-4.617,-4.621,-4.624,-4.624,-4.6277,-4.6273,-4.6272,-4.6308,-4.6303,-4.6302,-4.63,-4.6105,-4.5324,-4.5168,-4.5168,-4.5168,-4.4582,-4.4426,0.0,0.0,0.0,0.0,0.0,0.0,0.0,0.0,0.0,0.0,0.0,0.0,0.0,0.0,0.0,-4.0932,-4.1634,0.0,0.0,0.0,0.0,0.0,-4.5508,0.0,-4.6484,0.0,-4.6365,-4.6468,-4.7097,-4.791,-4.8823,-4.9573,-5.0486,-5.1397,-5.1399,-5.1404,-5.1406,-5.1289,-5.125,-5.1172,-5.0351,-5.0156,-5.0312,-5.0117,-5.0547,-5.1016,-4.8361,-5.0241,-5.1531,-5.0229,0.0,-5.4273,-5.6473,-5.8722,-6.0383,-6.0866,-6.4397,-6.6341,-6.5028,-6.651,-6.7049,-6.5569,-6.5413,0.0,0.0,0.0,0.0,-6.1058,-5.9674,-5.8117,-5.6359,-5.4705,-5.2626,0.0,0.0,-4.7951,-4.6435,-4.5419,-4.4052,-4.2569,-4.3312,0.0,-4.4852,-4.5144,0.0,-4.6164,-4.6008,-4.592,-4.5893,-4.5857,-4.5803,-4.5825,-4.5757,-4.582,-4.5914,-4.592,-4.593,-4.5939,-4.5939,-4.5947,-4.5955,-4.5955,-4.6062,-4.6123,-4.613,-4.621,-4.6316,-4.6305,-4.63,-4.6261,-4.6105,-4.6066,-4.6066,-4.6066,-4.5948,-4.548,-4.4348,0.0,0.0,0.0,0.0,0.0,0.0,0.0,0.0,0.0,0.0,0.0,0.0,0.0,0.0,0.0,0.0,0.0,0.0,0.0,0.0,0.0,0.0,0.0,0.0,0.0,0.0,-4.7368,-4.6737,-4.7274,-4.8823,-4.8953,-4.99,-5.1393,-5.1404,-5.1406,-5.1366,-5.0664,-5.0391,-5.0312,-4.9453,-4.9961,-5.1016,-4.9648,-4.9687,-5.0273,-5.0862,-5.1527,-5.2058,-5.2088,0.0,0.0,0.0,-6.0222,0.0,-6.049,-6.2171,-6.3167,-6.2365,-6.427,-6.5276,-6.4507,-6.4438,-6.3895,-6.2616,-6.2538,-6.1956,-6.063,-5.9852,-5.8234,-5.5629,-5.4791,-5.2936,-4.9893,0.0,-4.7765,-4.6126,-4.4846,-4.3525,-4.2358,0.0,-4.3973,0.0,0.0,0.0,-4.5838,-4.5838,-4.5825,-4.5731,-4.5708,-4.5703,-4.5688,-4.5648,-4.5672,-4.575,-4.5814,-4.5877,-4.5918,-4.5918,-4.5909,-4.5903,-4.5903,-4.5969,-4.5994,-4.6006,-4.6025,-4.6121,-4.6171,-4.6211,-4.6211,-4.6211,-4.6211,-4.621,-4.617,-4.621,-4.5703,-4.3981,-4.2602,0.0,0.0,0.0,0.0,0.0,0.0,0.0,0.0,0.0,0.0,0.0,0.0,0.0,0.0,0.0,0.0,0.0,0.0,0.0,0.0,0.0,0.0,0.0,0.0,0.0,-4.6943,-4.6897,-4.7315,-4.8157,-4.8589,-4.9265,-5.0062,-5.0539,-5.074,-5.0781,-5.082,-5.0586,-5.0117,-4.9258,-4.9375,-4.9961,-4.8672,-4.8476,-4.8789,-5.3356,-5.3049,0.0,0.0,-5.5588,0.0,-5.8934,-6.0704,-6.1443,-6.0348,-6.0359,-6.0408,-6.0246,-6.2287,-6.3574,-6.3449,-6.341,-6.2984,-6.194,-6.1862,-6.1166,-5.9609,-5.9487,-5.797,-5.4909,-5.4684,-5.2944,0.0,0.0,0.0,-4.5496,-4.4157,0.0,0.0,0.0,0.0,0.0,0.0,-4.5657,-4.5764,-4.5764,-4.5696,-4.5594,-4.5594,-4.5594,-4.5594,-4.5594,-4.5594,-4.5612,-4.5712,-4.5796,-4.5846,-4.5846,-4.5831,-4.5822,-4.5822,-4.5875,-4.5892,-4.5862,-4.5878,-4.5946,-4.6043,-4.6052,-4.6052,-4.6052,-4.6105,-4.6106,-4.5991,-4.6082,-4.564,-4.3902,-4.3397,0.0,0.0,0.0,0.0,0.0,0.0,0.0,0.0,0.0,0.0,0.0,0.0,0.0,0.0,0.0,-4.0338,-4.1315,-4.1866,0.0,0.0,0.0,-4.5859,-4.6015,0.0,-4.6405,0.0,-4.7019,-4.7322,-4.7539,-4.8237,-4.8638,-4.8852,-4.9517,-4.9954,-5.0234,-5.1055,-5.1016,-5.0351,-4.9492,-4.918,-4.9062,-4.8008,-4.7617,-4.7578,0.0,0.0,0.0,0.0,0.0,0.0,-5.8396,-5.9858,-6.1139,-6.1805,-6.2497,-6.2725,-6.2039,-6.2909,-6.3261,-6.2588,-6.252,-6.1824,-6.0151,-6.0035,-5.9657,-5.8738,-5.7964,-5.6648,-5.476,-5.4017,-5.1974,0.0,0.0,-4.6763,0.0,0.0,0.0,0.0,0.0,0.0,0.0,-4.4557,-4.4998,-4.5629,-4.5629,-4.5612,-4.5594,-4.5594,-4.5594,-4.5594,-4.5594,-4.5594,-4.5594,-4.5612,-4.5629,-4.5646,-4.5646,-4.5616,-4.5632,-4.5632,-4.5696,-4.5822,-4.5801,-4.5857,-4.5901,-4.5903,-4.5914,-4.5914,-4.5914,-4.5917,-4.5917,-4.591,-4.5975,-4.5533,-4.3915,-4.4821,-4.5302,0.0,0.0,0.0,0.0,0.0,0.0,-4.3647,0.0,0.0,0.0,0.0,0.0,0.0,0.0,-4.0526,-4.2173,-4.1629,0.0,-4.3667,0.0,-4.4335,-4.5116,-4.5898,0.0,-4.7454,-4.6751,-4.6825,-4.7598,-4.7683,-4.8155,-4.8897,-4.8899,-4.9368,-5.019,-5.1054,-5.1367,-5.1211,-5.0391,-5.0078,-4.9883,-4.8203,-4.7617,-4.75,0.0,0.0,0.0,0.0,0.0,0.0,0.0,-6.0358,-6.0935,-6.1281,-6.1589,-6.1689,-6.1389,-6.167,-6.177,-6.1467,-6.1439,-6.0927,-5.9693,-5.9616,-5.9037,-5.7698,-5.7323,-5.6154,-5.3914,-5.3537,-5.1953,0.0,0.0,0.0,0.0,0.0,0.0,0.0,0.0,-4.348,-4.4366,-4.4924,-4.5316,-4.5594,-4.5594,-4.5594,-4.5594,-4.5594,-4.5594,-4.5594,-4.5594,-4.5594,-4.5594,-4.5594,-4.5594,-4.5594,-4.5594,-4.5594,-4.5594,-4.5594,-4.5646,-4.5665,-4.5665,-4.5718,-4.5757,-4.5825,-4.5847,-4.5847,-4.5847,-4.5875,-4.588,-4.5807,-4.5857,-4.5749,-4.5163,-4.5201,-4.5312,0.0,0.0,0.0,0.0,0.0,0.0,0.0,0.0,-4.3413,0.0,0.0,0.0,0.0,0.0,0.0,-4.1588,-4.2295,0.0,-4.3669,0.0,-4.5429,-4.5781,-4.6132,-4.648,-4.6829,-4.6422,-4.6415,-4.6773,-4.6766,-4.7247,-4.8121,-4.8085,-4.8554,-4.9413,-4.9765,-5.0195,-5.0505,-4.9177,-4.8943,-4.9216,-4.7458,-4.6834,-4.6755,-5.8627,0.0,-5.7473,0.0,-5.8896,-5.8715,-6.0512,-6.0781,-6.0781,-6.0781,-6.0781,-6.0781,-6.0781,-6.0781,-6.0704,-6.0435,-6.0435,-5.9935,-5.8858,-5.8742,-5.8127,-5.6676,-5.6662,0.0,-5.3311,-5.3273,-5.201,-4.9465,-4.884,0.0,0.0,0.0,0.0,0.0,-4.3859,-4.4259,-4.4701,-4.5325,-4.5594,-4.5594,-4.5594,-4.5594,-4.5594,-4.5594,-4.5594,-4.5594,-4.5594,-4.5594,-4.5594,-4.5594,-4.5594,-4.5594,-4.5594,-4.5594,-4.5594,-4.5594,-4.5594,-4.5594,-4.5594,-4.5594,-4.562,-4.5712,-4.5734,-4.5734,-4.5734,-4.5778,-4.5793,-4.5704,-4.5782,-4.5863,-4.5919,-4.5477,-4.5301,-4.6017,0.0,0.0,0.0,0.0,0.0,0.0,-4.4371,-4.3696,-4.3686,0.0,0.0,0.0,0.0,0.0,0.0,0.0,0.0,0.0,0.0,0.0,0.0,-4.6053,-4.6441,-4.6672,-4.6384,-4.6497,-4.6972,-4.6724,-4.6811,-4.7221,-4.7499,-4.8086,-4.8865,-4.8905,-4.9373,-4.9953,-4.8547,-4.8196,-4.8352,-4.7141,-4.6516,-4.6283,-5.9319,-5.9473,-5.9742,-6.0627,-6.0781,-6.0742,-6.0781,-6.0781,-6.0781,-6.0781,-6.0781,-6.0781,-6.0781,-6.0781,-6.0435,-5.9588,-5.9511,-5.8819,-5.7137,-5.7022,-5.6637,0.0,0.0,-5.4934,-5.3241,-5.3203,-5.1933,-4.9394,0.0,0.0,-4.5556,0.0,-4.2701,-4.4239,-4.347,-4.4008,-4.5594,-4.5594,-4.5594,-4.5594,-4.5594,-4.5594,-4.5594,-4.5594,-4.5594,-4.5594,-4.5594,-4.5594,-4.5594,-4.5594,-4.5594,-4.5594,-4.5594,-4.5594,-4.5594,-4.5594,-4.5594,-4.5594,-4.5594,-4.5594,-4.5594,-4.5594,-4.5594,-4.5594,-4.5594,-4.5594,-4.562,-4.5711,-4.5688,-4.5719,-4.5793,-4.5768,-4.5822,-4.5908,0.0,0.0,0.0,0.0,0.0,0.0,-4.3594,-4.3631,-4.3689,0.0,0.0,0.0,0.0,0.0,0.0,0.0,0.0,-4.3686,-4.3732,0.0,-4.3749,-4.5429,-4.6718,-4.757,-4.6718,-4.7186,-4.8859,-4.7999,-4.7133,-4.6341,-4.7215,-4.8073,-4.88,-4.8857,-4.9368,-5.0031,-4.9212,-4.8353,-4.7611,-4.7572,-4.7024,-4.6282,-6.0319,-6.0396,-6.0473,-6.0742,-6.0781,-6.0781,-6.0781,-6.0781,-6.0781,-6.0781,-6.0781,-6.055,-5.9973,-5.9896,-5.9588,0.0,-5.8665,-5.8204,0.0,-5.6983,-5.6599,-5.5742,-5.5703,-5.4934,-5.3241,-5.3203,-5.2241,-5.0289,0.0,0.0,0.0,-4.5047,-4.4662,-4.5171,-4.494,-4.5094,-4.5594,-4.5594,-4.5594,-4.5594,-4.5594,-4.5594,-4.5594,-4.5594,-4.5594,-4.5594,-4.5594,-4.5594,-4.5594,-4.5594,-4.5594,-4.5594,-4.5594,-4.5594,-4.5594,-4.5594,-4.5594,-4.5594,-4.5594,-4.5594,-4.5594,-4.5594,-4.5594,-4.5594,-4.5594,-4.5594,-4.5603,-4.5629,-4.5637,-4.5662,-4.5712,-4.5727,-4.5757,-4.5822,0.0,0.0,0.0,0.0,0.0,0.0,-4.5156,-4.5187,0.0,-4.5199,0.0,0.0,0.0,0.0,0.0,0.0,0.0,0.0,-4.4839,0.0,-4.5466,-4.6008,-4.6703,-4.7517,-4.6653,-4.6848,-4.7909,-4.7098,-4.6907,-4.7181,-4.7496,-4.7416,-4.7136,-4.7764,-4.8151,-4.8299,-4.7442,-4.7323,-4.7518,-4.6933,-4.6544,-4.6309,-6.0781,-6.0781,-6.0781,-6.0781,-6.0781,-6.0781,-6.0781,-6.0781,-6.0781,-6.0781,-6.0512,-5.9973,-5.9127,-5.8742,0.0,-5.7857,-5.7819,-5.7434,-5.656,-5.6522,-5.6291,-5.5703,-5.5703,-5.4934,-5.3241,0.0,0.0,-5.0712,-4.9817,-4.8702,-4.7317,-4.6471,-4.5893,-4.5594,-4.5594,-4.5594,-4.5594,-4.5594,-4.5594,-4.5594,-4.5594,-4.5594,-4.5594,-4.5594,-4.5594,-4.5594,-4.5594,-4.5594,-4.5594,-4.5594,-4.5594,-4.5594,-4.5594,-4.5594,-4.5594,-4.5594,-4.5594,-4.5594,-4.5594,-4.5825,-4.6009,-4.5671,-4.5864,-4.6009,-4.5671,-4.5594,-4.5594,-4.5594,-4.5594,-4.5612,-4.5671,-4.5679,-4.5695,-4.5712,-4.5742,-4.5764,-4.5764,0.0,0.0,0.0,0.0,0.0,0.0,-4.4961,0.0,0.0,0.0,0.0,0.0,0.0,0.0,-4.4687,-4.5741,0.0,-4.6282,-4.6626,-4.7204,-4.7977,-4.7769,-4.7463,-4.7051,-4.6859,-4.7098,-4.757,-4.7257,-4.7333,-4.768,-4.729,-4.7479,-4.7939,-4.6768,-4.6612,-4.7042,-4.6495,-4.63,-4.6302,-6.0781,-6.0781,0.0,0.0,-6.0781,0.0,-6.0781,-6.0742,-6.0704,-6.0704,-5.9935,-5.9127,-5.8319,-5.7473,-5.6983,-5.6907,0.0,0.0,0.0,-5.5703,-5.5703,-5.5703,-5.5665,-5.4857,-5.3241,-5.3126,-5.2318,-5.0712,-4.9779,-4.8894,-4.8086,-4.7201,-4.6394,-4.5594,-4.5594,-4.5594,-4.5594,-4.5594,-4.5594,-4.5594,-4.5594,-4.5594,-4.5594,-4.5594,-4.5594,-4.5594,-4.5594,-4.5594,-4.5594,-4.5594,-4.5594,-4.5594,-4.5594,-4.5594,-4.5594,-4.5594,-4.5594,-4.5594,-4.5594,-4.624,-4.6701,-4.5825,-4.6201,-4.6624,-4.5864,-4.5633,-4.5594,-4.5594,-4.5594,-4.5594,-4.5594,-4.5594,-4.5594,-4.5594,-4.5662,-4.568,-4.568,0.0,0.0,0.0,0.0,0.0,0.0,-4.3561,-4.4153,0.0,0.0,0.0,0.0,0.0,-4.4492,-4.621,-4.6288,-4.6325,-4.6396,-4.7176,-4.7991,-4.8798,-4.9577,-4.8727,-4.6515,-4.7243,-4.7625,-4.7625,-4.6885,-4.7861,-4.9811,-4.7432,-4.7354,-4.8564,-4.6924,-4.63,-4.63,-4.63,-4.63,-4.63,0.0,0.0,-6.0781,-6.0781,-6.0781,-6.0781,-6.0781,-6.0242,-5.9819,-5.9819,-5.9088,-5.828,-5.7385,-5.7126,-5.6714,-5.6049,-5.6011,-5.5934,-5.5703,-5.5703,-5.5703,-5.5703,-5.5126,-5.428,-5.3241,-5.2538,-5.1702,-5.0712,-4.9163,-4.8317,-4.8086,-4.6586,-4.5787,-4.5594,-4.5594,-4.5594,-4.5594,-4.5594,-4.5594,-4.5594,-4.5594,-4.5594,-4.5594,-4.5594,-4.5594,-4.5594,-4.5594,-4.5594,-4.5594,-4.5594,-4.5594,-4.5594,-4.5594,-4.5594,-4.5594,-4.5594,-4.5594,-4.5594,-4.5594,-4.624,-4.6701,-4.5825,-4.5748,-4.6009,-4.6509,-4.6086,-4.5594,-4.5594,-4.5594,-4.5594,-4.5594,-4.5594,-4.5594,-4.5594,-4.5612,-4.5629,-4.5629,-4.5646,0.0,0.0,-4.504,-4.5055,-4.5101,-4.5063,-4.4742,0.0,0.0,0.0,0.0,0.0,-4.4234,-4.5953,-4.5992,-4.6352,-4.7148,-4.7343,-4.7908,-4.8798,-4.8408,-4.8214,-4.8181,-4.7785,-4.7939,-4.8525,-4.8993,-4.9189,-4.9072,-4.8447,-4.8096,-4.7783,-4.6729,-4.63,-4.63,-4.63,-4.63,-4.6417,-6.0781,-6.0781,-6.0781,-6.0781,-6.0781,-6.0781,-6.0781,-6.005,-5.9511,-5.9511,-5.8434,-5.7511,-5.7049,-5.6626,-5.6214,-5.5742,-5.5703,-5.5703,-5.5703,-5.5703,-5.5549,-5.5164,-5.4741,-5.3895,-5.2615,-5.2154,-5.151,-5.0712,-4.9356,-4.8509,-4.8086,-4.6778,-4.597,-4.5633,-4.6009,-4.6201,-4.6201,-4.6201,-4.6201,-4.6163,-4.5748,-4.5594,-4.5594,-4.5594,-4.5594,-4.5594,-4.5594,-4.5594,-4.5594,-4.5594,-4.5594,-4.5594,-4.5594,-4.5855,-4.6201,-4.6201,-4.5893,-4.5594,-4.5594,-4.6509,-4.7432,-4.7355,-4.674,-4.6317,-4.6778,-4.6817,-4.6509,-4.5748,-4.5932,-4.6086,-4.5671,-4.5594,-4.5594,-4.5594,-4.5287,-4.5133,-4.5556,-4.5248,0.0,-4.5556,-4.5594,-4.5594,-4.5594,-4.5594,-4.5252,-4.436,0.0,0.0,-4.4415,-4.4415,-4.487,-4.5881,-4.5886,-4.6362,-4.728,-4.7713,-4.8167,-4.8642,-4.7824,-4.7434,-4.7476,-4.7005,-4.7512,-4.8681,-4.8755,-4.8971,-4.9232,-4.8491,-4.796,-4.7508,-4.6651,-4.63,-4.63,-4.63,-4.6534,-4.6963,-6.0781,-6.0781,-6.0781,-6.0781,-6.0781,-6.0742,-6.0627,-5.9858,-5.9281,-5.9127,-5.778,-5.6791,-5.6791,-5.6126,-5.5703,-5.5703,-5.5703,-5.5703,-5.5703,-5.5703,-5.5395,-5.4703,-5.4549,-5.3741,-5.2115,-5.1846,-5.1395,-5.0712,-4.9817,-4.9009,-4.8279,-4.7471,-4.6624,-4.5825,-4.6586,-4.6817,-4.6701,-4.6846,-4.6808,-4.6663,-4.6047,-4.571,-4.5594,-4.5748,-4.571,-4.5633,-4.5748,-4.571,-4.5633,-4.5748,-4.571,-4.5633,-4.5748,-4.6317,-4.6885,-4.6885,-4.6394,-4.5825,-4.5941,-4.6932,-4.8202,-4.9317,-4.824,-4.6962,-4.724,-4.7702,-4.7663,-4.6124,-4.6394,-4.6624,-4.5748,-4.5594,-4.5556,-4.5441,-4.4893,-4.4701,-4.5325,0.0,-4.4778,-4.5518,-4.5594,-4.5594,-4.5594,-4.5594,-4.5594,-4.5594,-4.5594,0.0,0.0,-4.5594,-4.5688,-4.5863,-4.5869,-4.6263,-4.7162,-4.8044,-4.8483,-4.8488,-4.7478,-4.6701,-4.6118,-4.6118,-4.689,-4.8289,-4.7662,-4.8263,-4.959,-4.8024,-4.7518,-4.7645,-4.6787,-4.6435,-4.6435,-4.6592,-4.7025,-4.7617,-6.0781,-6.0781,-6.0781,-6.0781,-6.0781,-6.055,-5.9819,-5.9011,-5.8204,-5.7484,-5.6522,-5.5895,-5.5895,-5.578,-5.5703,-5.5703,-5.5703,-5.5703,-5.5703,-5.5703,-5.5626,-5.5511,-5.4857,-5.4049,-5.301,-5.1625,-5.0827,-5.0712,-4.9817,-4.9317,-4.9163,-4.8317,-4.7471,-4.6701,-4.6846,-4.6509,-4.5864,-4.6586,-4.6471,-4.5855,-4.6471,-4.6278,-4.5671,-4.6432,-4.624,-4.571,-4.6432,-4.624,-4.571,-4.6432,-4.6201,-4.5748,-4.6471,-4.6778,-4.6885,-4.6885,-4.6817,-4.6855,-4.7548,-4.7432,-4.7625,-4.9933,-4.8663,-4.7278,-4.8702,-4.8548,-4.7817,-4.6894,-4.6817,-4.6624,-4.5748,-4.5594,-4.5364,-4.4624,-4.5017,-4.521,-4.4586,0.0,-4.5441,-4.5594,-4.5594,-4.5594,-4.5594,-4.5594,-4.5594,-4.5594,-4.5594,-4.5594,-4.5594,-4.5594,-4.562,-4.5632,-4.564,-4.6136,-4.7119,-4.8048,-4.8488,-4.846,-4.6857,-4.6429,-4.7012,-4.7012,-4.7167,-4.7439,-4.8028,-4.8471,-4.8642,-4.7621,-4.7665,-4.8258,-4.7398,-4.7048,-4.716,-4.7898,-4.7838,-4.7635,-6.0781,-6.0781,-6.0781,-6.0781,-6.0781,-6.0666,-6.0242,-5.9473,-5.8665,-5.7819,-5.6934,-5.6214,-5.5742,-5.5703,-5.5703,-5.5703,-5.5703,-5.5703,-5.5703,-5.528,-5.5049,-5.5049,-5.4241,-5.3395,-5.25,-5.1318,-5.0712,-5.0712,-4.9817,-4.9394,-4.9394,-4.8509,-4.7663,-4.6923,-4.7355,-4.7086,-4.6355,-4.7201,-4.7317,-4.6971,-4.7394,-4.7048,-4.6394,-4.724,-4.7048,-4.6355,-4.6778,-4.6624,-4.6355,-4.6778,-4.6624,-4.6355,-4.6778,-4.7509,-4.8163,-4.7702,-4.7548,-4.7625,-4.8009,-4.7817,-4.8048,-5.0173,-4.9471,-4.8432,-4.9202,-4.9433,-4.9125,-4.7817,-4.7932,-4.7855,-4.6547,-4.6317,-4.6009,-4.5124,-4.4932,0.0,0.0,-4.4932,-4.5056,-4.5556,-4.5594,-4.5594,-4.5594,-4.5594,-4.5594,-4.5594,-4.5594,-4.5594,-4.5594,-4.5594,-4.5594,-4.5594,-4.6047,-4.6515,-4.6984,-4.7411,-4.7642,-4.7611,-4.6334,-4.594,-4.6334,-4.683,-4.7255,-4.7712,-4.8113,-4.8583,-4.9,-4.7643,-4.7371,-4.77,-4.6846,-4.6496,-4.6535,-4.6962,-4.746,-4.8093,-6.0781,-6.0781,-6.0781,-6.0781,-6.0781,-6.0742,-6.0512,-5.9935,-5.9204,-5.8396,-5.755,-5.6753,-5.6088,-5.5818,-5.5703,-5.5703,-5.5703,-5.5703,-5.5703,-5.4934,-5.4511,-5.4511,-5.3472,-5.2577,-5.1923,-5.1125,-5.0712,-5.0712,-5.001,-4.9702,-4.9702,-4.9009,-4.8279,-4.7509,-4.8125,-4.7855,-4.6962,-4.7778,-4.7894,-4.7548,-4.7932,-4.7625,-4.7,-4.8009,-4.7894,-4.7192,-4.7432,-4.7355,-4.7192,-4.7432,-4.7355,-4.7192,-4.7432,-4.8355,-4.9279,-4.8586,-4.8548,-4.8663,-4.8471,-4.824,-4.8509,-5.025,-5.0048,-4.9433,-4.9663,-5.0212,-5.025,-4.8702,-4.8933,-4.8933,-4.7471,-4.7038,-4.6624,-4.5748,0.0,0.0,0.0,-4.4893,-4.4855,-4.5518,-4.5594,-4.5594,-4.5594,-4.5594,-4.5594,-4.5594,-4.5594,-4.5594,-4.5594,-4.5594,-4.5594,-4.5594,-4.6432,-4.6885,-4.6885,-4.7077,-4.7077,-4.6885,-4.6201,-4.5787,-4.5633,-4.6509,-4.724,-4.7817,-4.7817,-4.8283,-4.8863,-4.7318,-4.6851,-4.7062,-4.637,-4.6144,-4.6183,-4.657,-4.7442,-4.852,-6.0781,-6.0781,-6.0781,-6.0781,-6.0781,-6.0512,-5.9704,-5.955,-5.9204,-5.8396,-5.755,-5.6983,-5.6907,-5.6175,-5.5703,-5.5703,-5.5703,-5.5703,-5.5703,-5.4934,-5.4511,-5.4511,-5.2895,-5.1962,-5.1885,-5.1125,-5.0712,-5.0712,-5.0635,-5.0596,-5.0596,-5.0558,-5.0048,-4.9202,-4.9279,-4.8394,-4.6962,-4.7778,-4.7201,-4.5941,-4.7471,-4.7625,-4.7077,-4.8702,-4.8779,-4.8125,-4.8933,-4.8702,-4.8125,-4.8933,-4.8663,-4.8163,-4.8971,-4.9317,-4.9394,-4.9317,-4.9894,-5.0327,-4.951,-4.8702,-4.8509,-5.025,-5.0048,-4.9625,-5.0442,-5.0635,-5.0442,-4.951,-4.9356,-4.9125,-4.8202,-4.7394,-4.6624,-4.5748,0.0,0.0,-4.4509,-4.5056,-4.5518,-4.5594,-4.5594,-4.5594,-4.5594,-4.5594,-4.5594,-4.5594,-4.5594,-4.5594,-4.5594,-4.5594,-4.5594,-4.5594,-4.6432,-4.6885,-4.6885,-4.7625,-4.7625,-4.6885,-4.6808,-4.6394,-4.5633,-4.6509,-4.6923,-4.7,-4.7,-4.7009,-4.7027,-4.6074,-4.6189,-4.6929,-4.6852,-4.6814,-4.7006,-4.8585,-4.8784,-4.8537,-5.9242,-5.9665,-5.9858,-5.9358,-6.0127,-6.0512,-5.9627,-5.9973,-5.9819,-5.8473,-5.8011,-5.7396,-5.6319,-5.5895,-5.5703,-5.5703,-5.5703,-5.5703,-5.5703,-5.5395,-5.478,-5.3741,-5.2538,-5.1885,-5.1885,-5.1125,-5.0712,-5.0712,-5.0712,-5.0712,-5.0712,-5.0712,-5.025,-4.9394,-4.9394,-4.874,-4.7702,-4.8548,-4.8548,-4.8048,-4.924,-4.9202,-4.8586,-4.974,-4.9663,-4.8933,-4.9279,-4.9202,-4.8971,-4.9279,-4.9163,-4.8971,-4.9317,-4.9779,-5.0212,-5.0212,-5.0048,-4.9933,-5.0164,-4.9971,-4.9856,-5.0519,-5.0442,-5.0289,-5.0635,-5.0712,-5.0596,-5.0289,-5.0212,-4.9933,-4.9086,-4.8663,-4.8009,-4.6624,0.0,-4.6855,-4.6047,-4.6201,-4.6394,-4.6394,-4.5932,-4.5594,-4.5594,-4.5594,-4.5594,-4.5594,-4.5594,-4.5594,-4.5594,-4.5594,-4.5594,-4.5594,-4.5932,-4.6355,-4.6885,-4.7702,-4.7971,-4.7625,-4.7154,-4.7009,-4.7163,-4.7509,-4.7932,-4.8432,-4.8432,-4.8779,-4.9125,-4.7201,-4.6894,-4.7548,-4.6509,-4.6086,-4.624,-4.7432,-4.767,-4.7585,-5.8319,-5.8742,-5.905,-5.8742,-5.9627,-6.0204,-5.9588,-6.0242,-6.0204,-5.8511,-5.8319,-5.7742,-5.628,-5.5857,-5.5703,-5.5703,-5.5703,-5.5703,-5.5703,-5.5472,-5.4818,-5.3664,-5.2779,-5.2192,-5.1923,-5.1356,-5.0933,-5.0712,-5.0712,-5.0712,-5.0712,-5.0712,-5.0366,-4.9817,-4.9817,-4.9317,-4.8548,-4.9163,-4.924,-4.9086,-4.9933,-4.9933,-4.951,-5.0366,-5.0327,-4.9817,-4.9817,-4.9817,-4.9817,-4.9817,-4.9817,-4.9817,-4.9817,-5.0212,-5.0712,-5.0712,-5.0289,-4.9933,-5.0558,-5.0712,-5.0712,-5.0712,-5.0712,-5.0712,-5.0712,-5.0712,-5.0712,-5.0712,-5.0712,-5.0519,-4.9933,-4.9586,-4.9009,-4.7855,-4.7932,-4.7817,-4.7,-4.6885,-4.6817,-4.6509,-4.597,-4.5594,-4.5594,-4.5594,-4.5594,-4.5594,-4.5855,-4.6009,-4.6009,-4.6009,-4.5893,-4.5594,-4.5864,-4.6317,-4.6885,-4.7702,-4.8086,-4.8086,-4.7817,-4.7817,-4.8125,-4.8394,-4.8817,-4.9394,-4.9394,-4.974,-5.0135,-4.7855,-4.7355,-4.7971,-4.6547,-4.6163,-4.6471,-4.7355,-4.7702,-4.7778,-5.828,-5.828,-5.855,-5.9319,-5.9473,-5.9473,-5.9473,-6.0204,-6.0165,-5.8511,-5.828,-5.7973,-5.7099,-5.6214,-5.5703,-5.5703,-5.5703,-5.5703,-5.5703,-5.4934,-5.4511,-5.4511,-5.3664,-5.2779,-5.1923,-5.1885,-5.151,-5.0712,-5.0712,-5.0712,-5.0712,-5.0712,-5.0712,-5.0712,-5.0712,-5.0212,-4.9394,-4.9394,-4.8894,-4.8202,-4.9048,-4.9394,-4.951,-5.0366,-5.0712,-5.0712,-5.0712,-5.0712,-5.0712,-5.0712,-5.0712,-5.0712,-5.0712,-5.0712,-5.0712,-5.0712,-5.0712,-5.0712,-5.0712,-5.0712,-5.0712,-5.0712,-5.0712,-5.0712,-5.0712,-5.0712,-5.0712,-5.0712,-5.0712,-5.0712,-5.0712,-4.9971,-4.9394,-4.9394,-4.8663,-4.7855,-4.7038,-4.6923,-4.6586,-4.5748,-4.5633,-4.5633,-4.5633,-4.5633,-4.5633,-4.5633,-4.6394,-4.6885,-4.6923,-4.6885,-4.6509,-4.5633,-4.6432,-4.6885,-4.6885,-4.7702,-4.8086,-4.8125,-4.8971,-4.8933,-4.8163,-4.9009,-4.9394,-4.9394,-4.9394,-4.9394,-4.9279,-4.7586,-4.7394,-4.8009,-4.7192,-4.7394,-4.8202,-4.9086,-4.9394,-4.9394,-5.6472,-5.6973,-5.728,-5.6896,-5.7857,-5.8434,-5.7819,-5.8473,-5.8665,-5.7511,-5.7396,-5.7049,-5.6165,-5.5857,-5.5703,-5.5703,-5.5703,-5.5703,-5.5703,-5.5472,-5.5318,-5.5318,-5.3972,-5.2779,-5.1923,-5.1885,-5.151,-5.0712,-5.0712,-5.0712,-5.0712,-5.0712,-5.0712,-5.0712,-5.0712,-5.0558,-5.0327,-5.0327,-5.0164,-4.9933,-5.0212,-5.0327,-5.0327,-5.0596,-5.0712,-5.0712,-5.0712,-5.0712,-5.0712,-5.0712,-5.0712,-5.0712,-5.0712,-5.0712,-5.0712,-5.0712,-5.0712,-5.0712,-5.0712,-5.0712,-5.0712,-5.0712,-5.0712,-5.0712,-5.0712,-5.0712,-5.0712,-5.0712,-5.0712,-5.0712,-5.0712,-5.0481,-5.0087,-4.951,-4.9702,-4.9625,-4.8779,-4.8663,-4.8548,-4.8279,-4.774,-4.7355,-4.7355,-4.7355,-4.7355,-4.7355,-4.7086,-4.7154,-4.7702,-4.6624,-4.6163,-4.6509,-4.6163,-4.597,-4.597,-4.7394,-4.8394,-4.9009,-4.8663,-4.8971,-4.9894,-4.9548,-4.974,-5.0327,-5.0327,-5.0327,-5.0164,-4.8432,-4.7894,-4.8009,-4.7192,-4.7038,-4.7432,-4.8856,-4.8663,-4.7817,-5.5703,-5.6126,-5.6445,-5.6252,-5.7088,-5.7588,-5.7099,-5.7742,-5.7857,-5.6637,-5.6791,-5.6676,-5.578,-5.5703,-5.5703,-5.5703,-5.5703,-5.5703,-5.5703,-5.5703,-5.5703,-5.5703,-5.4741,-5.378,-5.2972,-5.2577,-5.201,-5.1164,-5.0866,-5.0712,-5.0712,-5.0712,-5.0712,-5.0712,-5.0712,-5.0712,-5.0712,-5.0712,-5.0712,-5.0712,-5.0712,-5.0712,-5.0712,-5.0712,-5.0712,-5.0712,-5.0712,-5.0712,-5.0712,-5.0712,-5.0712,-5.0712,-5.0712,-5.0712,-5.0712,-5.0712,-5.0712,-5.0789,-5.1087,-5.0933,-5.0789,-5.1087,-5.1164,-5.1087,-5.0789,-5.0933,-5.1087,-5.0789,-5.0712,-5.0712,-5.0712,-5.0712,-5.0519,-5.001,-5.0366,-5.0404,-4.951,-4.9394,-4.9279,-4.8933,-4.8432,-4.8086,-4.8086,-4.8086,-4.824,-4.8586,-4.7855,-4.774,-4.8586,-4.7317,-4.6663,-4.6885,-4.6394,-4.6124,-4.6124,-4.7124,-4.8048,-4.8894,-4.9048,-4.9663,-5.0673,-5.0164,-5.0212,-5.0712,-5.0712,-5.0712,-5.0596,-4.9202,-4.8625,-4.8548,-4.7702,-4.7355,-4.7509,-4.8509,-4.824,-4.7509,-5.5703,-5.5703,-5.5934,-5.6753,-5.6868,-5.6868,-5.6868,-5.755,-5.7511,-5.5895,-5.6406,-5.6599,-5.578,-5.5703,-5.5703,-5.5703,-5.5703,-5.5703,-5.5703,-5.5703,-5.5703,-5.5703,-5.5703,-5.5357,-5.4626,-5.378,-5.2856,-5.1885,-5.1164,-5.0789,-5.0712,-5.0712,-5.0712,-5.0712,-5.0712,-5.0712,-5.0712,-5.0712,-5.0712,-5.0712,-5.0712,-5.0712,-5.0712,-5.0712,-5.0712,-5.0712,-5.0712,-5.0712,-5.0712,-5.0712,-5.075,-5.0789,-5.0712,-5.075,-5.0827,-5.0827,-5.075,-5.0856,-5.1692,-5.1356,-5.0971,-5.1731,-5.2,-5.1885,-5.101,-5.1356,-5.1692,-5.1048,-5.0866,-5.0827,-5.0904,-5.0866,-5.0827,-5.0827,-5.075,-5.0442,-4.9625,-4.951,-4.9202,-4.8432,-4.8317,-4.8317,-4.8317,-4.8317,-4.8663,-4.9471,-4.8702,-4.8586,-4.9471,-4.8625,-4.7817,-4.7154,-4.7038,-4.7,-4.7,-4.7077,-4.7509,-4.824,-4.9817,-5.0635,-5.0712,-5.0712,-5.0712,-5.0712,-5.0712,-5.0673,-5.0519,-4.9625,-4.9279,-4.9202,-4.8317,-4.8048,-4.8086,-4.8086,-4.8048,-4.8009,-5.5703,-5.5703,-5.5742,-5.5934,-5.5972,-5.5972,-5.5972,-5.6126,-5.6126,-5.5742,-5.5857,-5.5895,-5.5703,-5.5703,-5.5703,-5.5703,-5.5703,-5.5703,-5.5703,-5.5703,-5.5703,-5.5703,-5.5703,-5.5626,-5.5434,-5.4626,-5.3472,-5.1885,-5.1731,-5.1318,-5.0712,-5.0712,-5.0712,-5.0712,-5.0712,-5.0712,-5.0712,-5.0712,-5.0712,-5.0712,-5.0712,-5.0712,-5.0712,-5.0712,-5.0712,-5.0712,-5.0712,-5.0712,-5.0712,-5.0712,-5.1125,-5.1548,-5.0894,-5.1125,-5.1654,-5.1654,-5.1202,-5.0856,-5.1692,-5.1769,-5.1692,-5.1846,-5.2933,-5.3549,-5.201,-5.1769,-5.2038,-5.2549,-5.2125,-5.1856,-5.2549,-5.2087,-5.1654,-5.1654,-5.1125,-5.0635,-5.0442,-5.0442,-5.0366,-5.0164,-5.0125,-5.0125,-5.0125,-5.0125,-5.0212,-5.0404,-4.9625,-4.951,-5.0366,-4.8933,-4.8317,-4.8856,-4.8202,-4.7855,-4.7855,-4.8509,-4.8933,-4.9125,-4.951,-5.0048,-5.0712,-5.0712,-5.0712,-5.0712,-5.0712,-5.0327,-4.9625,-4.874,-4.8394,-4.8317,-4.7471,-4.7548,-4.8086,-4.8086,-4.7702,-4.7154,-5.5703,-5.5703,-5.5703,-5.5703,-5.5703,-5.5703,-5.5703,-5.5703,-5.5703,-5.5703,-5.5703,-5.5703,-5.5703,-5.5703,-5.5703,-5.5703,-5.5703,-5.5703,-5.5703,-5.5703,-5.5703,-5.5703,-5.5703,-5.5703,-5.5703,-5.528,-5.4434,-5.3126,-5.2731,-5.2087,-5.1279,-5.1279,-5.1087,-5.0712,-5.0712,-5.0712,-5.0712,-5.0712,-5.0933,-5.1279,-5.1279,-5.151,-5.1895,-5.1895,-5.1895,-5.1895,-5.1895,-5.1625,-5.1356,-5.1741,-5.1895,-5.1885,-5.1895,-5.1895,-5.1962,-5.2385,-5.1933,-5.1548,-5.2818,-5.2856,-5.2615,-5.3049,-5.3818,-5.4164,-5.2818,-5.2856,-5.3164,-5.3203,-5.2856,-5.2654,-5.3126,-5.25,-5.1885,-5.1885,-5.1202,-5.0712,-5.0712,-5.0712,-5.0712,-5.0712,-5.0712,-5.0712,-5.0712,-5.0712,-5.0712,-5.0712,-4.9894,-4.9779,-5.0635,-4.9433,-4.8933,-4.9394,-4.8971,-4.8702,-4.8702,-4.9163,-4.9625,-5.001,-5.001,-5.025,-5.0712,-5.0712,-5.0712,-5.0712,-5.0712,-5.0442,-4.9971,-4.951,-4.8856,-4.8048,-4.7625,-4.724,-4.6894,-4.6894,-4.6894,-4.6962,-5.5703,-5.5703,-5.5703,-5.5703,-5.5703,-5.5703,-5.5703,-5.5703,-5.5703,-5.5703,-5.5703,-5.5703,-5.5703,-5.5818,-5.5934,-5.5934,-5.5934,-5.5934,-5.5934,-5.578,-5.5703,-5.5703,-5.5703,-5.5703,-5.5703,-5.5703,-5.5318,-5.4511,-5.378,-5.2972,-5.2115,-5.2115,-5.1702,-5.0894,-5.0894,-5.0827,-5.0712,-5.0712,-5.1164,-5.1885,-5.1885,-5.2423,-5.3203,-5.3203,-5.3203,-5.3203,-5.3203,-5.2741,-5.2231,-5.2972,-5.2818,-5.2423,-5.301,-5.2818,-5.25,-5.3203,-5.2818,-5.2462,-5.4087,-5.3972,-5.3587,-5.4318,-5.4587,-5.4511,-5.378,-5.4087,-5.4318,-5.3741,-5.351,-5.3472,-5.3587,-5.2933,-5.2308,-5.2154,-5.1433,-5.0866,-5.0712,-5.0712,-5.0712,-5.0712,-5.0712,-5.0712,-5.0712,-5.0712,-5.0712,-5.0712,-5.001,-4.9933,-5.0673,-5.001,-4.9625,-4.9625,-4.9625,-4.9625,-4.9625,-4.9625,-4.9971,-5.0712,-5.0712,-5.0712,-5.0712,-5.0712,-5.0712,-5.0712,-5.0712,-5.0635,-5.0481,-5.0481,-4.9625,-4.8317,-4.8163,-4.724,-4.5979,-4.571,-4.6163,-4.7,-5.5703,-5.5703,-5.5703,-5.5703,-5.5703,-5.5703,-5.5703,-5.5703,-5.5703,-5.5703,-5.5703,-5.5703,-5.5703,-5.6368,-5.683,-5.683,-5.683,-5.683,-5.683,-5.6126,-5.5703,-5.5703,-5.5703,-5.5703,-5.5703,-5.5703,-5.5318,-5.4511,-5.4395,-5.3895,-5.301,-5.301,-5.2549,-5.1731,-5.1731,-5.1356,-5.0712,-5.0712,-5.1164,-5.1885,-5.1885,-5.2423,-5.3203,-5.3203,-5.3203,-5.3203,-5.3203,-5.3126,-5.3049,-5.3164,-5.3626,-5.4049,-5.3395,-5.3626,-5.4164,-5.428,-5.3703,-5.3241,-5.4241,-5.4395,-5.4357,-5.4472,-5.5011,-5.5511,-5.5395,-5.4895,-5.4664,-5.5241,-5.4818,-5.4549,-5.5241,-5.4703,-5.3895,-5.3164,-5.2308,-5.151,-5.0789,-5.0712,-5.0712,-5.0712,-5.0712,-5.0712,-5.0712,-5.0712,-5.0712,-5.0712,-5.0596,-5.0596,-5.0712,-5.0596,-5.0519,-5.0519,-5.0519,-5.0519,-5.0519,-5.0519,-5.0596,-5.0712,-5.0712,-5.0712,-5.0712,-5.0712,-5.0712,-5.0712,-5.0712,-5.0289,-4.9586,-4.9586,-4.9433,-4.9163,-4.8394,-4.7971,-4.7586,-4.6133,-4.6163,-4.6923,-5.5703,-5.5703,-5.5703,-5.5703,-5.5703,-5.5703,-5.5703,-5.5703,-5.5703,-5.5703,-5.5703,-5.5703,-5.5703,-5.6049,-5.6483,-5.6945,-5.6983,-5.7214,-5.7703,-5.6896,-5.6445,-5.6445,-5.5972,-5.5703,-5.5703,-5.5703,-5.5511,-5.5164,-5.5164,-5.4741,-5.3933,-5.3933,-5.3472,-5.2615,-5.2615,-5.2433,-5.2087,-5.2087,-5.2587,-5.3356,-5.3356,-5.3857,-5.4587,-5.4587,-5.4587,-5.4587,-5.4587,-5.4318,-5.3972,-5.4434,-5.4549,-5.4511,-5.4587,-5.4549,-5.4587,-5.5049,-5.4587,-5.4126,-5.4934,-5.5164,-5.5164,-5.5164,-5.5434,-5.5703,-5.5703,-5.5434,-5.528,-5.5626,-5.5434,-5.528,-5.5626,-5.5049,-5.4357,-5.3972,-5.2779,-5.1769,-5.1433,-5.0971,-5.0712,-5.0712,-5.0712,-5.0712,-5.0712,-5.0712,-5.0712,-5.0712,-5.0712,-5.0712,-5.0712,-5.0712,-5.0712,-5.0712,-5.0712,-5.0712,-5.0712,-5.0712,-5.0712,-5.0712,-5.0712,-5.0712,-5.0712,-5.0712,-5.0712,-5.0712,-5.0712,-5.0481,-5.0125,-5.0125,-4.9817,-4.9356,-4.8971,-4.8548,-4.8009,-4.7278,-4.724,-4.7625]},{"header":{"parameterUnit":"m.s-1","parameterCategory":1,"la1":30.6,"la2":28.766,"lo1":-90.7593,"lo2":-88.6598,"dy":0.0162,"dx":0.0183,"nx":116,"ny":114,"refTime":"2024-05-05T06:00:00:Z","depth":0,"parameterNumber":3,"parameterNumberName":"V-component_of_WINDS"},"data":[0.0,0.0,0.0,0.0,0.0,0.0,0.0,0.0,0.0,0.0,0.0,0.0,0.0,0.0,0.0,0.0,0.0,0.0,0.0,0.0,0.0,0.0,0.0,0.0,0.0,0.0,0.0,0.0,0.0,0.0,0.0,0.0,0.0,0.0,0.0,0.0,0.0,0.0,0.0,0.0,0.0,0.0,0.0,0.0,0.0,0.0,0.0,0.0,0.0,0.0,0.0,0.0,0.0,0.0,0.0,0.0,0.0,0.0,0.0,0.0,0.0,0.0,0.0,0.0,0.0,0.0,0.0,0.0,0.0,0.0,0.0,0.0,0.0,0.0,0.0,0.0,0.0,0.0,0.0,0.0,0.0,0.0,0.0,0.0,0.0,0.0,0.0,0.0,0.0,0.0,0.0,0.0,0.0,0.0,0.0,0.0,0.0,0.0,0.0,0.0,0.0,0.0,0.0,0.0,0.0,0.0,0.0,0.0,0.0,0.0,0.0,0.0,0.0,0.0,0.0,0.0,0.0,0.0,0.0,0.0,0.0,0.0,0.0,0.0,0.0,0.0,0.0,0.0,0.0,0.0,0.0,0.0,0.0,0.0,0.0,0.0,0.0,0.0,0.0,0.0,0.0,0.0,0.0,0.0,0.0,0.0,0.0,0.0,0.0,0.0,0.0,0.0,0.0,0.0,0.0,0.0,0.0,0.0,0.0,0.0,0.0,0.0,0.0,0.0,0.0,0.0,0.0,0.0,0.0,0.0,0.0,0.0,0.0,0.0,0.0,0.0,0.0,0.0,0.0,0.0,0.0,0.0,0.0,0.0,0.0,0.0,0.0,0.0,0.0,0.0,0.0,0.0,0.0,0.0,0.0,0.0,0.0,0.0,0.0,0.0,0.0,0.0,0.0,0.0,0.0,0.0,0.0,0.0,0.0,0.0,0.0,0.0,0.0,0.0,0.0,0.0,0.0,0.0,0.0,0.0,0.0,0.0,0.0,0.0,0.0,0.0,0.0,0.0,0.0,0.0,0.0,0.0,0.0,0.0,0.0,0.0,0.0,0.0,0.0,0.0,0.0,0.0,0.0,0.0,0.0,0.0,0.0,0.0,0.0,0.0,0.0,0.0,0.0,0.0,0.0,0.0,0.0,0.0,0.0,0.0,0.0,0.0,0.0,0.0,0.0,0.0,0.0,0.0,0.0,0.0,0.0,0.0,0.0,0.0,0.0,0.0,0.0,0.0,0.0,0.0,0.0,0.0,0.0,0.0,0.0,0.0,0.0,0.0,0.0,0.0,0.0,0.0,0.0,0.0,0.0,0.0,0.0,0.0,0.0,0.0,0.0,0.0,0.0,0.0,0.0,0.0,0.0,0.0,0.0,0.0,0.0,0.0,0.0,0.0,0.0,0.0,0.0,0.0,0.0,0.0,0.0,0.0,0.0,0.0,0.0,0.0,0.0,0.0,0.0,0.0,0.0,0.0,0.0,0.0,0.0,0.0,0.0,0.0,0.0,0.0,0.0,0.0,0.0,0.0,0.0,0.0,0.0,0.0,0.0,0.0,0.0,0.0,0.0,0.0,0.0,0.0,0.0,0.0,0.0,0.0,0.0,0.0,0.0,0.0,0.0,0.0,0.0,0.0,0.0,0.0,0.0,0.0,0.0,0.0,0.0,0.0,0.0,0.0,0.0,0.0,0.0,0.0,0.0,0.0,0.0,0.0,0.0,0.0,0.0,0.0,0.0,0.0,0.0,0.0,0.0,0.0,0.0,0.0,0.0,0.0,0.0,0.0,0.0,0.0,0.0,0.0,0.0,0.0,0.0,0.0,0.0,0.0,0.0,0.0,0.0,0.0,0.0,0.0,0.0,0.0,0.0,0.0,0.0,0.0,0.0,0.0,0.0,0.0,0.0,0.0,0.0,0.0,0.0,0.0,0.0,0.0,0.0,0.0,0.0,0.0,0.0,0.0,0.0,0.0,0.0,0.0,0.0,0.0,0.0,0.0,0.0,0.0,0.0,0.0,0.0,0.0,0.0,0.0,0.0,0.0,0.0,0.0,0.0,0.0,0.0,0.0,0.0,0.0,0.0,0.0,0.0,0.0,0.0,0.0,0.0,0.0,0.0,0.0,0.0,0.0,0.0,0.0,0.0,0.0,0.0,0.0,0.0,0.0,0.0,0.0,0.0,0.0,0.0,0.0,0.0,0.0,0.0,0.0,0.0,0.0,0.0,0.0,0.0,0.0,0.0,0.0,0.0,0.0,0.0,0.0,0.0,0.0,0.0,0.0,0.0,0.0,0.0,0.0,0.0,0.0,0.0,0.0,0.0,0.0,0.0,0.0,0.0,0.0,0.0,0.0,0.0,0.0,0.0,0.0,0.0,0.0,0.0,0.0,0.0,0.0,0.0,0.0,0.0,0.0,0.0,0.0,0.0,0.0,0.0,0.0,0.0,0.0,0.0,0.0,0.0,0.0,0.0,0.0,0.0,0.0,0.0,0.0,0.0,0.0,0.0,0.0,0.0,0.0,0.0,0.0,0.0,0.0,0.0,0.0,0.0,0.0,0.0,0.0,0.0,0.0,0.0,0.0,0.0,0.0,0.0,0.0,0.0,0.0,0.0,0.0,0.0,0.0,0.0,0.0,0.0,0.0,0.0,0.0,0.0,0.0,0.0,0.0,0.0,0.0,0.0,0.0,0.0,0.0,0.0,0.0,0.0,0.0,0.0,0.0,0.0,0.0,0.0,0.0,0.0,0.0,0.0,0.0,0.0,0.0,0.0,0.0,0.0,0.0,0.0,0.0,0.0,0.0,0.0,0.0,0.0,0.0,0.0,0.0,0.0,0.0,0.0,0.0,0.0,0.0,0.0,0.0,0.0,0.0,0.0,0.0,0.0,0.0,0.0,0.0,0.0,0.0,0.0,0.0,0.0,0.0,0.0,0.0,0.0,0.0,0.0,0.0,0.0,0.0,0.0,0.0,0.0,0.0,0.0,0.0,0.0,0.0,0.0,0.0,0.0,0.0,0.0,0.0,0.0,0.0,0.0,0.0,0.0,0.0,0.0,0.0,0.0,0.0,0.0,0.0,0.0,0.0,0.0,0.0,0.0,0.0,0.0,0.0,0.0,0.0,0.0,0.0,0.0,0.0,0.0,0.0,0.0,0.0,0.0,0.0,0.0,0.0,0.0,0.0,0.0,0.0,0.0,0.0,0.0,0.0,0.0,0.0,0.0,0.0,0.0,0.0,0.0,0.0,0.0,0.0,0.0,0.0,0.0,0.0,0.0,0.0,0.0,0.0,0.0,0.0,0.0,0.0,0.0,0.0,0.0,0.0,0.0,0.0,0.0,0.0,0.0,0.0,0.0,0.0,0.0,0.0,0.0,0.0,0.0,0.0,0.0,0.0,0.0,0.0,0.0,0.0,0.0,0.0,0.0,0.0,0.0,0.0,0.0,0.0,0.0,0.0,0.0,0.0,0.0,0.0,0.0,0.0,0.0,0.0,0.0,0.0,0.0,0.0,0.0,0.0,0.0,0.0,0.0,0.0,0.0,0.0,0.0,0.0,0.0,0.0,0.0,0.0,0.0,0.0,0.0,0.0,0.0,0.0,0.0,0.0,0.0,0.0,0.0,0.0,0.0,0.0,0.0,0.0,0.0,0.0,0.0,0.0,0.0,0.0,0.0,0.0,0.0,0.0,0.0,0.0,0.0,0.0,0.0,0.0,0.0,0.0,0.0,0.0,0.0,0.0,0.0,0.0,0.0,0.0,0.0,0.0,0.0,0.0,0.0,0.0,0.0,0.0,0.0,0.0,0.0,0.0,0.0,0.0,0.0,0.0,0.0,0.0,0.0,0.0,0.0,0.0,0.0,0.0,0.0,0.0,0.0,0.0,0.0,0.0,0.0,0.0,0.0,0.0,0.0,0.0,0.0,0.0,0.0,0.0,0.0,0.0,0.0,0.0,0.0,0.0,0.0,0.0,0.0,0.0,0.0,0.0,0.0,0.0,0.0,0.0,0.0,0.0,0.0,0.0,0.0,0.0,0.0,0.0,0.0,0.0,0.0,0.0,0.0,0.0,0.0,0.0,0.0,0.0,0.0,0.0,0.0,0.0,0.0,0.0,0.0,0.0,0.0,0.0,0.0,0.0,0.0,0.0,0.0,0.0,0.0,0.0,0.0,0.0,0.0,0.0,0.0,0.0,0.0,0.0,0.0,0.0,0.0,0.0,0.0,0.0,0.0,0.0,0.0,0.0,0.0,0.0,0.0,0.0,0.0,0.0,0.0,0.0,0.0,0.0,0.0,0.0,0.0,0.0,0.0,0.0,0.0,0.0,0.0,0.0,0.0,0.0,0.0,0.0,0.0,0.0,0.0,0.0,0.0,0.0,0.0,0.0,0.0,0.0,0.0,0.0,0.0,0.0,0.0,0.0,0.0,0.0,0.0,0.0,0.0,0.0,0.0,0.0,0.0,0.0,0.0,0.0,0.0,0.0,0.0,0.0,0.0,0.0,0.0,0.0,0.0,0.0,0.0,0.0,0.0,0.0,0.0,0.0,0.0,0.0,0.0,0.0,0.0,0.0,0.0,0.0,0.0,0.0,0.0,0.0,0.0,0.0,0.0,0.0,0.0,0.0,0.0,0.0,0.0,0.0,0.0,0.0,0.0,0.0,0.0,0.0,0.0,0.0,0.0,0.0,0.0,0.0,0.0,0.0,0.0,0.0,0.0,0.0,0.0,0.0,0.0,0.0,0.0,0.0,0.0,0.0,0.0,0.0,0.0,0.0,0.0,0.0,0.0,0.0,0.0,0.0,0.0,0.0,0.0,0.0,0.0,0.0,0.0,0.0,0.0,0.0,0.0,0.0,0.0,0.0,0.0,0.0,0.0,0.0,0.0,0.0,0.0,0.0,0.0,0.0,0.0,0.0,0.0,0.0,0.0,0.0,0.0,0.0,0.0,0.0,0.0,0.0,0.0,0.0,0.0,0.0,0.0,0.0,0.0,0.0,0.0,0.0,0.0,0.0,0.0,0.0,0.0,0.0,0.0,0.0,0.0,0.0,0.0,0.0,0.0,0.0,0.0,0.0,0.0,0.0,0.0,0.0,0.0,0.0,0.0,0.0,0.0,0.0,0.0,0.0,0.0,0.0,0.0,0.0,0.0,0.0,0.0,0.0,0.0,0.0,0.0,0.0,0.0,0.0,0.0,0.0,0.0,0.0,0.0,0.0,0.0,0.0,0.0,0.0,0.0,0.0,0.0,0.0,0.0,0.0,0.0,0.0,0.0,0.0,0.0,0.0,0.0,0.0,0.0,0.0,0.0,0.0,0.0,0.0,0.0,0.0,0.0,0.0,0.0,0.0,0.0,0.0,0.0,0.0,0.0,0.0,0.0,0.0,0.0,0.0,0.0,0.0,0.0,0.0,0.0,0.0,0.0,0.0,0.0,0.0,0.0,0.0,0.0,0.0,0.0,0.0,0.0,0.0,0.0,0.0,0.0,0.0,0.0,0.0,0.0,0.0,0.0,0.0,0.0,0.0,0.0,0.0,0.0,0.0,0.0,0.0,0.0,0.0,0.0,0.0,0.0,0.0,0.0,0.0,0.0,0.0,0.0,0.0,0.0,0.0,0.0,0.0,0.0,0.0,0.0,0.0,0.0,0.0,0.0,0.0,0.0,0.0,0.0,0.0,0.0,0.0,0.0,0.0,0.0,0.0,0.0,0.0,0.0,0.0,0.0,0.0,0.0,0.0,0.0,0.0,0.0,0.0,0.0,0.0,0.0,0.0,0.0,0.0,0.0,0.0,0.0,0.0,0.0,0.0,0.0,0.0,0.0,0.0,0.0,0.0,0.0,0.0,0.0,0.0,0.0,0.0,0.0,0.0,0.0,0.0,0.0,0.0,0.0,0.0,0.0,0.0,0.0,0.0,0.0,0.0,0.0,0.0,0.0,0.0,0.0,0.0,0.0,0.0,0.0,0.0,0.0,0.0,0.0,0.0,0.0,0.0,0.0,0.0,0.0,0.0,0.0,0.0,0.0,0.0,0.0,0.0,0.0,0.0,0.0,0.0,0.0,0.0,0.0,0.0,0.0,0.0,0.0,0.0,0.0,0.0,0.0,0.0,-0.2906,0.0,0.0,0.0,0.0,0.0,0.0,0.0,0.0,0.0,0.0,0.0,0.0,0.0,0.0,0.0,0.0,0.0,0.0,0.0,0.0,0.0,0.0,0.0,0.0,-1.1328,-1.1177,-1.0486,-1.0554,-1.0644,-1.0562,0.0,0.0,0.0,0.0,0.0,-0.9822,-0.9822,-0.9788,-0.972,-0.9863,-1.0046,-1.0263,-1.0181,-1.0066,-0.9869,0.0,0.0,0.0,0.0,0.0,0.0,0.0,0.0,0.0,0.0,0.0,0.0,0.0,0.0,0.0,0.0,0.0,0.0,0.0,0.0,0.0,0.0,0.0,0.0,0.0,0.0,0.0,0.0,0.0,0.0,0.0,0.0,0.0,0.0,0.0,0.0,0.0,0.0,0.0,0.0,0.0,0.0,0.0,0.0,0.0,0.0,0.0,0.0,0.0,0.0,0.0,0.0,0.0,0.0,0.0,0.0,0.0,0.0,0.0,0.0,0.0,0.0,0.0,0.0,0.0,0.0,0.0,0.0,0.0,0.0,0.0,-0.3772,0.0,0.0,0.0,0.0,0.0,0.0,0.0,0.0,0.0,0.0,0.0,0.0,0.0,0.0,0.0,0.0,0.0,0.0,0.0,0.0,0.0,-1.2418,-1.1364,-1.1611,-1.1541,-1.071,-1.0628,-1.0553,-1.0353,-1.0126,0.0,0.0,-0.9747,-0.9822,-0.9822,-0.9822,-0.9774,-0.9686,-1.0059,-1.0463,-1.069,-1.0711,-1.0595,-1.028,-1.0039,0.0,0.0,0.0,0.0,0.0,0.0,0.0,0.0,0.0,0.0,0.0,0.0,0.0,0.0,0.0,0.0,0.0,0.0,0.0,0.0,0.0,0.0,0.0,0.0,0.0,0.0,0.0,0.0,0.0,0.0,0.0,0.0,0.0,0.0,0.0,0.0,0.0,0.0,0.0,0.0,0.0,0.0,0.0,0.0,0.0,0.0,0.0,0.0,0.0,0.0,0.0,0.0,0.0,0.0,0.0,0.0,0.0,0.0,0.0,0.0,0.0,0.0,0.0,0.0,0.0,0.0,0.0428,0.0686,0.0597,-0.1035,-0.317,-0.5591,0.0,0.0,0.0,0.0,0.0,0.0,0.0,0.0,0.0,0.0,0.0,0.0,0.0,0.0,0.0,0.0,0.0,0.0,0.0,0.0,-1.2597,-1.1871,-1.1793,-1.1659,-1.1238,-1.0815,-1.0606,-1.0583,-1.0013,-0.9671,-0.9612,-0.9747,-0.9822,-0.9822,-0.9822,-0.9876,-0.993,-1.0677,-1.1172,-1.147,-1.1599,-1.1633,-1.1558,-1.0629,-1.029,-1.0378,0.0,0.0,0.0,0.0,0.0,0.0,0.0,0.0,0.0,0.0,0.0,0.0,0.0,0.0,0.0,0.0,0.0,0.0,0.0,0.0,0.0,0.0,0.0,0.0,0.0,0.0,0.0,0.0,0.0,0.0,0.0,0.0,0.0,0.0,0.0,0.0,0.0,0.0,0.0,0.0,0.0,0.0,0.0068,0.0,0.0,0.0,0.0,0.0,0.0,0.0,0.0,0.0,0.0,0.0,0.0,0.0,0.0,0.0,0.0,0.0,0.0,0.0,0.0,0.0,0.0091,0.0091,0.0091,-0.0179,0.0,-0.4151,-0.3887,0.0,0.0,0.0,0.0,0.0,0.0,0.0,0.0,0.0,0.0,0.0,0.0,0.0,0.0,0.0,0.0,0.0,0.0,0.0,0.0,0.0,-1.1856,-1.1642,-1.114,-1.114,-1.1031,-1.0673,-1.0379,-1.014,-1.0017,-0.9916,-0.9975,-1.0058,-0.9965,-1.0188,-1.0677,-1.1179,-1.1619,-1.1999,-1.206,-1.2088,-1.2067,-1.1525,-1.1084,-1.0731,-1.0446,0.0,0.0,0.0,0.0,0.0,0.0,0.0,0.0,0.0,0.0,0.0,0.0,0.0,0.0,0.0,0.0,0.0,0.0,0.0,0.0,0.0,0.0,0.0,0.0,0.0,0.0,0.0,0.0,0.0,0.0,0.0,0.0,0.0,0.0,0.0,0.0,0.0,0.0,0.0,0.0138,0.014,0.0533,0.0204,0.0204,0.0,0.0,0.0,0.0,0.0,0.0,0.0,0.0,0.0,0.0424,0.0515,0.0525,0.0452,0.0745,0.0943,0.0941,0.0676,0.0489,0.0487,0.0484,0.0579,0.0868,-0.0382,-0.2027,-0.3659,-0.3899,-0.5717,-0.8489,0.0,0.0,0.0,0.0,0.0,-1.0509,0.0,0.0,0.0,0.0,0.0,0.0,0.0,0.0,0.0,0.0,0.0,0.0,-1.1784,-1.1884,-1.1745,-1.1306,-1.1632,-1.1562,-1.0915,-1.0721,-1.0516,-1.028,-1.0098,-1.0091,-1.0299,-1.0321,-1.0531,-1.1054,-1.1642,-1.2115,-1.2515,-1.2556,-1.2576,-1.2569,-1.2413,-1.1952,-1.1274,-1.0962,-1.0575,-1.0148,0.0,0.0,0.0,0.0,0.0,0.0,0.0,0.0,0.0,0.0,0.0,0.0,0.0,0.0,0.0,0.0,0.0,0.0,0.0,0.0,0.0,0.0,0.0,0.0,0.0,0.0,0.0,0.0,0.0,0.0,0.0,0.0,0.0,0.0,0.0,0.0,0.0,0.0211,0.0215,0.0798,0.0353,0.0215,0.0,0.0,0.0,0.0,0.0,0.0,0.0571,0.025,0.0259,0.0823,0.0834,0.0943,0.1058,0.1474,0.1696,0.1712,0.1308,0.1013,0.0922,0.0808,0.1002,0.1099,-0.1087,-0.2708,-0.3742,-0.4598,-0.6314,-0.8512,-0.9147,-0.9473,-0.97,-1.0428,-1.0803,-1.0984,0.0,0.0,0.0,0.0,0.0,0.0,0.0,0.0,0.0,0.0,0.0,-1.1563,-1.1867,-1.199,-1.2119,-1.2293,-1.2194,-1.188,-1.1432,-1.0702,-1.0333,-1.0299,-1.01,-1.01,-1.032,-1.0879,-1.0984,-1.0706,-1.2003,-1.2827,-1.3132,-1.3275,-1.3342,-1.3342,-1.3186,-1.2786,-1.2176,-1.145,-1.1193,-1.1036,-1.0324,0.0,0.0,0.0,0.0,0.0,0.0,0.0,0.0,0.0,0.0,0.0,0.0,0.0,0.0,0.0,0.0,0.0,0.0,0.0,0.0,0.0,0.0,0.0,0.0,0.0,0.0,0.0,0.0,0.0,0.0,0.0,0.0,0.0,0.0,0.0,0.0,0.0,0.0,0.0494,0.0234,0.0,0.0,0.0,0.0,0.0467,0.016,0.0,0.0,0.0,0.028,0.077,0.0786,0.1101,0.1632,0.1635,0.1746,0.1657,0.1657,0.1444,0.0922,0.0921,0.0611,0.0,-0.2095,-0.342,-0.4357,-0.557,-0.7359,-0.9231,-0.8549,-0.881,-0.9595,-1.0243,-1.0827,-1.1278,0.0,0.0,0.0,0.0,0.0,-1.7742,-1.6471,-1.5409,-1.4252,-1.2728,-1.1989,-1.1861,-1.2297,-1.2425,-1.2583,-1.2902,-1.3011,-1.277,-1.2044,-1.1433,-1.1073,-1.087,-1.0466,-1.0258,-1.043,-1.1107,-1.1477,-1.1568,-1.2575,-1.3119,-1.3322,-1.3376,-1.3451,-1.3546,-1.3492,-1.3349,-1.3098,-1.225,-1.1667,-1.133,-1.0902,-1.0686,0.0,0.0,0.0,0.0,0.0,0.0,0.0,0.0,0.0,0.0,0.0,0.0,0.0,0.0,0.0,0.0,0.0,0.0,0.0,0.0,0.0,0.0,0.0,0.0,0.0,0.0,0.0,0.0,0.0,0.0,0.0,0.0,0.0,0.0,0.0,0.0,0.0,0.1011,0.0762,0.0,0.0975,0.0413,0.0168,0.0509,0.053,0.0734,0.1044,0.1067,0.1291,0.1838,0.1954,0.2065,0.2169,0.2613,0.2817,0.2674,0.2069,0.1549,0.1433,0.1012,0.0,-0.1499,-0.3658,-0.544,-0.6923,-0.8704,-0.9362,-0.9178,-0.9601,-0.9675,-0.9735,-1.0744,-1.1121,-1.127,0.0,0.0,0.0,-1.9257,-1.8318,-1.7305,-1.6458,-1.506,-1.3676,-1.2377,-1.2155,-1.2218,-1.2384,-1.2904,-1.325,-1.3412,-1.3454,-1.3191,-1.2393,-1.1733,-1.1251,-1.1106,-1.0693,-1.0462,-1.0385,-1.1391,-1.1907,-1.2007,-1.2862,-1.3302,-1.3403,-1.3451,-1.3532,-1.3634,-1.3682,-1.3702,-1.3661,-1.3017,-1.2393,-1.1796,-1.1455,-1.1312,-1.1162,0.0,0.0,0.0,0.0,0.0,0.0,0.0,0.0,0.0,0.0,0.0,0.0,0.0,0.0,0.0,0.0,0.0,0.0,0.0,0.0,0.0,0.0,0.0,0.0,0.0,0.0,0.0,0.0,0.0,0.0,0.0,0.0,0.0,0.0,0.0,0.0766,0.1239,0.0904,0.0842,0.1401,0.0721,0.0461,0.0833,0.1054,0.1285,0.1723,0.1741,0.1867,0.2217,0.2416,0.2509,0.2502,0.3041,0.334,0.3291,0.2579,0.2159,0.1936,0.1505,0.0397,-0.1286,-0.3315,-0.48,-0.6044,-0.9039,-0.9505,-0.8441,-0.9705,-1.0226,-1.0267,-1.0878,-1.1066,-1.1051,0.0,-1.8994,-1.8891,-1.9199,-1.7832,-1.6617,-1.6299,-1.46,-1.2918,-1.1757,-1.2381,-1.2716,-1.2182,-1.3334,-1.4052,-1.3803,-1.3547,-1.3134,-1.2585,-1.1525,-1.088,-1.0873,-1.088,-1.0692,-1.0284,-1.1766,-1.2272,-1.1838,-1.2939,-1.341,-1.341,-1.3566,-1.3634,-1.3641,-1.3783,-1.3844,-1.3838,-1.3709,-1.3308,-1.2698,-1.1959,-1.1863,-1.2016,0.0,0.0,0.0,0.0,0.0,0.0,0.0,0.0,0.0,0.0,0.0,0.0,0.0,0.0,0.0,0.0,0.0,0.0,0.0,0.0,0.0,0.0,0.0,0.0,0.0,0.0,0.0,0.0,0.0,0.0,0.0,0.0,0.0,0.0458,0.0252,0.0355,0.1192,0.0572,0.05,0.1593,0.1263,0.1102,0.1617,0.1735,0.1757,0.1682,0.1698,0.1706,0.1706,0.22,0.2502,0.2524,0.2997,0.3291,0.3318,0.3288,0.2953,0.2422,0.2399,0.1782,0.0686,-0.0863,-0.1513,-0.1871,-0.623,-0.7717,-0.7206,-0.8873,-1.0144,-1.1052,-1.0693,-1.0552,-1.0655,-1.8555,-1.8686,-1.86,-1.8058,-1.7787,-1.7147,-1.5595,-1.4739,-1.3617,-1.1985,-1.2628,-1.3162,-1.2949,-1.3759,-1.443,-1.4467,-1.3851,-1.3248,-1.2748,-1.1612,-1.0833,-1.0785,-1.0989,-1.116,-1.1346,-1.2382,-1.2795,-1.2695,-1.3374,-1.3668,-1.3566,-1.3715,-1.3783,-1.379,-1.3939,-1.4007,-1.4014,-1.4082,-1.3892,-1.3478,-1.2847,-1.2484,-1.2311,0.0,0.0,0.0,0.0,0.0,0.0,0.0,0.0,0.0,0.0,0.0,0.0,0.0,0.0,0.0,0.0,0.0,0.0,0.0,0.0,0.0,0.0,0.0,0.0,0.0,0.0,0.0,0.0,0.0,0.0,0.0,0.0079,0.0,0.0084,0.0451,0.0766,0.0981,0.0826,0.095,0.1648,0.1254,0.1158,0.1665,0.2098,0.2325,0.2336,0.2768,0.2772,0.2345,0.2847,0.2728,0.1893,0.2808,0.3085,0.2646,0.264,0.2514,0.2374,0.2237,0.1059,-0.0959,-0.1033,-0.2035,-0.3848,-0.6828,-0.7892,-0.7739,-0.9971,-1.066,-1.0524,-1.0341,-1.028,-1.0407,-1.8277,-1.8452,-1.8362,-1.7612,-1.7472,-1.6869,-1.5114,-1.4202,-1.3197,-1.1829,-1.2434,-1.307,-1.3058,-1.3859,-1.4385,-1.44,-1.3725,-1.3087,-1.2547,-1.1622,-1.1097,-1.1002,-1.1409,-1.1891,-1.2285,-1.295,-1.3408,-1.3475,-1.3787,-1.396,-1.3817,-1.3966,-1.4,-1.3946,-1.4102,-1.4163,-1.4177,-1.4265,-1.4156,-1.3905,-1.3566,-1.3261,-1.2961,-1.2398,-1.1569,-1.0503,-0.9837,-0.8666,-0.7175,-0.5873,0.0,0.0,0.0,0.0,0.0,0.0,0.0,0.0,0.0,0.0,0.0,0.0,0.0,0.0,0.0,0.0,0.0,0.0,0.0,0.0,0.0,0.0,0.0,0.0,0.0,0.0,0.0,0.0289,0.0603,0.0832,0.0852,0.1184,0.2027,0.1827,0.1825,0.2329,0.2764,0.2985,0.2985,0.3198,0.3204,0.2573,0.2859,0.2735,0.1998,0.2587,0.2853,0.2712,0.2691,0.2658,0.2618,0.2577,0.1607,0.0,0.0555,-0.0183,-0.1908,-0.5015,-0.6274,0.0,0.0,0.0,0.0,0.0,-0.9796,-0.9853,-1.813,-1.8149,-1.7981,-1.7391,-1.6886,-1.6086,-1.4685,-1.3295,-1.2173,-1.1569,-1.2035,-1.2581,-1.2821,-1.3573,-1.408,-1.3908,-1.3468,-1.2846,-1.2115,-1.1719,-1.1517,-1.1504,-1.2094,-1.2617,-1.3051,-1.362,-1.3987,-1.4122,-1.4272,-1.4272,-1.4122,-1.4258,-1.4245,-1.4102,-1.4258,-1.4326,-1.4326,-1.434,-1.4272,-1.4143,-1.4095,-1.3966,-1.3715,-1.3089,-1.2324,-1.1512,-1.0742,-0.959,-0.8237,-0.6446,0.0,0.0,0.0,0.0,0.0,0.0,0.0,0.0,0.0,0.0,0.0,0.0,0.0,0.0,0.0,0.0,0.0,0.0,0.0,0.0,0.0,0.0,0.0,0.0,0.0,0.0,0.0,0.0,0.0207,0.0842,0.0856,0.14,0.2458,0.2581,0.2798,0.3307,0.3412,0.3412,0.3412,0.0,0.0,0.0,0.0,0.2521,0.2416,0.2454,0.2711,0.3082,0.3125,0.308,0.3046,0.3016,0.2705,0.2308,0.2741,0.2638,0.1904,-0.2196,-0.4241,-0.5082,-0.9201,-1.0627,-1.0292,-0.9651,-0.931,0.0,-1.7501,-1.7357,-1.7027,-1.6263,-1.5925,-1.5298,-1.4062,-1.3034,-1.2274,-1.1903,-1.2139,-1.2352,-1.2233,-1.3059,-1.3573,-1.3334,-1.2993,-1.256,-1.2009,-1.1967,-1.2091,-1.2264,-1.2868,-1.3336,-1.3661,-1.4136,-1.4394,-1.4428,-1.4577,-1.4577,-1.4428,-1.4455,-1.4394,-1.4265,-1.4407,-1.4468,-1.4475,-1.4604,-1.4638,-1.4577,-1.4217,-1.3912,-1.3634,-1.3391,-1.2193,-1.0747,-1.0364,-0.9519,-0.8454,-0.7561,-0.697,-0.623,-0.4,-0.2482,0.0,0.0,0.0,0.0,0.0,0.0,0.0,0.0,0.0,0.0,0.0,0.0,0.0,0.0,0.0,0.0,0.0,0.0,0.0,0.0,0.0,0.0,0.0,0.0,0.0211,0.0858,0.0862,0.1295,0.2478,0.259,0.2798,0.3307,0.3412,0.3412,0.3412,0.3412,0.0,0.2565,0.2941,0.2705,0.1768,0.2633,0.2884,0.2462,0.0,0.0,0.3014,0.2984,0.2954,0.274,0.2894,0.2779,0.2311,-0.2201,-0.6132,-0.9431,-1.024,-0.9778,-0.8766,-0.947,-0.9264,-0.8675,-1.7279,-1.7049,-1.6626,-1.5922,-1.5518,-1.4881,-1.3673,-1.2663,-1.1886,-1.1586,-1.1279,-1.1184,-1.1452,-1.2131,-1.2543,-1.2529,-1.2377,-1.2223,-1.2086,-1.2393,-1.2699,-1.3139,-1.3675,-1.4061,-1.4285,-1.4658,-1.4882,-1.4964,-1.5038,-1.4997,-1.4848,-1.4848,-1.4733,-1.4523,-1.4516,-1.4509,-1.4509,-1.4516,-1.4523,-1.4496,-1.419,-1.3939,-1.3729,-1.3648,-1.2772,-1.1397,-1.0898,-1.007,-0.8934,-0.8105,-0.7623,-0.7106,-0.5793,-0.4506,-0.3263,0.0,0.0,0.0,0.0,0.0,0.0,0.0,0.0,0.0,0.0,0.0,0.0,0.0,0.0,0.0229,0.0,0.0,0.0,0.0,0.0,0.0,0.0,0.0,0.0106,0.0428,0.0966,0.1502,0.2146,0.2683,0.3106,0.3412,0.3412,0.3412,0.3412,0.3412,0.3298,0.2966,0.2939,0.26,0.2061,0.2328,0.2391,0.2258,0.2516,0.2758,0.2983,0.2953,0.2923,0.2893,0.2864,0.2842,0.2471,-0.2078,-0.6214,-0.9718,-0.9787,-0.9412,-0.8828,-0.9197,-0.8736,-0.7988,-1.7366,-1.6868,-1.6304,-1.5896,-1.5303,-1.4537,-1.3447,-1.2337,-1.1483,-1.111,-1.0317,-1.0005,-1.0587,-1.1113,-1.1497,-1.167,-1.1792,-1.2072,-1.2414,-1.2849,-1.3334,-1.4021,-1.4462,-1.476,-1.4909,-1.5174,-1.5357,-1.5452,-1.5452,-1.5391,-1.5269,-1.5208,-1.5052,-1.4821,-1.4665,-1.4604,-1.4597,-1.4509,-1.4455,-1.4414,-1.4231,-1.4068,-1.3926,-1.3779,-1.3152,-1.222,-1.1547,-1.0482,-0.9253,-0.8239,-0.7872,-0.7665,-0.7069,-0.6304,-0.5188,-0.319,-0.1923,0.0,0.0,0.0,0.0,0.0,0.0,0.0,0.0,-0.0211,-0.0215,-0.0908,-0.1015,-0.1138,-0.1217,-0.124,-0.1275,-0.1266,-0.1289,-0.1108,-0.0724,-0.0627,-0.0421,0.0,0.0958,0.1598,0.1705,0.2558,0.3091,0.3198,0.3198,0.3198,0.3198,0.3299,0.3392,0.3262,0.2725,0.2593,0.2647,0.2014,0.1985,0.2434,0.2391,0.2535,0.2951,0.2927,0.2901,0.2872,0.2836,0.2549,0.1833,-0.1942,-0.5448,-0.8375,-0.8789,-0.902,-0.8955,-0.876,-0.814,-0.7496,-1.7706,-1.6573,-1.5615,-1.5746,-1.499,-1.4051,-1.3423,-1.2337,-1.1483,-1.111,-1.023,-0.9693,-0.9917,-1.0411,-1.0897,-1.134,-1.172,-1.2212,-1.2897,-1.3202,-1.3848,-1.4801,-1.514,-1.5384,-1.5533,-1.5696,-1.5723,-1.5615,-1.5615,-1.5601,-1.5581,-1.5309,-1.5167,-1.5126,-1.4984,-1.4923,-1.493,-1.5038,-1.5011,-1.4869,-1.4577,-1.4373,-1.4217,-1.3946,-1.2981,-1.1779,-1.1365,-1.0194,-0.8822,-0.8136,-0.7872,-0.7548,-0.5972,-0.5475,-0.485,-0.1953,-0.0832,-0.0199,0.0989,0.043,-0.0634,-0.101,-0.2114,-0.3145,0.0,-0.3502,-0.3852,-0.4657,-0.4831,-0.4977,-0.5746,-0.5853,-0.5833,-0.5831,-0.5894,-0.5163,-0.3099,-0.28,-0.2083,-0.0211,0.0637,0.1172,0.1705,0.1812,0.2132,0.2665,0.2665,0.2665,0.2665,0.3175,0.3159,0.263,0.2485,0.2748,0.3098,0.2552,0.2503,0.2927,0.2894,0.2954,0.292,0.2917,0.2901,0.2871,0.2814,0.1635,-0.0421,-0.1975,-0.417,-0.664,-0.7642,-0.7918,-0.782,-0.7997,-0.7803,-0.7402,-1.7125,-1.6308,-1.5507,-1.5104,-1.4455,-1.3805,-1.3349,-1.2337,-1.1406,-1.0947,-0.9915,-0.9245,-0.9242,-0.9727,-1.0149,-1.0492,-1.1381,-1.2328,-1.3205,-1.3906,-1.4659,-1.565,-1.587,-1.5967,-1.6029,-1.609,-1.609,-1.6029,-1.594,-1.5852,-1.5757,-1.5635,-1.5527,-1.5445,-1.5296,-1.5174,-1.5092,-1.5072,-1.497,-1.4821,-1.4597,-1.4428,-1.4265,-1.396,-1.2952,-1.1671,-1.1251,-0.9988,0.0,-0.8027,-0.7793,-0.7562,-0.6704,-0.6008,-0.5026,-0.253,-0.1232,-0.0541,-0.0131,-0.0589,-0.1466,-0.2761,-0.3467,-0.408,-0.4566,-0.4564,-0.4636,-0.5217,-0.5607,-0.5962,-0.5955,-0.6204,-0.6547,-0.6542,-0.6578,-0.5709,-0.3617,-0.33,-0.2365,-0.0206,0.0206,0.0623,0.1154,0.1476,0.1798,0.2009,0.2326,0.2539,0.2539,0.2727,0.2804,0.2467,0.2448,0.2416,0.2272,0.2241,0.2403,0.2558,0.2518,0.2669,0.2915,0.29,0.2866,0.2818,0.2757,0.1436,-0.0746,-0.1208,-0.3149,-0.5955,-0.6262,-0.6697,-0.7263,-0.7794,-0.7565,-0.697,-1.6779,-1.6121,-1.5372,-1.4739,-1.407,-1.339,-1.3014,-1.211,-1.1236,-1.0531,-0.9541,-0.8885,-0.8885,-0.9307,-0.9595,-0.9827,-1.1006,-1.215,-1.3241,-1.4216,-1.5223,-1.618,-1.6362,-1.6401,-1.6429,-1.6388,-1.6368,-1.6368,-1.6218,-1.611,-1.6035,-1.5954,-1.5859,-1.575,-1.556,-1.5411,-1.5303,-1.5201,-1.5018,-1.4794,-1.4685,-1.4455,-1.4129,-1.3828,-1.2736,-1.1367,-1.0966,-0.9828,-0.8355,-0.7882,-0.7681,-0.7555,-0.7096,-0.633,-0.5129,-0.2991,-0.1592,-0.0861,-0.1491,-0.1982,-0.2782,-0.4359,-0.4956,-0.5341,-0.5937,-0.5897,-0.5853,-0.6451,-0.6934,-0.7207,-0.705,-0.7547,-0.796,-0.811,-0.813,-0.7232,-0.4619,-0.419,-0.3042,-0.0301,0.0,0.0201,0.0611,0.1034,0.1254,0.1467,0.1887,0.2096,0.2096,0.2182,0.2156,0.2021,0.2116,0.2092,0.1754,0.2122,0.2289,0.2354,0.2406,0.256,0.2904,0.2875,0.2823,0.2755,0.2712,0.1748,0.0163,-0.0238,-0.1863,-0.4123,-0.4989,-0.5446,-0.5746,-0.7209,-0.7256,-0.6654,-1.6932,-1.596,-1.5025,-1.5015,-1.3825,-1.2708,-1.211,-1.1509,-1.0798,-0.9926,-0.9265,-0.8885,-0.8885,-0.9217,-0.9389,-0.9445,-1.0413,-1.1481,-1.2686,-1.3786,-1.4966,-1.622,-1.6602,-1.6783,-1.6727,-1.6592,-1.6517,-1.6517,-1.6374,-1.6374,-1.6497,-1.6212,-1.6076,-1.6056,-1.5764,-1.5628,-1.5628,-1.5622,-1.5364,-1.4964,-1.4957,-1.4516,-1.379,-1.3533,-1.2213,-1.0427,-1.0427,-0.9446,-0.8103,-0.7526,-0.7354,-0.7251,-0.6476,-0.5824,-0.4938,-0.2667,-0.1315,-0.0844,-0.2496,-0.3799,-0.489,-0.5663,-0.6854,-0.7879,-0.8061,-0.8243,-0.8622,-0.9443,-0.9605,-0.9915,-1.0791,-1.1353,-1.1726,-1.1853,-1.2389,-1.1177,-0.6947,-0.6344,-0.4702,-0.0492,0.0,0.0,0.0,0.0,0.0309,0.083,0.0935,0.0935,0.0935,0.1442,0.1429,0.0909,0.1402,0.1868,0.2292,0.2268,0.242,0.292,0.289,0.2876,0.2874,0.2844,0.2781,0.2695,0.2692,0.2643,0.2399,0.071,-0.0077,-0.0453,-0.3893,-0.4009,-0.2725,-0.6,-0.6936,-0.6578,-1.5368,-1.4883,-1.4458,-1.375,-1.2871,-1.2055,-1.1236,-1.0798,-1.0304,-0.9871,-0.9265,0.0,0.0,0.0,0.0,0.0,-1.0112,-1.1036,-1.212,-1.3595,-1.4816,-1.5572,-1.6634,-1.7034,-1.6703,-1.686,-1.6727,-1.6524,-1.6381,-1.6279,-1.6225,-1.613,-1.6137,-1.6225,-1.6022,-1.5879,-1.5778,-1.6064,-1.5846,-1.5398,-1.5091,-1.4797,-1.4448,-1.3368,-1.1952,-1.036,0.0,-0.881,-0.7411,-0.7182,-0.7038,-0.6953,-0.6603,-0.5776,-0.4611,-0.2773,-0.2363,-0.2881,-0.4568,-0.557,-0.6463,-0.7805,-0.8435,-0.8689,-0.9026,-0.9134,-0.923,-0.9574,-0.9867,-1.0088,-1.0321,-1.0869,-1.1455,-1.1968,-1.2396,-1.1688,-0.8868,-0.8431,-0.7323,-0.4162,-0.3909,0.0,0.0,0.0,0.0,-0.121,0.0101,0.0404,-0.0606,0.0403,0.1194,0.1265,0.1454,0.1723,0.2243,0.2498,0.2753,0.2915,0.2867,0.2844,0.2842,0.2792,0.274,0.269,0.265,0.2593,0.2446,0.1855,0.0986,-0.0074,-0.1306,-0.1919,-0.2374,-0.3512,-0.3816,-0.392,0.0,-1.419,-1.3763,-1.2743,-1.2055,0.0,0.0,0.0,0.0,0.0,0.0,0.0,0.0,0.0,0.0,0.0,0.0,-1.0815,-1.1736,-1.3133,-1.4152,-1.4743,-1.565,-1.596,-1.5596,-1.5682,-1.5615,-1.5595,-1.5418,-1.5582,-1.5794,-1.5807,-1.5839,-1.5981,-1.5832,-1.58,-1.5891,-1.5906,-1.5803,-1.5413,-1.4815,-1.4307,-1.4001,-1.286,-1.1468,0.0,-0.9518,-0.8366,-0.7085,-0.7054,-0.6997,-0.6853,-0.6511,-0.5463,-0.424,-0.361,-0.3847,-0.4693,-0.6528,-0.7376,-0.8029,-0.9052,-0.9212,-0.922,-0.9195,-0.914,-0.9135,-0.9131,-0.9308,-0.9394,-0.9357,-0.9894,-1.0493,-1.103,-1.1539,-1.1288,-0.9411,-0.9195,-0.8349,-0.6168,-0.6038,-0.6046,0.0,0.0,0.0,-0.3243,-0.2068,-0.1671,-0.2449,-0.1567,-0.0873,-0.0569,0.0284,0.0845,0.1196,0.2286,0.2905,0.2885,0.2846,0.2811,0.2778,0.274,0.2694,0.2643,0.2604,0.2553,0.2493,0.2444,0.1803,0.0814,0.0215,-0.0212,-0.0768,-0.185,-0.1827,-0.1746,0.0,0.0,-1.2989,0.0,0.0,0.0,0.0,0.0,0.0,0.0,0.0,0.0,0.0,0.0,0.0,0.0,0.0,0.0,-1.144,-1.2307,-1.307,-1.3731,-1.3984,-1.4016,-1.3693,-1.3424,-1.3422,-1.3887,-1.383,-1.4263,-1.5202,-1.5121,-1.524,-1.5289,-1.522,-1.5338,-1.5775,-1.5222,-1.5017,-1.4949,-1.3989,-1.3205,-1.2555,-1.2086,-1.0825,-0.9366,-0.9087,-0.8127,-0.7002,-0.7166,-0.7215,-0.7091,-0.6246,-0.5075,-0.4237,-0.5188,-0.5693,-0.6448,-0.8435,-0.9283,-0.9516,-0.9293,-0.9411,-0.9342,-0.8798,-0.8595,-0.8534,-0.8346,-0.8085,-0.7946,-0.8169,-0.8645,-0.9109,-0.9552,-1.0377,-1.0432,-0.8968,-0.875,-0.8297,-0.6822,-0.6565,-0.6541,-0.6374,0.0,0.0,-0.5574,0.0,-0.4989,-0.447,-0.4375,-0.4261,-0.4308,-0.206,-0.0835,-0.0819,0.1546,0.2793,0.2829,0.2826,0.2777,0.2692,0.2691,0.2642,0.264,0.2557,0.2523,0.2465,0.2433,0.2402,0.2217,0.0782,0.1051,0.1885,-0.0882,-0.1007,-0.0269,0.0,0.0,0.0,0.0,0.0,0.0,0.0,0.0,0.0,0.0,0.0,0.0,0.0,0.0,0.0,0.0,0.0,0.0,-1.0409,-1.1503,-1.2126,-1.215,-1.3545,-1.3999,-1.3376,-1.3654,-1.3771,-1.3718,-1.3608,-1.3753,-1.4239,-1.4242,-1.4273,-1.4408,-1.4221,-1.4181,-1.4235,-1.4193,-1.4057,-1.3832,-1.3367,-1.3037,-1.2641,-1.1828,-1.0669,-0.9449,-0.9248,-0.8208,-0.6991,-0.7018,-0.7269,-0.7493,-0.705,-0.7079,-0.7241,-0.7432,-0.8155,-0.9102,-0.9668,-1.0209,-1.0456,-1.0088,-0.9694,-0.9414,-0.9069,-0.866,-0.8317,-0.8397,-0.7852,-0.736,-0.7569,-0.828,-0.8993,-0.9585,-1.0747,-1.1512,-1.1336,-1.1426,-1.1312,-1.0753,-1.0787,-1.0778,-1.0511,-1.0629,0.0,0.0,-0.6817,-0.532,-0.5957,-0.4968,-0.411,-0.3764,-0.321,-0.2735,-0.234,-0.0268,0.142,0.2827,0.2782,0.2736,0.2691,0.2669,0.2623,0.2559,0.2536,0.2491,0.2432,0.2402,0.236,0.2308,0.1838,0.1882,0.2138,0.1354,0.1346,0.1346,0.0,0.0,0.0,0.0,0.0,0.0,0.0,0.0,0.0,0.0,0.0,0.0,0.0,0.0,0.0,0.0,0.0,0.0,0.0,-1.1012,-1.1255,-1.1233,-1.1985,-1.2125,-1.1643,-1.1942,-1.2076,-1.2108,-1.2156,-1.2472,-1.3044,-1.3108,-1.3261,-1.3406,-1.3224,-1.3295,-1.3499,-1.3306,-1.3199,0.0,0.0,-1.2218,-1.2015,-1.1375,-1.0497,-0.9568,-0.927,-0.8489,-0.7588,-0.7324,-0.7362,-0.7506,-0.7411,-0.7718,-0.8144,-0.8651,-0.9289,-1.0024,-1.0662,-1.1178,-1.1356,-1.0475,-1.0254,-0.9955,-0.8839,-0.8543,-0.838,-0.7808,-0.7323,-0.6983,-0.6955,-0.7539,-0.8208,-0.8948,-1.0033,-1.1111,-1.1786,-1.202,-1.2205,-1.2384,-1.2526,-1.2487,-1.2178,-1.2161,-1.1882,0.0,-0.8915,-0.7692,-0.7751,-0.6964,-0.6309,-0.5788,-0.4972,-0.3597,-0.1602,-0.0533,0.0971,0.2788,0.2508,0.2551,0.2652,0.2388,0.2352,0.2538,0.0,0.2467,0.242,0.2376,0.2331,0.2286,0.2243,0.2215,0.2196,0.2234,0.2223,0.2087,0.0,0.0,0.0,0.0,0.0,0.0,0.0,0.0,0.0,0.0,-0.9265,-0.9584,-0.9876,-1.0291,0.0,0.0,0.0,0.0,0.0,0.0,-1.0623,-1.0736,-1.0209,-0.979,-0.9603,-0.9646,-0.9767,-1.0051,-1.0457,-1.1062,-1.174,-1.2014,-1.2222,-1.2363,-1.234,-1.2542,-1.2866,-1.2394,-1.2303,-1.2483,-1.1703,-1.1297,-1.1118,0.0,-1.0335,-0.9787,-0.927,-0.8765,-0.8273,-0.7702,-0.7524,-0.7592,-0.7627,-0.7806,-0.8188,-0.9382,-0.9795,-1.0197,-1.1336,-1.1954,-1.2,-1.0718,-1.0707,-1.0575,-0.8478,-0.8442,-0.8498,-0.7151,-0.6765,-0.6664,-0.6377,-0.6661,-0.7233,-0.8113,-0.904,-1.006,-1.1317,-1.1629,-1.1949,-1.2607,-1.2683,-1.2596,-1.2373,-1.2227,-1.1865,-1.1273,-1.1053,-1.049,-0.9415,-0.9411,-0.9143,-0.8697,-0.6991,-0.4279,-0.0441,-0.0356,0.0616,0.2732,0.2324,0.2282,0.2596,0.2191,0.2165,0.2507,0.0,0.0,0.2413,0.2352,0.2311,0.2279,0.2222,0.2198,0.2191,0.2232,0.2223,0.2223,0.0,0.0,0.0,0.0,0.0,0.0,0.0,0.0,0.0,0.0,-0.9731,-0.9836,0.0,0.0,0.0,0.0,0.0,0.0,0.0,0.0,0.0,-1.0561,-1.0323,-1.0012,-0.9582,-0.975,-0.9889,-0.9946,-1.0259,-1.0576,-1.1023,-1.1256,-1.1415,-1.1439,-1.1304,-1.1299,-1.1342,-1.1101,-1.1037,-1.1053,-1.0891,-1.081,-1.0777,-1.0712,0.0,0.0,-0.9118,-0.8216,-0.7531,-0.7503,-0.8178,-0.8925,-0.8494,-0.9043,-0.9964,-1.0487,-1.0775,-1.1125,-1.2056,-1.2069,-1.1635,-1.0737,-1.0712,-1.0555,-0.9118,-0.8466,-0.8049,-0.7583,-0.6931,-0.635,-0.5961,-0.6602,-0.7351,-0.7761,-0.9006,-1.032,-1.1216,-1.1817,-1.2199,-1.2526,-1.2564,-1.2509,-1.2368,-1.215,0.0,0.0,0.0,-1.0942,-0.9941,-0.9852,-0.9674,-0.9232,-0.8514,-0.624,-0.2469,-0.2451,-0.0777,0.2701,0.2596,0.2552,0.2567,0.2487,0.2455,0.2476,0.0,0.0,0.2382,0.2322,0.2281,0.2249,0.2214,0.2185,0.223,0.2224,0.2223,0.2223,0.0,0.0,0.0,0.0,0.0,0.0,0.0,-0.9445,-0.9815,-1.0514,-1.0754,-1.0868,-1.0802,-1.0936,-1.1051,0.0,0.0,0.0,0.0,0.0,0.0,0.0,0.0,0.0,-0.9259,-0.9431,-0.9602,-0.9717,0.0,-1.0296,-1.063,-1.0819,-1.0948,-1.094,-1.0858,-1.0826,-1.0818,-1.0729,-1.0688,-1.0688,-1.0688,-1.0753,-1.0834,0.0,0.0,0.0,-0.9815,-0.9188,-0.8632,-0.8739,-0.8958,-0.902,-0.8495,-0.8987,-0.9945,-1.0532,-1.1016,-1.149,-1.2358,-1.2231,-1.1731,-1.0863,-1.0528,-1.0136,-0.8645,-0.8127,-0.7815,-0.7118,-0.6642,-0.6277,-0.5959,-0.6415,-0.7069,-0.751,-0.8508,-0.9516,-1.0337,-1.1154,-1.1751,-1.201,-1.2245,-1.2395,-1.227,-1.2042,-1.1851,0.0,0.0,-1.1188,-1.0387,-1.0119,-0.9852,-0.9674,-0.918,-0.7071,-0.3322,-0.3027,-0.1021,0.2669,0.2406,0.2371,0.256,0.2319,0.2368,0.2467,0.2436,0.0,0.2372,0.2297,0.2259,0.2171,0.2195,0.2168,0.2223,0.2223,0.2223,0.2223,0.0,0.0,0.0,0.0,0.0,0.0,-0.9381,-0.972,-1.028,-1.1173,-1.1795,-1.1854,-1.1232,-1.139,-1.1451,0.0,0.0,0.0,0.0,0.0,0.0,0.0,0.0,0.0,0.0,0.0,0.0,-0.9603,-0.9922,0.0,0.0,0.0,0.0,0.0,-1.0688,-1.0688,-1.0688,-1.0688,-1.0688,0.0,0.0,-1.0842,0.0,0.0,0.0,0.0,0.0,-1.0243,-0.9799,-0.9933,-0.9541,-0.895,-0.8442,-0.8799,-0.9447,-1.0182,-1.0875,-1.1513,-1.2292,-1.2175,-1.1778,-1.0955,-1.0436,-0.9663,-0.8134,-0.7851,-0.7611,-0.6635,-0.6393,-0.628,-0.6051,-0.6232,-0.662,-0.7252,-0.7896,-0.8616,-0.9423,-1.0304,-1.1092,-1.1385,-1.1936,-1.2205,-1.2107,-1.1906,0.0,0.0,0.0,0.0,-1.0921,-1.0367,-1.0175,-1.0175,-0.9629,-0.7505,-0.3874,-0.3244,-0.1092,0.2464,0.2218,0.2276,0.2549,0.2231,0.2202,0.2458,0.2433,0.0,0.0,0.2279,0.2175,0.217,0.2178,0.2154,0.2087,0.2087,0.2019,0.1952,0.0,0.0,0.0,0.0,0.0,0.0,-0.9523,-0.9881,-1.0562,-1.1873,-1.2088,-1.221,-1.2386,-1.2442,-1.2182,0.0,0.0,0.0,0.0,0.0,0.0,0.0,0.0,0.0,0.0,0.0,0.0,-0.9603,-1.0032,0.0,0.0,0.0,0.0,0.0,0.0,-1.0688,-1.0688,-1.0688,0.0,0.0,0.0,0.0,0.0,0.0,0.0,0.0,0.0,-1.0375,-0.9828,-0.9882,-0.9526,-0.9012,-0.8998,-0.9154,-0.9468,-0.9656,-1.0268,-1.1119,-1.1727,-1.1624,-1.1282,-1.0764,-1.0345,-0.9644,-0.8354,-0.7833,-0.7531,-0.7009,-0.6547,-0.6195,-0.6042,-0.6124,-0.6384,-0.6813,-0.7317,-0.804,-0.8903,-0.9745,-1.0441,-1.1002,-1.1528,0.0,-1.1851,-1.1732,0.0,0.0,0.0,0.0,0.0,-1.0911,-1.0502,-1.0502,-0.9957,-0.7909,-0.4212,-0.3698,-0.1653,0.2006,0.2326,0.2551,0.2518,0.2439,0.2408,0.2428,0.0,0.0,0.0,0.2199,0.2175,0.217,0.2178,0.1952,0.1683,0.1683,0.1481,0.1212,0.0,0.0,0.0,0.0,0.0,0.0,-0.9773,-1.0199,-1.0814,-1.2091,-1.2602,-1.2917,-1.3051,-1.2954,-1.2467,-1.1419,-1.1403,0.0,0.0,0.0,0.0,0.0,0.0,0.0,0.0,0.0,-0.9468,-0.9746,-1.0092,0.0,0.0,0.0,0.0,0.0,0.0,-1.0688,-1.0688,-1.0688,0.0,0.0,0.0,0.0,0.0,0.0,0.0,0.0,0.0,0.0,-1.0465,-1.0911,-1.0077,-0.8933,-0.9282,-0.8947,-0.8674,-0.9963,-1.0533,-1.0901,-1.1893,-1.1466,-1.0608,-1.0272,-0.9657,-0.8842,-0.8276,-0.7612,-0.7174,-0.7045,-0.6685,-0.64,-0.6353,-0.6563,-0.672,-0.6803,-0.7104,-0.7527,-0.8059,-0.8629,-0.9312,-1.0315,-1.077,0.0,0.0,0.0,0.0,0.0,0.0,0.0,0.0,-1.1025,-1.0912,-1.0912,-1.0299,-0.821,-0.4616,-0.4028,-0.1941,0.152,0.1985,0.2123,0.2098,0.2409,0.2454,0.2397,0.0,0.0,0.0,0.2263,0.2234,0.2145,0.19,0.175,0.1548,0.1346,0.1212,0.1144,0.0,0.0,0.0,0.0,0.0,-0.9244,-0.9886,-1.0406,-1.1096,-1.213,-1.281,-1.3214,-1.3425,-1.3051,-1.2442,-1.1614,-1.1395,0.0,0.0,0.0,0.0,0.0,0.0,0.0,0.0,0.0,-0.9574,-0.9958,-1.028,-1.0618,0.0,0.0,-1.0794,-1.0688,0.0,0.0,0.0,0.0,0.0,0.0,0.0,0.0,0.0,0.0,0.0,0.0,0.0,0.0,0.0,0.0,0.0,-0.9139,-0.9499,-0.8758,-0.803,-0.9536,-1.0402,-1.0986,-1.1873,-1.1523,-1.0819,-1.054,-0.9457,-0.8348,-0.8113,-0.7483,-0.6927,-0.6964,-0.6716,-0.6508,-0.6522,-0.669,-0.686,-0.6826,-0.6975,-0.7194,-0.7531,-0.7956,-0.8573,-0.9552,0.0,-1.0503,0.0,0.0,0.0,0.0,0.0,0.0,0.0,-1.096,-1.0954,-1.0992,-1.0508,-0.854,-0.5041,-0.4436,-0.2387,0.1114,0.1493,0.1712,0.1774,0.2152,0.2351,0.2378,0.0,0.0,0.0,0.2108,0.2081,0.199,0.1625,0.1346,0.1279,0.101,0.0875,0.0808,0.0,0.0,0.0,0.0,0.0,-0.9482,-0.9737,-1.0567,-1.14,-1.2196,-1.249,-1.2848,-1.3563,-1.2621,-1.2109,-1.228,-1.1809,0.0,0.0,0.0,0.0,0.0,0.0,0.0,-0.9816,-0.951,-0.9722,-1.0293,-1.0621,-1.0911,-1.1216,-1.1216,-1.1029,-1.0688,0.0,0.0,0.0,0.0,0.0,0.0,0.0,0.0,-1.1776,0.0,0.0,0.0,0.0,0.0,0.0,0.0,0.0,0.0,0.0,-0.862,-0.7557,-0.7877,-0.9617,-1.151,-1.1565,-1.1799,-1.2013,-1.1868,-1.0048,-0.833,-0.7947,-0.7483,-0.7051,-0.6818,-0.65,-0.6231,-0.6358,-0.6469,-0.656,-0.6775,-0.6929,-0.7155,-0.7541,-0.802,-0.8403,0.0,0.0,-0.9916,-1.059,0.0,0.0,0.0,0.0,0.0,0.0,-1.0628,-1.0617,-1.0737,-1.0514,-0.8714,-0.526,-0.478,-0.2852,0.0628,0.1086,0.1466,0.1774,0.1828,0.203,0.0,0.0,0.0,0.0,0.1877,0.1719,0.1647,0.1286,0.0875,0.0539,0.0539,0.0269,0.0067,0.0,0.0,0.0,0.0,0.0,0.0,-1.022,-1.0532,-1.102,-1.1843,-1.2096,-1.2475,-1.3189,-1.2743,-1.2515,-1.2816,-1.1906,0.0,0.0,0.0,0.0,0.0,0.0,-0.9712,-0.9217,-0.951,-0.9896,-1.0301,-1.058,-1.0985,-1.1403,-1.1167,-1.0988,-1.0875,-1.0753,-1.0688,0.0,-1.0688,0.0,0.0,0.0,-1.1614,-1.1776,0.0,0.0,0.0,0.0,0.0,0.0,0.0,0.0,0.0,0.0,0.0,0.0,-0.7589,-0.8191,-0.9297,-1.0212,-1.0085,-0.9584,-0.9437,-0.8741,-0.8041,-0.7584,-0.7377,-0.7152,-0.684,-0.6786,-0.6728,-0.6656,-0.6856,-0.7,-0.7104,-0.7182,-0.7359,0.0,0.0,0.0,-0.8869,-0.9804,-1.0625,0.0,0.0,0.0,0.0,0.0,0.0,0.0,-1.0422,-1.0405,-1.0606,-0.9244,-0.7489,-0.5198,-0.3859,-0.2029,0.023,0.0616,0.0841,0.0978,0.1273,0.0,0.0,0.0,0.0,0.0,0.2,0.1915,0.1626,0.1214,0.101,0.0875,0.0337,0.0269,0.0336,0.0,0.0,0.0,0.0,0.0,0.0,-1.0349,-1.0587,-1.0882,-1.1516,-1.1663,-1.2052,-1.2905,-1.2564,-1.2491,-1.3043,-1.2077,0.0,0.0,0.0,0.0,0.0,-1.0145,-0.9727,-0.9349,-0.9653,-1.0077,-1.0546,-1.0973,-1.145,-1.1801,-1.1646,-1.1386,-1.1062,-1.0948,-1.0818,0.0,-1.0834,0.0,0.0,-1.15,-1.1671,-1.1776,0.0,0.0,0.0,0.0,0.0,0.0,0.0,0.0,0.0,0.0,0.0,0.0,0.0,-0.7509,-0.7901,-0.9383,-0.9467,-0.9051,-0.898,-0.8419,-0.7811,-0.7434,-0.7319,-0.7176,-0.6866,-0.6828,-0.6823,-0.6747,-0.6893,-0.7062,-0.7182,-0.7317,-0.7455,0.0,0.0,0.0,-0.8558,0.0,0.0,0.0,0.0,0.0,0.0,0.0,0.0,0.0,0.0,-1.0182,-1.028,-0.8558,-0.6818,-0.5136,-0.3409,-0.169,0.0,0.0228,0.0453,0.0595,0.0888,0.0,0.0,0.0,0.0,0.0,0.1915,0.1765,0.1346,0.101,0.0808,0.0606,0.0202,0.0135,0.0336,0.0,0.0,0.0,0.0,0.0,0.0,0.0,-1.0675,-1.1005,-1.1159,-1.12,-1.1598,-1.2629,-1.2166,-1.2117,-1.2962,-1.2288,0.0,0.0,0.0,0.0,-1.1158,-1.0347,-0.9921,-1.0126,-1.0018,-1.0318,-1.0929,-1.1727,-1.2154,-1.2345,-1.2499,-1.2101,-1.1281,-1.1256,-1.1037,-1.0712,-1.107,0.0,-1.1256,-1.163,-1.1776,0.0,0.0,0.0,0.0,0.0,0.0,0.0,0.0,0.0,0.0,0.0,0.0,0.0,0.0,0.0,0.0,0.0,-0.9625,-0.9777,-0.9777,-0.872,-0.7632,-0.7453,-0.7316,0.0,-0.6839,-0.6714,-0.6649,-0.6654,-0.6752,-0.6872,-0.7002,-0.7301,0.0,0.0,-0.7627,0.0,0.0,-0.9144,0.0,0.0,0.0,0.0,0.0,0.0,0.0,0.0,0.0,-0.9943,-0.9905,-0.8206,-0.6594,-0.4987,-0.3268,-0.1588,-0.0076,-0.0075,0.0149,0.0519,0.0512,0.0,0.0,0.0,0.0,0.0,0.1556,0.1346,0.101,0.0673,0.0337,0.0,0.0,0.0,0.0067,0.0,0.0,0.0,0.0,0.0,0.0,0.0,0.0,0.0,0.0,-1.094,-1.1232,-1.176,-1.1792,-1.1971,0.0,0.0,0.0,0.0,0.0,0.0,-1.087,-1.0628,-1.0433,-1.0241,-1.0465,-1.0899,-1.1418,-1.1736,-1.2162,-1.271,-1.2613,-1.2304,-1.1825,-1.1557,-1.1159,-1.0712,-1.107,0.0,-1.1256,-1.163,-1.1776,0.0,0.0,0.0,0.0,-1.1776,-1.1776,0.0,0.0,0.0,0.0,0.0,0.0,0.0,0.0,-0.7587,-0.744,-0.7457,0.0,-0.7705,-0.7705,-0.7426,-0.7094,0.0,-0.6959,-0.6953,-0.6714,-0.679,-0.6926,-0.7067,-0.7106,-0.7143,-0.7361,0.0,-0.7423,-0.7291,0.0,0.0,-0.8677,0.0,0.0,0.0,0.0,0.0,0.0,0.0,0.0,0.0,0.0,-1.0265,-1.0532,-0.7502,-0.5528,-0.4859,-0.2336,-0.0825,-0.0442,-0.0734,-0.0657,-0.0289,-0.0285,0.0,0.0,0.0,0.0,0.0811,0.1079,0.101,0.0606,0.0539,0.0471,0.0337,0.0067,0.0135,0.0335,0.0,0.0,0.0,0.0,0.0,0.0,0.0,0.0,0.0,0.0,-1.085,-1.1102,-1.1459,-1.1663,-1.1922,0.0,0.0,0.0,0.0,0.0,0.0,-1.1232,-1.0907,-1.0744,-1.0654,-1.0829,-1.1202,-1.1721,-1.2099,-1.249,-1.2954,-1.2856,-1.2532,-1.2012,-1.1565,-1.1118,-1.0712,-1.107,-1.1175,-1.1135,-1.15,0.0,0.0,0.0,0.0,0.0,-1.1776,-1.1776,0.0,-1.1776,-1.1776,-1.1635,0.0,0.0,0.0,0.0,-0.7711,-0.7319,-0.6859,-0.6926,-0.7149,-0.7149,-0.7105,-0.7029,-0.6893,-0.6883,-0.6844,-0.666,-0.6768,-0.6921,-0.698,-0.7139,-0.727,-0.7404,-0.7397,0.0,0.0,0.0,-0.8031,-0.8488,0.0,0.0,0.0,0.0,0.0,0.0,0.0,0.0,0.0,0.0,-0.9968,-0.8972,-0.657,-0.5268,-0.5108,-0.1921,-0.0293,-0.0362,-0.0503,-0.05,-0.0355,-0.0282,0.0,0.0,0.0,0.0,0.0539,0.0943,0.0875,0.0471,0.0471,0.0404,0.0269,0.0067,0.0135,0.0268,0.0,0.0,0.0,0.0,0.0,0.0,0.0,0.0,0.0,0.0,0.0,0.0,0.0,0.0,0.0,0.0,0.0,0.0,0.0,0.0,-1.1646,-1.1809,-1.1232,-1.1004,-1.1185,-1.1185,-1.1421,-1.1894,-1.2548,-1.2962,-1.3133,-1.3189,-1.2791,-1.2012,-1.1549,-1.1118,-1.0761,-1.111,-1.1167,-1.1037,-1.1395,0.0,0.0,0.0,0.0,0.0,0.0,0.0,0.0,-1.1583,-1.1651,-1.1638,-1.1005,0.0,0.0,0.0,0.0,0.0,-0.6741,-0.7078,-0.7481,-0.7279,-0.7176,-0.7155,-0.7155,-0.6915,-0.6719,-0.6638,-0.6714,-0.6812,-0.685,-0.7035,-0.723,-0.7366,0.0,0.0,-0.7814,-0.7931,-0.8095,0.0,0.0,0.0,0.0,0.0,0.0,0.0,0.0,0.0,0.0,0.0,0.0,-0.711,-0.5827,-0.5099,-0.4991,-0.1728,-0.0071,-0.0071,-0.0141,-0.014,-0.007,-0.007,0.0,0.0,0.0,0.0,0.0471,0.0808,0.0741,0.0404,0.0404,0.0269,0.0,0.0,0.0,0.0,0.0,0.0,0.0,0.0,0.0,0.0,0.0,0.0,0.0,0.0,0.0,0.0,0.0,0.0,0.0,0.0,0.0,0.0,0.0,-1.2077,-1.1963,-1.1987,-1.1587,-1.1481,-1.1667,-1.1675,-1.1788,-1.2007,-1.2735,-1.3149,-1.3336,-1.3636,-1.3149,-1.2028,-1.1877,-1.1541,-1.1004,-1.1305,-1.1354,-1.1216,-1.1581,0.0,0.0,0.0,0.0,0.0,0.0,0.0,0.0,-1.0603,-1.1001,-1.136,-1.0177,0.0,0.0,0.0,0.0,0.0,-0.7026,-0.7731,-0.8276,-0.7176,-0.6872,-0.6855,-0.6855,-0.6665,-0.6468,-0.66,-0.6714,-0.6861,-0.7117,-0.7214,-0.7383,-0.7611,0.0,-0.8107,0.0,0.0,0.0,0.0,0.0,0.0,0.0,0.0,0.0,0.0,0.0,0.0,0.0,0.0,0.0,-0.8263,-0.6232,-0.4496,-0.3317,-0.1409,-0.0492,-0.0492,-0.0764,-0.0758,-0.0482,-0.0477,-0.0271,0.0,0.0,0.0067,0.0067,0.0135,0.0135,0.0067,0.0067,0.0067,0.0,0.0,0.0,0.0,0.0,0.0,0.0,0.0,0.0,0.0,0.0,0.0,0.0,0.0,0.0,0.0,0.0,0.0,0.0,0.0,0.0,0.0,0.0,-1.2077,-1.2077,-1.2174,-1.1922,-1.1784,-1.1776,-1.1963,-1.2288,-1.2751,-1.3181,-1.3579,-1.3937,-1.3612,-1.2954,-1.2028,-1.1931,-1.1598,-1.1118,-1.1281,-1.1248,-1.111,0.0,0.0,0.0,0.0,0.0,0.0,0.0,0.0,0.0,0.0,-1.0201,-1.0638,-0.9769,0.0,0.0,0.0,0.0,0.0,-0.695,-0.7268,-0.7656,-0.7248,-0.7669,-0.8102,-0.7637,-0.729,-0.7018,-0.6953,-0.6997,-0.7067,-0.7307,-0.7502,-0.773,-0.8033,0.0,-0.8533,0.0,0.0,0.0,0.0,0.0,0.0,0.0,0.0,0.0,0.0,0.0,0.0,0.0,0.0,0.0,0.0,-0.5526,-0.3873,-0.1386,-0.0619,-0.0275,-0.0277,-0.041,-0.0408,-0.0272,-0.027,-0.0135,0.0,0.0,0.0,0.0,0.0,0.0,0.0,0.0,0.0,0.0,0.0,0.0,0.0,0.0,0.0,0.0,0.0,0.0,0.0,0.0,0.0,0.0,0.0,0.0,0.0,0.0,0.0,0.0,0.0,0.0,0.0,0.0,-1.1634,-1.1845,-1.2239,-1.2069,-1.1963,-1.1963,-1.2272,-1.2718,-1.3303,-1.3701,-1.4002,-1.4416,-1.3644,-1.2856,-1.2093,-1.1955,-1.1671,-1.1289,-1.133,-1.1051,-1.064,0.0,0.0,0.0,0.0,0.0,0.0,0.0,0.0,0.0,0.0,0.0,0.0,0.0,0.0,0.0,-0.8412,-0.7889,-0.7629,-0.6878,-0.6873,-0.7203,-0.7473,-0.815,-0.8753,-0.8386,-0.7905,-0.7535,-0.7578,-0.747,-0.7473,-0.7573,-0.7796,0.0,-0.8423,-0.8788,0.0,0.0,0.0,0.0,0.0,0.0,0.0,0.0,0.0,0.0,0.0,0.0,0.0,0.0,0.0,0.0,0.0,-0.4771,-0.3341,0.0,0.0,0.0,0.0,0.0,0.0,0.0,0.0,0.0,0.0,0.0,0.0,0.0,0.0,0.0,0.0,0.0,0.0,0.0,0.0,0.0,0.0,0.0,0.0,0.0,0.0,0.0,0.0,0.0,0.0,0.0,0.0,0.0,0.0,0.0,0.0,0.0,0.0,0.0,0.0,-1.0497,-1.0642,-1.1101,-1.199,-1.189,-1.202,-1.2563,-1.2694,-1.2905,-1.3116,-1.4131,-1.4562,-1.4424,-1.4026,-1.3287,-1.2288,-1.2272,-1.1971,-1.1492,-1.1663,-1.0932,-0.9592,-0.9738,0.0,0.0,0.0,0.0,0.0,0.0,0.0,0.0,0.0,0.0,0.0,0.0,0.0,-0.9265,-0.8277,-0.764,-0.7196,-0.6881,-0.7492,-0.8078,-0.7627,-0.7352,-0.7391,-0.8334,-0.8019,-0.7676,-0.8225,-0.8155,-0.8021,-0.7861,-0.8046,-0.8307,-0.8798,-0.9062,0.0,0.0,0.0,0.0,0.0,0.0,0.0,0.0,0.0,0.0,0.0,0.0,0.0,0.0,0.0,0.0,0.0,0.0,-0.2959,0.0,0.0,0.0,0.0,0.0,0.0,0.0,0.0,0.0,0.0,0.0,0.0,0.0,0.0,0.0,0.0,0.0,0.0,0.0,0.0,0.0,0.0,0.0,0.0,0.0,0.0,0.0,0.0,0.0,0.0,0.0,0.0,0.0,0.0,0.0,0.0,0.0,0.0,0.0,0.0,-0.9242,-0.9373,-0.9875,-1.0853,-1.0891,-1.141,-1.2393,-1.2905,-1.353,-1.4253,-1.4895,-1.4944,-1.4416,-1.3839,-1.3173,-1.245,-1.2125,-1.1866,-1.1611,-1.0718,-1.0028,-0.9392,-0.8491,-0.6951,0.0,0.0,0.0,0.0,0.0,0.0,0.0,0.0,-0.7038,-0.83,-0.8204,-0.8422,-0.8603,-0.8149,-0.764,-0.7109,-0.6653,-0.7387,-0.8116,-0.7494,-0.7698,-0.8166,-0.8651,-0.8546,-0.8361,-0.859,-0.8562,-0.8437,-0.8247,-0.853,-0.8787,-0.8965,0.0,0.0,0.0,0.0,0.0,0.0,0.0,0.0,0.0,0.0,0.0,0.0,0.0,0.0,0.0,0.0,0.0,0.0,0.0,-0.2887,0.0,0.0,0.0,0.0,0.0,0.0,0.0,0.0,0.0,0.0,0.0,0.0,0.0,0.0,0.0,0.0,0.0,0.0,0.0,0.0,0.0,0.0,0.0,0.0,0.0,0.0,0.0,0.0,0.0,0.0,0.0,0.0,0.0,0.0,0.0,0.0,0.0,0.0,0.0,0.0,-0.7858,-0.8107,-0.8675,-0.97,-1.0144,-1.0858,-1.1924,-1.2845,-1.3725,-1.4627,-1.5049,-1.4976,-1.4416,-1.3644,-1.3059,-1.2621,-1.2036,-1.1627,-1.1172,-0.984,-0.8791,-0.7914,-0.6598,-0.5015,0.0,0.0,0.0,0.0,0.0,0.0,0.0,0.0,-0.6042,-0.7477,-0.7775,-0.8029,-0.8167,-0.7816,-0.7698,-0.7516,-0.7008,-0.7475,-0.8041,-0.7581,-0.7844,-0.8307,-0.8684,-0.8774,-0.8796,-0.9101,-0.8986,-0.8769,-0.8568,-0.8769,0.0,0.0,0.0,0.0,0.0,0.0,0.0,0.0,0.0,0.0,0.0,0.0,0.0,0.0,0.0,0.0,0.0,0.0,0.0,0.0,0.0,0.0,0.0,0.0,0.0,0.0,0.0,0.0,0.0,0.0,0.0,0.0,0.0,0.0,0.0,0.0,0.0,0.0,0.0,0.0,0.0,0.0,0.0,0.0,0.0,0.0,0.0,0.0,0.0,0.0,0.0,0.0,-0.601,-0.593,-0.5176,0.0,0.0,0.0,0.0,0.0,-0.5442,-0.603,-0.6381,-0.6672,-0.739,-0.8613,-0.9628,-1.0479,-1.1171,-1.2433,-1.336,-1.3912,-1.444,-1.4603,-1.4399,-1.3506,-1.2994,-1.2734,-1.2093,-1.1134,-1.0025,-0.913,-0.7231,-0.4744,-0.4028,-0.2648,-0.0902,0.0,0.0,0.0,0.0,0.0,0.0,0.0,-0.6061,-0.7234,-0.7507,-0.7769,-0.7895,-0.7341,-0.784,-0.8486,-0.7954,-0.7796,-0.7871,-0.8036,-0.766,-0.7473,-0.8367,-0.859,-0.8861,-0.9818,-0.9449,-0.8847,-0.8796,-0.8677,0.0,0.0,0.0,0.0,0.0,0.0,0.0,0.0,0.0,0.0,0.0,0.0,0.0,0.0,0.0,0.0,0.0,0.0,0.0,0.0,0.0,0.0,0.0,0.0,0.0,0.0,0.0,0.0,0.0,0.0,0.0,0.0,0.0,0.0,0.0,0.0,0.0,0.0,0.0,0.0,0.0,0.0,0.0,0.0,0.0,0.0,0.0,0.0,0.0,0.0,0.0,0.0,-0.5115,-0.4946,-0.475,0.0,0.0,0.0,0.0,0.0,0.0,-0.495,-0.5039,-0.5164,-0.5794,-0.7039,-0.7491,-0.826,-0.9361,-1.087,-1.2612,-1.4464,-1.4245,-1.3985,-1.3669,-1.3027,-1.2564,-1.2201,-1.1805,-1.0674,-0.9068,-0.7678,-0.5993,-0.4027,-0.2689,-0.1714,-0.0917,0.0,0.0,0.0,0.0,0.0,0.0,0.0,0.0,0.0,-0.6265,-0.6765,-0.7176,-0.7196,-0.7277,-0.7235,-0.6896,-0.7612,-0.827,-0.7517,-0.8131,-0.8809,-0.8535,-0.8595,-0.8916,-0.9628,-0.9465,-0.9166,-0.9046,-0.8997,0.0,0.0,0.0,0.0,0.0,0.0,0.0,0.0,0.0,0.0,0.0,0.0,0.0,0.0,0.0,0.0,0.0,0.0,0.0,0.0,0.0,0.0,0.0,0.0,0.0,0.0,0.0,0.0,0.0,0.0,0.0,0.0,0.0,0.0,0.0,0.0,0.0,0.0,0.0,0.0,0.0,0.0,0.0,0.0,0.0,0.0,0.0,0.0,0.0,0.0,0.0,0.0,-0.4351,-0.415,-0.396,-0.3905,0.0,0.0,0.0,0.0,-0.3957,-0.4021,-0.4273,-0.4296,-0.4669,-0.5564,-0.6111,-0.7028,-0.8369,-0.9614,-1.0951,-1.247,-1.3216,-1.3433,-1.3149,-1.2824,-1.2515,-1.2184,-1.1292,-0.986,-0.8116,-0.6118,-0.4286,-0.2647,-0.1418,-0.0799,-0.061,0.0,0.0,0.0,0.0,0.0,0.0,0.0,0.0,0.0,-0.5231,-0.5722,-0.6174,-0.7047,-0.7303,-0.7298,-0.7558,-0.8036,-0.8429,-0.7991,-0.8427,-0.8916,-0.864,-0.8921,-0.9296,-0.9661,-0.9546,-0.9356,-0.9285,-0.916,0.0,0.0,0.0,0.0,0.0,0.0,0.0,0.0,0.0,0.0,0.0,0.0,0.0,0.0,0.0,0.0,0.0,0.0,0.0,0.0,0.0,0.0,0.0,0.0127,0.0191,0.0192,0.0318,0.032,0.0194,0.0064,0.0,0.0,0.0,0.0,0.0,0.0,0.0,0.0,0.0,0.0,0.0,0.0,0.0,0.0,0.0,0.0,-0.4792,-0.4784,0.0,0.0,0.0,0.0,-0.3642,-0.3428,-0.3031,-0.2805,0.0,0.0,0.0,0.0,0.0,0.0,-0.3783,-0.3892,-0.4039,-0.4332,-0.526,-0.6469,-0.7921,-0.8448,-0.8747,-0.8886,-1.1498,-1.264,-1.2473,-1.2423,-1.2287,-1.2024,-1.0385,-0.8654,-0.6837,-0.4406,-0.2452,-0.0859,-0.0246,0.0,0.0,0.0,0.0,0.0,0.0,0.0,0.0,0.0,0.0,0.0,-0.4282,-0.4696,-0.5174,-0.6822,-0.7561,-0.8083,-0.8944,-0.8711,-0.835,-0.8925,-0.8597,-0.8263,-0.8755,-0.9305,-0.9775,-0.9786,-0.9644,-0.9508,-0.9476,-0.9204,0.0,0.0,0.0,0.0,0.0,0.0,0.0,0.0,0.0,0.0,0.0,0.0,0.0,0.0,0.0,0.0,0.0,0.0,0.0,0.0,0.0,0.0,0.0062,0.037,0.0497,0.0,0.087,0.0808,0.0503,0.0189,0.0,0.0,0.0,0.0,0.0,0.0,0.0,0.0,0.0,0.0,0.0,0.0,0.0,0.0,0.0,0.0,-0.492,-0.4796,0.0,0.0,0.0,0.0,0.0,-0.2837,-0.2762,0.0,0.0,0.0,0.0,0.0,0.0,0.0,-0.2959,-0.3189,-0.346,-0.3899,-0.4667,-0.5683,-0.6905,-0.6884,-0.7296,-0.8122,-0.9431,-0.9966,-0.9826,-0.9619,-0.9139,-0.8503,-0.776,-0.6053,-0.3844,-0.3066,-0.174,-0.0175,-0.0059,0.0,0.0,0.0,0.0,0.0,0.0,0.0,0.0,0.0,0.0,0.0,-0.2723,-0.3904,-0.5162,-0.5513,-0.6385,-0.7229,-0.7216,-0.7415,-0.7727,-0.8111,-0.8414,-0.8677,-0.883,-0.9052,-0.9313,-0.94,-0.9601,-0.9677,-0.9394,0.0,0.0,0.0,0.0,0.0,0.0,0.0,0.0,0.0,0.0,0.0,0.0,0.0,0.0,0.0,0.0,0.0,0.0,0.0,0.0,0.0,0.0,0.0123,0.037,0.0494,0.0618,0.0,0.0989,0.0799,0.0488,0.0432,0.0249,0.0,0.0,0.0,0.0,0.0,0.0,0.0,0.0,0.0,0.0,0.0,0.0,0.0,0.0,0.0,0.0,0.0,0.0,0.0,0.0,0.0,0.0,0.0,0.0,0.0,0.0,0.0,0.0,0.0,0.0,0.0,-0.2694,-0.2692,-0.2902,-0.3352,-0.3796,-0.4423,-0.5302,-0.5301,-0.5574,-0.6068,-0.6717,-0.7485,-0.8443,-0.8319,-0.7928,-0.7243,-0.6166,-0.4718,-0.2978,-0.2009,-0.0953,0.0,0.0,0.0,0.0,0.0,0.0,0.0,0.0,0.0,0.0,0.0,0.0,0.0,0.0,0.0,-0.3657,-0.4449,-0.5302,-0.606,-0.6472,-0.699,-0.747,-0.8002,-0.8497,-0.8872,-0.8868,-0.8976,-0.9133,-0.9133,-0.9329,-0.9443,0.0,0.0,0.0,0.0,0.0,0.0,0.0,0.0,0.0,0.0,0.0,0.0,0.0,0.0,0.0,0.0,0.0,0.0,0.0,0.0,0.0,0.0,-0.0242,0.0302,0.0423,0.0785,0.1026,0.1208,0.1329,0.1142,0.0656,0.0421,0.0183,0.0,0.0,0.0,0.0,0.0,0.0,0.0,0.0,0.0,0.0,0.0,0.0,0.0,0.0,0.0,0.0,0.0,0.0,0.0,0.0,0.0,0.0,0.0,0.0,0.0,0.0,0.0,0.0,0.0,0.0,0.0,-0.2356,-0.2251,-0.234,-0.2821,-0.2981,-0.3252,-0.3754,-0.4022,-0.4136,-0.4041,-0.4316,-0.5311,-0.7055,-0.7117,-0.6895,-0.6244,-0.4754,-0.357,-0.2575,-0.1089,-0.0296,0.0,0.0,0.0,0.0,0.0,0.0,0.0,0.0,0.0,0.0,0.0,0.0,0.0,0.0,0.0,-0.1904,-0.344,-0.4193,-0.4774,-0.5813,-0.6604,-0.7289,-0.8124,-0.8622,-0.8798,-0.8814,-0.8965,-0.9008,-0.8841,-0.8933,0.0,0.0,0.0,0.0,0.0,0.0,0.0,0.0,0.0,0.0,0.0,0.0,0.0,0.0,0.0,0.0,0.0,0.0,0.0,0.0,0.0,-0.1646,0.0,0.0294,0.0471,0.0589,0.112,0.1414,0.1473,0.1762,0.1528,0.0883,0.0409,0.0118,0.0,0.0,0.0,0.0,0.0,0.0,0.0,0.0,0.0,0.0,0.0,0.0,0.0,0.0,0.0,0.0,0.0,0.0,0.0,0.0,0.0,0.0,0.0,-0.1215,-0.1343,0.0,0.0,-0.1683,-0.1458,-0.1402,-0.1346,-0.1177,0.0,0.0,-0.2469,-0.2949,-0.3231,-0.3196,-0.3605,-0.3777,-0.3816,-0.3819,-0.3883,-0.3993,-0.4209,-0.3905,-0.3077,-0.2328,-0.1406,-0.0413,-0.0172,-0.0055,0.0,0.0,0.0,0.0,0.0,0.0,0.0,0.0,0.0,0.0,0.0,0.0,0.0,0.0,0.0,-0.1667,-0.2023,-0.2813,-0.3693,-0.4079,-0.5297,-0.6769,-0.7938,-0.8378,-0.8513,-0.8611,-0.8649,-0.8655,0.0,0.0,0.0,0.0,0.0,0.0,0.0,0.0,0.0,0.0,0.0,0.0,0.0,0.0,0.0,0.0,0.0,0.0,0.0,0.0,0.0,0.0,-0.2821,-0.1353,0.0294,0.0353,0.0707,0.1237,0.1355,0.1532,0.1826,0.18,0.1511,0.0883,0.0789,0.0506,0.0,0.0,0.0,0.0,0.0,0.0,0.0,0.0,0.0,0.0,0.0,0.0,0.0,0.0,0.0,0.0,0.0,0.0,0.0,0.0,0.0,0.0,0.0,0.0,-0.1191,-0.0844,-0.1235,-0.1402,-0.1121,-0.1065,-0.0953,-0.0617,-0.1073,-0.1485,-0.1799,-0.2092,-0.2456,-0.2905,-0.2907,-0.293,-0.2924,-0.2845,-0.2849,-0.2861,-0.2601,-0.2296,-0.1954,-0.1266,-0.0611,0.0,0.0,0.0,0.0,0.0,0.0,0.0,0.0,0.0,0.0,0.0,0.0,0.0,0.0,0.0,0.0,-0.0151,0.0,0.0,0.0,-0.152,-0.2487,-0.3346,-0.4277,-0.517,-0.576,-0.6618,-0.729,-0.7275,-0.7913,-0.8475,-0.8405,0.0,0.0,0.0,0.0,0.0,0.0,0.0,0.0,0.0,0.0,0.0,0.0,0.0,0.0,0.0,0.0,0.0,0.0,0.0,0.0,-0.2858,-0.1602,-0.0513,0.0396,0.0565,0.0957,0.1562,0.1632,0.1704,0.1835,0.1992,0.1643,0.0904,0.1049,0.0724,0.0,0.0,0.0,0.0,0.0,0.0,0.0,0.0,0.0,0.0,0.0,0.0,0.0,0.0,0.0,0.0,0.0,0.0,0.0,0.0,0.0,0.0,0.0,0.0,-0.0971,-0.0457,0.0,0.0,0.0,-0.078,-0.0668,-0.0443,-0.0609,-0.0949,-0.1249,-0.142,-0.182,-0.2511,-0.2456,-0.2387,-0.23,-0.2244,-0.2253,-0.2255,-0.1574,-0.1312,-0.1323,-0.0766,-0.0307,0.0,0.0,0.0,0.0,0.0,0.0,0.0,0.0,0.0,0.0,0.0,0.0,0.0,0.0,0.0,0.0,0.0,0.0,0.0,0.0,0.0,-0.1396,-0.2636,-0.3236,-0.3605,-0.3976,-0.4915,-0.5781,-0.5822,0.0,-0.7303,0.0,0.0,0.0,0.0,0.0,0.0,0.0,0.0,0.0,0.0,0.0,0.0,0.0,0.0,0.0,0.0,0.0,0.0,0.0,0.0,0.0,-0.178,-0.0666,0.0165,0.049,0.0761,0.1134,0.1704,0.1788,0.1816,0.1783,0.2071,0.1783,0.099,0.1204,0.0885,0.0113,0.0055,0.0,0.0,0.0,0.0,0.0,0.0,0.0,0.0,0.0,0.0,0.0,0.0,0.0,0.0,0.0,0.0,0.0,0.0,0.0,0.0,0.0,0.0,-0.0449,-0.0393,-0.073,-0.078,-0.0439,-0.0439,-0.0436,-0.0375,-0.0428,-0.0592,-0.0931,-0.148,0.0,-0.1853,-0.2416,-0.2697,-0.2694,-0.2356,-0.2104,-0.1886,-0.1223,-0.0816,-0.0671,-0.0571,-0.0306,0.0,0.0,0.0,0.0,0.0,0.0,0.0,0.0,0.0,0.0,0.0,0.0,0.0,0.0,0.0,0.0,0.0,0.0,0.0,0.0,0.0,0.0,-0.1608,-0.2119,-0.2635,-0.3653,-0.4082,-0.4261,0.0,0.0,0.0,0.0,0.0,0.0,0.0,0.0,0.0,0.0,0.0,0.0,0.0,0.0,0.0,0.0,0.0,0.0,0.0,0.0,0.0,0.0,0.0,0.0,-0.1804,-0.0647,0.0267,0.0855,0.0908,0.1174,0.1704,0.1788,0.1805,0.1807,0.206,0.185,0.1288,0.1267,0.0976,0.0375,0.0107,0.0,0.0,0.0,0.0,0.0,0.0,0.0,0.0,0.0,0.0,0.0,0.0,0.0,0.0,0.0,0.0,0.0,0.0,0.0,0.0,0.0,0.0,0.0,0.0,-0.0389,-0.0441,-0.0164,-0.0164,-0.0165,-0.0165,-0.0331,-0.0442,-0.0556,-0.1,-0.1282,-0.1458,-0.1683,-0.1795,-0.1795,-0.1514,-0.1324,-0.1329,-0.0664,-0.0369,-0.0509,-0.0312,-0.0122,0.0,0.0,0.0,0.0,0.0,0.0,0.0,0.0,0.0,0.0,0.0,0.0,0.0,0.0,0.0,0.0,0.0,0.0,0.0,0.0,-0.0089,-0.0226,-0.0566,-0.0729,-0.0903,-0.1318,-0.2124,-0.2803,-0.2807,-0.3514,0.0,0.0,0.0,0.0,0.0,0.0,0.0,0.0,0.0,0.0,0.0,0.0,0.0,0.0,0.0,0.0,0.0,0.0,0.0,0.0,0.0,0.0,-0.0645,-0.0214,0.0265,0.0839,0.0839,0.1101,0.1677,0.1897,0.1925,0.1804,0.2091,0.1876,0.1324,0.1316,0.0976,0.0373,0.0105,0.0,0.0,0.0,0.0,0.0,0.0,0.0,0.0,0.0,0.0,0.0,0.0,0.0,0.0,0.0,0.0,0.0,0.0,0.0,0.0,0.0,0.0,0.0,0.0,0.0,-0.022,0.0,0.0,0.0,0.0,-0.0165,-0.0332,-0.0389,-0.0612,-0.0892,-0.1177,-0.1177,-0.1177,-0.1177,-0.0892,-0.0738,-0.0766,-0.0236,-0.0119,-0.0306,-0.0121,0.0,0.0,0.0,0.0,0.0,0.0,0.0,0.0,0.0,0.0,0.0,0.0,0.0,0.0,0.0,0.0,0.0,0.0,0.0,0.0,0.0,0.0,0.0,0.0,0.0,0.0,0.0,-0.0686,-0.1361,-0.1337,0.0,0.0,0.0,0.0,0.0,0.0,0.0,0.0,0.0,0.0,0.0,0.0,0.0,0.0,0.0,0.0,0.0,0.0,0.0,0.0,0.0,0.0,0.0,0.0,0.0,0.0261,0.0772,0.0978,0.1287,0.1647,0.1863,0.1891,0.1774,0.1946,0.1848,0.1476,0.1367,0.1032,0.0537,0.0266,0.0104,0.0,0.0,0.0,0.0,0.0,0.0,0.0,0.0,0.0,0.0,0.0,0.0,0.0,0.0,0.0,0.0,0.0,0.0,0.0,0.0,0.0,0.0,0.0,0.0,0.0,0.0,0.0,0.0,0.0,0.0,-0.0108,-0.0383,-0.0384,-0.0552,-0.0897,-0.0897,-0.0897,-0.0897,-0.0552,-0.0393,-0.0412,-0.0114,0.0,0.0,0.0,0.0,0.0,0.0,0.0,0.0,0.0,0.0,0.0,0.0,0.0,0.0,0.0,0.0,0.0,0.0,0.0,0.0,0.0,0.0,0.0,0.0,0.0,0.0,0.0,0.0,0.0,0.0,0.0,0.0,0.0,0.0,0.0,0.0,0.0,0.0,0.0,0.0,0.0,0.0,0.0,0.0,0.0,0.0,0.0,0.0,0.0,0.0,0.0,0.0,0.0,0.0,0.0,0.0,0.0,0.0,0.0252,0.0808,0.1314,0.1617,0.1617,0.1647,0.1714,0.1715,0.1692,0.172,0.1805,0.1476,0.1148,0.0875,0.0547,0.0268,0.0,0.0,0.0,0.0,0.0,0.0,0.0,0.0,0.0,0.0,0.0,-0.0061,0.0,0.0,0.0,0.0,0.0,0.0,0.0,0.0,0.0,0.0,0.0,0.0,0.0,0.0,0.0,0.0,0.0,0.0,-0.0055,-0.0111,-0.0278,-0.0447,-0.0561,-0.0785,-0.0897,-0.0897,-0.0552,-0.0388,-0.0398,-0.0113,0.0,0.0,0.0,0.0,0.0,0.0,0.0,0.0,0.0,0.0,0.0,0.0,0.0,0.0,0.0,0.0,0.0,0.0,0.0,0.0,0.0,0.0,0.0,0.0,0.0,0.0,0.0,0.0,0.0,0.0,0.0,0.0,0.0,0.0,0.0,0.0,0.0,0.0,0.0,0.0,0.0,0.0,0.0,0.0,0.0,0.0,0.0,0.0,0.0,0.0,0.0,0.0,0.0,0.0,0.0,0.0,0.0,0.0355,0.0656,0.0808,0.1314,0.1617,0.1617,0.1625,0.1651,0.1693,0.17,0.1731,0.1782,0.143,0.1156,0.089,0.0543,0.0269,0.0,0.0,0.0,0.0,0.0,0.0,0.0,0.0,0.0,0.0,0.0,0.0,0.0,0.0,0.0,0.0,0.0,0.0,-0.0059,0.0,0.0,0.0,-0.0236,-0.0059,0.0,0.0,0.0,0.0,0.0,0.0,0.0,0.0,-0.0168,-0.0224,-0.0224,-0.0449,-0.0503,-0.05,-0.033,-0.0219,-0.022,-0.0055,-0.0055,-0.0165,-0.0056,-0.0055,-0.0164,-0.0053,0.0,0.0,0.0,0.0,0.0,0.0,0.0,0.0,0.0,0.0,0.0,0.0,0.0,0.0,0.0,0.0,0.0,0.0,0.0,0.0,0.0,0.0,0.0,0.0,0.0,0.0,0.0,0.0,0.0,0.0,0.0,0.0,0.0,0.0,0.0,0.0,0.0,0.0,0.0,0.0,0.0,0.0,0.0,0.0,0.0,0.0,0.0,0.0,0.0,0.0,0.0,0.0505,0.0808,0.0808,0.1314,0.1617,0.1617,0.1617,0.1635,0.1667,0.1681,0.1711,0.1757,0.1423,0.1159,0.0896,0.055,0.0273,0.0,0.0,0.0,0.0,0.0,0.0,0.0,0.0,0.0,0.0,0.0,0.0,-0.0061,-0.0061,-0.0061,-0.0121,-0.0119,-0.0119,-0.0237,0.0,-0.0533,-0.0533,-0.0534,-0.0296,-0.0118,-0.0116,-0.0058,-0.0057,-0.0056,-0.0056,-0.0056,0.0,-0.0056,-0.0056,-0.0056,-0.0056,-0.0056,-0.0055,0.0,0.0,0.0,-0.0054,-0.0162,-0.032,-0.016,-0.0159,-0.0317,-0.0103,0.0,0.0,0.0,0.0,0.0,0.0,0.0,0.0,0.0,0.0,0.0,0.0,0.0,0.0,0.0,0.0,0.0,0.0,0.0,0.0,0.0,0.0,0.0,0.0,0.0,0.0,0.0,0.0,0.0,0.0,0.0,0.0,0.0,0.0,0.0,0.0,0.0,0.0,0.0,0.0,0.0,0.0,0.0,0.0,0.0,0.0,0.0,0.0,0.0,0.0,0.0,0.0505,0.0757,0.0808,0.1314,0.1566,0.1617,0.1617,0.1618,0.1622,0.165,0.1729,0.1759,0.1462,0.1156,0.095,0.0559,0.0222,0.0,0.0,0.0,0.0,0.0,0.0,0.0,0.0,0.0,0.0,0.0,-0.0242,-0.0427,-0.0374,-0.0626,-0.0816,-0.0886,-0.0816,-0.081,-0.0873,-0.0925,-0.0922,-0.0872,-0.0802,-0.073,-0.0778,-0.0532,-0.0347,-0.0337,-0.0336,-0.0224,0.0,-0.0449,-0.0617,-0.0336,-0.0336,-0.0334,-0.0329,-0.0108,0.0,0.0,-0.0212,-0.0211,-0.0107,-0.0263,-0.0257,-0.005,0.0,0.0,0.0,0.0,0.0,0.0,0.0,0.0,0.0,0.0,0.0,0.0,0.0,0.0,0.0,0.0,0.0,0.0,0.0,0.0,0.0,0.0,0.0,0.0,0.0,0.0,0.0,0.0,0.0,0.0,0.0,0.0,0.0,0.0,0.0,0.0,0.0,0.0,0.0,0.0,0.0,0.0,0.0,0.0,0.0,0.0,0.0,0.0,0.0,0.0,0.0,0.0,0.0303,0.0555,0.0808,0.1112,0.1364,0.1617,0.1617,0.1629,0.1705,0.1711,0.1834,0.2025,0.1498,0.1245,0.1209,0.066,0.0275,0.0,0.0,0.0,0.0,0.0,0.0,0.0,0.0,0.0,0.0,-0.0238,-0.0543,-0.0736,-0.0748,-0.0875,-0.1004,-0.1019,-0.1015,-0.1073,-0.1199,-0.1247,-0.1242,-0.126,-0.1052,-0.091,-0.0955,-0.0764,-0.0634,-0.0674,-0.0505,-0.0335,-0.0222,-0.0388,-0.0441,-0.0383,-0.0383,-0.038,-0.0373,-0.0373,-0.0319,-0.021,-0.0474,-0.0526,-0.0421,-0.0413,-0.0304,-0.0199,-0.005,0.0,0.0,0.0,0.0,0.0,0.0,0.0,0.0,0.0,0.0,0.0,0.0,0.0,0.0,0.0,0.0,0.0,0.0,0.0,0.0,0.0,0.0,0.0,0.0,0.0,0.0,0.0,0.0,0.0,0.0,0.0,0.0,0.0,0.0,0.0,0.0,0.0,0.0,0.0,0.0,0.0,0.0,0.0,0.0,0.0,0.0,0.0,0.0,0.0,0.0,0.0,0.0252,0.0505,0.0808,0.1061,0.1314,0.1617,0.1632,0.164,0.164,0.1669,0.184,0.2103,0.1699,0.1446,0.1295,0.081,0.0378,0.0,0.0,0.0,0.0,0.0,0.0,0.0,0.0,0.0,0.0,-0.0529,-0.084,-0.1099,-0.1105,-0.1171,-0.118,-0.1197,-0.12,-0.1263,-0.1576,-0.1624,-0.1623,-0.1587,-0.1298,-0.1089,-0.1146,-0.1054,-0.0974,-0.1025,-0.0731,-0.0556,-0.0495,-0.0383,-0.0379,-0.059,-0.0588,-0.0583,-0.0574,-0.0739,-0.0681,-0.0511,-0.0731,-0.084,-0.0727,-0.0562,-0.0405,-0.0301,-0.0146,-0.0049,0.0,-0.0054,-0.0056,0.0,0.0,0.0,0.0,0.0,0.0,0.0,0.0,-0.0057,-0.0055,-0.0053,-0.0053,0.0,0.0,0.0,0.0,0.0,0.0,0.0,0.0,0.0,0.0,0.0,0.0,0.0,0.0,0.0,0.0,0.0,0.0,0.0,0.0,0.0,0.0,0.0,0.0,0.0,0.0,0.0,0.0,0.0,0.0,-0.0053,0.0,-0.0051,-0.005,0.0,0.0202,0.0454,0.0808,0.1011,0.1263,0.1617,0.1641,0.1644,0.1626,0.1674,0.1844,0.2086,0.1752,0.1498,0.1284,0.0913,0.0429,0.0,0.0,0.0,0.0,0.0,0.0,0.0,0.0,0.0,0.0,-0.0525,-0.111,-0.1345,-0.1385,-0.1653,-0.1862,-0.1889,-0.1893,-0.1893,-0.1956,-0.1952,-0.1972,-0.2027,-0.196,-0.1876,-0.1948,-0.1572,-0.1396,-0.1434,-0.1304,-0.1103,-0.0839,-0.1249,-0.1398,-0.1199,-0.1182,-0.1172,-0.1221,-0.0943,-0.0839,-0.0848,-0.1082,-0.0922,-0.0467,-0.0674,-0.0508,-0.0049,-0.0249,-0.0203,0.0,-0.0261,-0.0214,0.0,0.0,0.0,0.0,0.0,0.0,0.0,0.0,-0.0169,-0.0333,0.0,-0.0372,-0.0375,-0.0344,0.0,0.0,0.0,0.0,0.0,0.0,0.0,0.0,0.0,0.0,0.0,0.0,0.0,0.0,0.0,0.0,0.0,0.0,0.0,0.0,0.0,0.0,0.0,0.0,0.0,0.0,0.0,0.0,0.0,0.0,-0.0148,-0.0195,0.0,0.005,0.0252,0.0808,0.0808,0.1112,0.1617,0.1621,0.1635,0.1708,0.1717,0.1835,0.2072,0.1568,0.1308,0.1254,0.072,0.0274,0.0,0.0,0.0,0.0,0.0,0.0,0.0,0.0,0.0,0.0,0.0784,0.0057,-0.0513,-0.07,-0.1239,-0.174,-0.1984,-0.2008,-0.2024,-0.2042,-0.203,-0.2029,-0.2053,-0.2008,-0.1992,-0.2029,-0.181,-0.1701,-0.1725,-0.1495,-0.1288,-0.116,-0.1189,-0.1277,-0.1274,-0.1239,-0.1227,-0.124,-0.1269,-0.1212,-0.1068,-0.1302,-0.1205,-0.0868,-0.0809,-0.0605,-0.0254,-0.0205,-0.0205,-0.0205,0.0,-0.0214,0.0,-0.0056,0.0,0.0,0.0,0.0,0.0,0.0,-0.0169,0.0,0.0,0.0,0.0,-0.0449,0.0,0.0,0.0,0.0,0.0,0.0,0.0,0.0,-0.0217,0.0,-0.0125,0.0,0.0,0.0,0.0,0.0,0.0,0.0,0.0,0.0,0.0,0.0,0.0,0.0,0.0,0.0,0.0,0.0,0.0,0.0,0.0,-0.0099,0.0,0.0,0.0252,0.0808,0.0808,0.1061,0.1617,0.1635,0.164,0.1636,0.1859,0.198,0.2099,0.1849,0.1547,0.1292,0.0814,0.0378,0.0,0.0,0.0,0.0,0.0,0.0,0.0,0.0,0.0,0.0,0.2574,0.1202,-0.0167,-0.0339,-0.0853,-0.1394,-0.1828,-0.1851,-0.1876,-0.2057,-0.2037,-0.2024,-0.2041,-0.2039,-0.2038,-0.2038,-0.1982,-0.1944,-0.1934,-0.1699,-0.1477,-0.1433,-0.1241,-0.1219,-0.1413,-0.1369,-0.1356,-0.1324,-0.149,-0.1535,-0.1356,-0.1476,-0.1432,-0.1212,-0.1001,-0.0707,-0.0412,-0.026,-0.026,-0.0259,-0.0161,-0.0161,-0.0265,-0.0056,0.0,0.0,0.0,0.0,0.0,0.0,-0.0166,0.0,-0.0162,0.0,0.0,0.0,0.0,0.0,-0.0421,0.0,0.0,0.0,0.0,0.0,0.0,0.0,0.0,0.0,0.0,0.0,0.0,0.0,0.0,0.0,0.0,0.0,0.0,0.0,0.0,0.0,0.0,0.0,0.0,0.0,0.0,0.0,0.0,0.0,0.0,0.0,0.0202,0.0656,0.0757,0.1011,0.1465,0.1587,0.1643,0.1629,0.1865,0.1989,0.2001,0.1852,0.1596,0.118,0.0858,0.0428,0.0,0.0,0.0,0.0,0.0,0.0,0.0,0.0,0.0,0.0,0.4858,0.179,-0.0859,-0.0873,-0.0888,-0.1028,-0.1439,-0.1491,-0.157,-0.2049,-0.2037,-0.2041,-0.2099,-0.2158,-0.2192,-0.2192,-0.2138,-0.209,-0.2124,-0.1921,-0.177,-0.1795,-0.1737,-0.1704,-0.1703,-0.1674,-0.166,-0.166,-0.165,-0.1615,-0.1697,-0.1581,-0.1413,-0.1214,-0.1183,-0.0873,-0.0405,-0.0683,-0.0484,-0.0055,-0.0269,-0.0216,0.0,0.0,0.0,0.0,0.0,0.0,0.0,0.0,-0.0159,0.0,0.0,0.0,0.0,0.0,0.0,0.0,0.0,0.0,0.0,-0.0634,0.0,0.0,0.0,0.0,-0.0801,0.0,0.0,0.0,0.0,0.0,-0.0292,-0.0041,0.0,0.0,0.0,0.0,0.0,0.0,0.0,0.0,0.0,0.0,0.0,0.0,0.0,0.0,0.0,0.0,0.0151,0.0404,0.0656,0.091,0.1213,0.1467,0.1633,0.1714,0.1689,0.1771,0.1802,0.1443,0.1165,0.0874,0.0547,0.0271,0.0,0.0,0.0,0.0,0.0,0.0,0.0,0.0,0.0,0.0,0.4065,0.2557,0.1401,0.1815,0.1389,0.0925,0.0637,0.0176,0.006,0.0777,0.0328,0.0266,0.1025,0.0141,-0.0498,-0.0635,-0.1584,-0.2157,-0.2193,-0.202,-0.1936,-0.1887,-0.1808,-0.1764,-0.1764,-0.1678,-0.1641,-0.1714,-0.1652,-0.1636,-0.1615,-0.1554,-0.1499,-0.1438,-0.1248,-0.0967,-0.0682,-0.0598,-0.0437,0.0,0.0,-0.064,-0.0547,0.0,0.0,0.0,0.0,0.0,0.0,-0.0214,-0.0422,-0.0675,-0.0675,-0.092,-0.1148,-0.0986,-0.0834,0.0,0.0,0.0,-0.0489,-0.0882,0.0,0.0,0.0,0.0,0.0,0.0,0.0,0.0,0.0,0.0,-0.0329,-0.0285,-0.0122,0.0,0.0,0.0,0.0,0.0,0.0,0.0,0.0,0.0,0.0,0.0,0.0,0.0,0.0,0.0,0.0101,0.0404,0.0505,0.0656,0.091,0.1213,0.1369,0.1377,0.1764,0.1902,0.172,0.1422,0.1161,0.089,0.0334,0.0111,0.0,0.0,0.0,0.0,0.0,0.0,0.0,0.0,0.0,0.0,0.4126,0.3666,0.3232,0.3045,0.26,0.2171,0.1938,0.1528,0.1531,0.2219,0.1873,0.1843,0.2653,0.1798,0.109,0.0995,0.0,-0.0829,-0.1262,-0.1232,-0.1443,-0.186,-0.1858,-0.1823,-0.1812,-0.1715,-0.1663,-0.1714,-0.1611,-0.1594,-0.1653,-0.155,-0.1542,-0.1572,-0.1375,-0.1107,-0.0734,-0.0598,-0.0492,0.0,0.0,-0.0847,0.0,0.0,-0.0323,-0.0322,0.0,-0.0264,-0.0317,-0.0476,-0.0679,-0.0824,-0.0777,-0.1017,-0.1289,-0.1091,-0.1033,-0.1021,-0.1159,-0.0933,0.0,-0.1135,-0.1001,0.0,-0.1192,0.0,0.0,0.0,0.0,0.0,0.0,0.0,-0.0542,-0.0501,-0.0288,-0.0081,0.0,0.0,0.0,0.0,0.0,0.0,0.0,0.0,0.0,0.0,-0.0197,0.0,0.0,0.0,0.0101,0.0252,0.0353,0.0505,0.0656,0.091,0.1112,0.1213,0.1594,0.178,0.1705,0.141,0.1155,0.0889,0.0389,0.0111,0.0,0.0,0.0,0.0,0.0,0.0,0.0,0.0,0.0,0.0,0.5145,0.5025,0.4512,0.2855,0.2707,0.2701,0.2404,0.0,0.2753,0.2423,0.2635,0.2765,0.2805,0.2691,0.2565,0.2538,0.237,0.1763,0.0455,0.0327,0.0,0.0,-0.1774,-0.1759,-0.1729,0.0,0.0,-0.1718,-0.1635,-0.1635,-0.1712,-0.157,-0.1543,-0.1621,-0.1621,-0.129,-0.0709,-0.0787,-0.0699,-0.0436,-0.0697,-0.0844,-0.083,-0.0778,0.0,-0.0814,-0.0787,-0.0778,-0.0778,-0.083,-0.082,-0.0811,-0.0825,-0.082,-0.0858,-0.0858,-0.0808,-0.0855,-0.1137,-0.1181,-0.1225,-0.144,0.0,0.0,0.0,0.0,-0.1478,0.0,0.0,0.0,0.0,0.0,0.0,-0.0738,-0.0502,-0.0242,-0.0039,-0.0039,-0.0039,0.0,0.0,0.0,0.0,0.0,-0.0529,-0.0438,-0.0337,-0.0194,0.0,0.0,0.0,0.0,0.0252,0.0404,0.0404,0.0656,0.091,0.1162,0.1287,0.1467,0.1705,0.141,0.1148,0.0876,0.0548,0.0219,0.0,0.0,0.0,0.0,0.0,0.0,0.0,0.0,0.0,0.0,0.5132,0.5026,0.5071,0.5071,0.4809,0.4606,0.0,0.0,0.0,0.0,0.5087,0.5135,0.5994,0.5018,0.4281,0.4089,0.3032,0.0,0.0,0.0,0.0,0.1154,0.0186,-0.0303,-0.0298,-0.1311,-0.1765,-0.1781,-0.1728,-0.1707,-0.1712,-0.1592,-0.1564,-0.1621,-0.1621,-0.139,-0.1062,-0.1088,-0.1049,-0.1,-0.1048,-0.1252,0.0,0.0,0.036,0.0262,-0.0513,-0.0814,-0.0814,-0.1017,-0.1115,-0.1113,-0.132,-0.142,-0.1415,-0.1415,-0.1263,-0.116,-0.1406,-0.1216,-0.1016,-0.1475,-0.1428,-0.1332,0.0,0.0,0.0,0.0,0.0,0.0,0.0,0.0,0.0,-0.0917,-0.0687,-0.0514,-0.0471,0.0,0.0,-0.0523,0.0,0.0,0.0,-0.0474,-0.045,-0.0609,-0.0427,-0.0194,0.0,0.0,0.0,0.0,0.005,0.0101,0.0101,0.0353,0.0656,0.091,0.1388,0.1623,0.1705,0.141,0.1156,0.0892,0.0334,0.0056,0.0,0.0,0.0,0.0,0.0,0.0,0.0,0.0,0.0,0.0,0.5864,0.5902,0.6157,0.6478,0.0,0.0,0.6076,0.5924,0.0,0.674,0.6603,0.0,0.7374,0.6541,0.5846,0.5738,0.4875,0.0,0.3347,0.0,0.0,0.222,0.1464,0.1058,0.0973,0.0292,0.0,-0.082,0.0,-0.0994,-0.1505,-0.145,-0.1466,-0.1551,-0.1551,-0.1422,-0.1149,-0.1181,-0.0778,-0.0155,-0.0257,0.0,0.0,0.1513,0.1871,0.1783,0.1161,0.0805,0.0554,0.0151,-0.0303,-0.0706,-0.0858,-0.1212,-0.1617,-0.1617,-0.1516,-0.1415,-0.1566,-0.1375,-0.1225,-0.1549,-0.1504,-0.1404,-0.1508,-0.1546,-0.1546,0.0,0.0,0.0,0.0,0.0,0.0,-0.097,-0.0832,0.0,0.0,0.0,0.0,0.0,-0.0736,0.0,0.0,0.0,-0.0496,-0.0638,-0.0558,0.0,0.0,0.0,0.0,-0.0148,-0.005,0.0,0.0,0.0151,0.0454,0.096,0.1234,0.1518,0.1865,0.1627,0.1269,0.0897,0.0561,0.0224,0.0,0.0,0.0,0.0,0.0,0.0,0.0,0.0,0.0,0.0,0.6894,0.6985,0.7259,0.7387,0.0,0.0,0.0,0.7439,0.0,0.7416,0.0,0.7813,0.7645,0.7404,0.7158,0.6982,0.0,0.6402,0.5005,0.489,0.4232,0.2856,0.258,0.2412,0.2279,0.2149,0.1607,0.0,0.0,0.0158,-0.0879,-0.0848,-0.0921,-0.1139,-0.1143,0.0,0.0,-0.0813,0.0,0.144,0.1215,0.1959,0.321,0.341,0.351,0.351,0.366,0.321,0.241,0.1964,0.1209,0.0403,0.0403,-0.0202,-0.0958,-0.0958,-0.106,-0.1212,-0.1262,-0.1364,-0.1516,-0.1566,-0.1617,-0.161,-0.1583,-0.1577,-0.1577,-0.1577,-0.1557,-0.1551,0.0,0.0,0.0,0.0,0.0,0.0,0.0,0.0,0.0,0.0,0.0,0.0,0.0,0.0,0.0,-0.067,-0.0727,0.0,0.0,0.0,0.0,0.0,-0.0099,0.0,0.0,0.0,0.0405,0.1217,0.1079,0.1359,0.2078,0.1894,0.1487,0.0953,0.0841,0.0505,0.0056,0.0,0.0,0.0,0.0,0.0,0.0,0.0,0.0,0.0,0.7012,0.7117,0.7472,0.7731,0.0,0.8414,0.8503,0.8514,0.8486,0.8419,0.8836,0.8734,0.7912,0.8019,0.7787,0.6964,0.6947,0.0,0.0,0.0,0.0,0.5745,0.45,0.3809,0.3756,0.2568,0.178,0.0,0.0,0.1308,0.0963,0.0991,0.0961,0.0882,0.0851,0.0,0.1664,0.1034,0.0,0.2823,0.2814,0.2959,0.336,0.4668,0.5168,0.5322,0.6176,0.5018,0.306,0.2959,0.2809,0.2659,0.2659,0.2509,0.2358,0.2358,0.1709,0.0956,0.0503,-0.0252,-0.1061,-0.1465,-0.1617,-0.1615,-0.161,-0.1609,-0.1609,-0.1609,-0.1605,-0.1588,-0.1549,0.0,0.0,0.0,0.0,0.0,0.0,0.0,0.0,0.0,0.0,0.0,0.0,0.0,0.0,0.0,0.0,0.0,0.0,0.0,0.0,0.0,0.0,0.0,0.0,0.0,0.0,0.1189,0.1377,0.1702,0.2078,0.1763,0.147,0.1177,0.0449,0.0224,0.0336,0.0111,0.0,0.0,0.0,0.0,0.0,0.0,0.0,0.0,0.8227,0.8276,0.842,0.8717,0.0,0.0,0.0,0.9808,0.0,0.9108,0.9222,0.9159,0.8696,0.8604,0.8449,0.7992,0.7912,0.7845,0.7688,0.7679,0.7607,0.7512,0.6423,0.5736,0.5479,0.4794,0.3992,0.327,0.0,0.2869,0.2064,0.1811,0.1615,0.1433,0.0,0.2112,0.0,0.0,0.0,0.4464,0.4464,0.4968,0.5767,0.6526,0.683,0.693,0.7434,0.6775,0.5617,0.5068,0.4468,0.4017,0.4017,0.3663,0.321,0.321,0.2812,0.236,0.2109,0.1657,0.1057,0.0252,0.005,0.005,0.005,-0.0151,-0.0202,0.0353,0.0252,-0.01,-0.0576,-0.1116,0.0,0.0,0.0,0.0,0.0,0.0,0.0,0.0,0.0,0.0,0.0,0.0,0.0,0.0,0.0,0.0,0.0,0.0,0.0,0.0,0.0,0.0,0.0,0.0,0.0,0.0973,0.1279,0.1652,0.2103,0.2068,0.1774,0.1256,0.0882,0.0498,0.0166,0.0055,0.0,0.0,0.0,0.0,0.0,0.0,0.0,0.0,0.9408,0.9354,0.0,0.0,0.9802,0.0,1.0392,1.0704,1.0558,0.9761,0.9695,0.9635,0.9407,0.9239,0.9076,0.8847,0.8841,0.8782,0.8636,0.8625,0.8528,0.8378,0.7832,0.7375,0.6985,0.6896,0.6325,0.0,0.0,0.0,0.3431,0.2991,0.0,0.0,0.0,0.0,0.0,0.0,0.4698,0.6126,0.6126,0.688,0.7988,0.7988,0.7988,0.7988,0.7988,0.7988,0.7889,0.7036,0.6182,0.5477,0.5477,0.4918,0.421,0.421,0.4064,0.3864,0.376,0.356,0.3162,0.2161,0.196,0.196,0.196,0.161,0.156,0.241,0.2163,0.1494,0.0623,-0.0284,0.0,0.0,0.0,0.0,0.0,0.0,0.0,0.0,0.0,0.0,0.0,0.0,0.0,0.0,0.0,-0.1056,-0.1037,-0.0868,0.0,0.0,0.0,-0.005,-0.005,0.0,0.0253,0.0,0.1077,0.1446,0.192,0.2053,0.1805,0.1226,0.1189,0.0817,0.0164,0.0056,0.0,0.0,0.0,0.0,0.0,0.0,0.0,0.0,0.0,0.0,0.0,0.0,0.0,0.0,1.0297,1.0555,1.0712,1.0759,1.0879,1.0708,0.9826,0.9823,0.9596,0.8796,0.8717,0.862,0.8454,0.8437,0.8318,0.8124,0.8017,0.7835,0.7513,0.7471,0.7131,0.0,0.0,0.6312,0.0,0.0,0.0,0.0,0.0,0.0,0.0,0.6014,0.6524,0.7789,0.7789,0.7889,0.7988,0.7988,0.7988,0.7988,0.7988,0.7988,0.7988,0.7889,0.7789,0.769,0.769,0.7633,0.7534,0.7534,0.688,0.5982,0.5522,0.4668,0.3764,0.321,0.306,0.306,0.306,0.301,0.301,0.311,0.2711,0.2187,0.1629,0.1418,0.0988,0.0,0.0,0.0,0.0,0.0,0.0,-0.1477,0.0,0.0,0.0,0.0,0.0,0.0,0.0,-0.1282,-0.1104,-0.0999,0.0,-0.0667,0.0,-0.029,-0.0295,-0.01,0.0,0.0777,0.0816,0.1022,0.135,0.1092,0.0946,0.096,0.0854,0.0808,0.0712,0.0223,0.0,0.0,0.0,0.0,0.0,0.0,0.0,0.0,0.0,0.0,0.0,0.0,0.0,0.0,0.0,1.0643,1.0744,1.0806,1.086,1.0739,1.0411,1.0389,1.0267,0.9942,0.9868,0.9854,0.9655,0.9642,0.9549,0.9268,0.8887,0.8518,0.8178,0.8061,0.7822,0.0,0.0,0.0,0.0,0.0,0.0,0.0,0.0,0.6644,0.7524,0.7266,0.7532,0.7988,0.7988,0.7988,0.7988,0.7988,0.7988,0.7988,0.7988,0.7988,0.7988,0.7988,0.7988,0.7988,0.7988,0.7988,0.7988,0.7988,0.769,0.7335,0.708,0.6731,0.6176,0.5322,0.5122,0.5122,0.5122,0.4872,0.4822,0.5472,0.4668,0.3701,0.3158,0.2567,0.1879,0.0,0.0,0.0,0.0,0.0,0.0,0.0,0.0,-0.1469,0.0,0.0,0.0,0.0,0.0,0.0,-0.1044,-0.0923,0.0,-0.0476,0.0,-0.0297,-0.01,0.0302,0.0608,0.0817,0.1469,0.1672,0.148,0.1684,0.134,0.0577,0.021,0.0159,0.0323,0.0109,0.0219,0.0551,0.0483,0.0481,0.0537,0.0518,0.046,0.0459,1.0337,0.0,1.0134,0.0,1.0385,1.0287,1.067,1.0717,1.0717,1.0717,1.0717,1.0717,1.0717,1.0717,1.0704,1.0656,1.0656,1.0568,1.0378,1.0358,1.0249,0.993,0.9546,0.0,0.8742,0.8736,0.847,0.8056,0.8009,0.0,0.0,0.0,0.0,0.0,0.7241,0.7456,0.7882,0.7941,0.7988,0.7988,0.7988,0.7988,0.7988,0.7988,0.7988,0.7988,0.7988,0.7988,0.7988,0.7988,0.7988,0.7988,0.7988,0.7988,0.7988,0.7988,0.7988,0.7988,0.7988,0.7988,0.7839,0.7036,0.6886,0.6886,0.6886,0.6587,0.6487,0.7086,0.6282,0.5327,0.4826,0.4129,0.3416,0.2663,0.0,0.0,0.0,0.0,0.0,0.0,-0.0581,-0.1144,-0.1478,0.0,0.0,0.0,0.0,0.0,0.0,0.0,0.0,0.0,0.0,0.0,0.0,0.0352,0.0659,0.0815,0.1417,0.1573,0.1384,0.1785,0.1532,0.0721,0.0207,0.0157,0.048,0.032,0.0485,0.0872,0.0847,0.0841,0.0844,0.0823,0.0812,0.0757,1.046,1.0487,1.0534,1.069,1.0717,1.0711,1.0717,1.0717,1.0717,1.0717,1.0717,1.0717,1.0717,1.0717,1.0656,1.0507,1.0493,1.0371,1.0011,0.999,0.9923,0.0,0.0,0.9686,0.9388,0.9381,0.9157,0.871,0.0,0.0,0.7982,0.0,0.7529,0.7801,0.7665,0.776,0.7988,0.7988,0.7988,0.7988,0.7988,0.7988,0.7988,0.7988,0.7988,0.7988,0.7988,0.7988,0.7988,0.7988,0.7988,0.7988,0.7988,0.7988,0.7988,0.7988,0.7988,0.7988,0.7988,0.7988,0.7988,0.7988,0.7988,0.7988,0.7988,0.7988,0.7839,0.7291,0.7185,0.6986,0.6487,0.6381,0.5982,0.4926,0.0,0.0,0.0,0.0,0.0,0.0,0.0095,-0.0333,-0.1383,0.0,0.0,0.0,0.0,0.0,0.0,0.0,0.0,-0.1478,-0.1241,0.0,-0.0286,-0.0099,0.0306,0.0882,0.0306,0.036,0.0906,0.089,0.1183,0.1568,0.103,0.1101,0.1651,0.1013,0.0808,0.0873,0.0805,0.0791,0.0779,0.0778,0.0821,0.0808,1.0636,1.0649,1.0663,1.0711,1.0717,1.0717,1.0717,1.0717,1.0717,1.0717,1.0717,1.0677,1.0575,1.0561,1.0507,0.0,1.0344,1.0263,0.0,0.9984,0.9916,0.9829,0.9822,0.9686,0.9388,0.9381,0.9211,0.8811,0.0,0.0,0.0,0.7943,0.7875,0.7914,0.7874,0.7901,0.7988,0.7988,0.7988,0.7988,0.7988,0.7988,0.7988,0.7988,0.7988,0.7988,0.7988,0.7988,0.7988,0.7988,0.7988,0.7988,0.7988,0.7988,0.7988,0.7988,0.7988,0.7988,0.7988,0.7988,0.7988,0.7988,0.7988,0.7988,0.7988,0.7988,0.7939,0.7789,0.7739,0.759,0.7036,0.6936,0.6736,0.5982,0.0,0.0,0.0,0.0,0.0,0.0,0.2663,0.2072,0.0,0.1776,0.0,0.0,0.0,0.0,0.0,0.0,0.0,0.0,-0.0636,0.0,0.0446,0.0853,0.1223,0.1452,0.1578,0.1585,0.1411,0.1028,0.0819,0.0772,0.0622,0.0724,0.108,0.0938,0.1103,0.1423,0.1346,0.1394,0.14,0.1383,0.132,0.1314,1.0717,1.0717,1.0717,1.0717,1.0717,1.0717,1.0717,1.0717,1.0717,1.0717,1.067,1.0575,1.0426,1.0358,0.0,1.0202,1.0195,1.0127,0.9909,0.9903,0.9862,0.9822,0.9822,0.9686,0.9388,0.0,0.0,0.8885,0.8784,0.8587,0.8343,0.8194,0.8092,0.7988,0.7988,0.7988,0.7988,0.7988,0.7988,0.7988,0.7988,0.7988,0.7988,0.7988,0.7988,0.7988,0.7988,0.7988,0.7988,0.7988,0.7988,0.7988,0.7988,0.7988,0.7988,0.7988,0.7988,0.7988,0.7988,0.8029,0.8113,0.8002,0.8035,0.8113,0.8002,0.7988,0.7988,0.7988,0.7988,0.7889,0.754,0.749,0.7391,0.7036,0.6836,0.6686,0.6686,0.0,0.0,0.0,0.0,0.0,0.0,0.3243,0.0,0.0,0.0,0.0,0.0,0.0,0.0,-0.0195,-0.0249,0.0,0.0808,0.117,0.1442,0.1728,0.2033,0.1865,0.1335,0.1227,0.1028,0.0882,0.0876,0.0981,0.1197,0.1187,0.1399,0.1674,0.1633,0.1628,0.1643,0.1624,0.1617,0.1566,1.0717,1.0717,0.0,0.0,1.0717,0.0,1.0717,1.0711,1.0704,1.0704,1.0568,1.0426,1.0283,1.0134,0.9984,0.997,0.0,0.0,0.0,0.9822,0.9822,0.9822,0.9815,0.9673,0.9388,0.9367,0.9225,0.8885,0.8777,0.8621,0.8479,0.8323,0.818,0.7988,0.7988,0.7988,0.7988,0.7988,0.7988,0.7988,0.7988,0.7988,0.7988,0.7988,0.7988,0.7988,0.7988,0.7988,0.7988,0.7988,0.7988,0.7988,0.7988,0.7988,0.7988,0.7988,0.7988,0.7988,0.7988,0.8153,0.8235,0.8029,0.8147,0.8221,0.8035,0.7995,0.7988,0.7988,0.7988,0.7988,0.7988,0.7988,0.7988,0.7988,0.759,0.7235,0.7235,0.0,0.0,0.0,0.0,0.0,0.0,0.362,0.3572,0.0,0.0,0.0,0.0,0.0,-0.0146,0.0252,0.0303,0.0505,0.0962,0.1029,0.1257,0.1704,0.1785,0.1489,0.0863,0.1443,0.1715,0.1715,0.1637,0.1671,0.1794,0.1656,0.1654,0.1696,0.1639,0.1617,0.1617,0.1617,0.1617,0.1617,0.0,0.0,1.0717,1.0717,1.0717,1.0717,1.0717,1.0622,1.0548,1.0548,1.0419,1.0276,1.0183,1.0073,0.9936,0.9883,0.9876,0.9863,0.9822,0.9822,0.9822,0.9822,0.972,0.9571,0.9388,0.9323,0.9117,0.8885,0.8669,0.852,0.8479,0.8214,0.8022,0.7988,0.7988,0.7988,0.7988,0.7988,0.7988,0.7988,0.7988,0.7988,0.7988,0.7988,0.7988,0.7988,0.7988,0.7988,0.7988,0.7988,0.7988,0.7988,0.7988,0.7988,0.7988,0.7988,0.7988,0.7988,0.7988,0.8153,0.8235,0.8029,0.8015,0.8113,0.8201,0.8126,0.7988,0.7988,0.7988,0.7988,0.7988,0.7988,0.7988,0.7988,0.7889,0.7789,0.7789,0.769,0.0,0.0,0.7285,0.7186,0.6891,0.6886,0.6388,0.0,0.0,0.0,0.0,0.0,0.2996,0.3062,0.3065,0.2937,0.2729,0.274,0.2406,0.1704,0.169,0.1631,0.1472,0.1617,0.1674,0.1695,0.1711,0.1718,0.1714,0.1692,0.168,0.1669,0.1632,0.1617,0.1617,0.1617,0.1617,0.1621,1.0717,1.0717,1.0717,1.0717,1.0717,1.0717,1.0717,1.0588,1.0493,1.0493,1.0304,1.0141,1.0059,0.9985,0.9849,0.9829,0.9822,0.9822,0.9822,0.9822,0.9795,0.9727,0.9652,0.9503,0.9337,0.9255,0.9083,0.8885,0.8703,0.8554,0.8479,0.8248,0.8106,0.7995,0.8113,0.8147,0.8147,0.8147,0.8147,0.814,0.8015,0.7988,0.7988,0.7988,0.7988,0.7988,0.7988,0.7988,0.7988,0.7988,0.7988,0.7988,0.7988,0.8085,0.8147,0.8147,0.8092,0.7988,0.7988,0.8201,0.8364,0.835,0.8241,0.8167,0.8248,0.8255,0.8201,0.8015,0.8099,0.8126,0.8002,0.7988,0.7988,0.7988,0.7934,0.7907,0.7982,0.7928,0.0,0.7982,0.7988,0.7988,0.7988,0.7988,0.7674,0.6828,0.0,0.0,0.5897,0.5897,0.541,0.4418,0.4368,0.4311,0.4136,0.4122,0.3844,0.3241,0.3187,0.3161,0.3112,0.3132,0.3166,0.3244,0.3302,0.2995,0.2526,0.2488,0.2146,0.1711,0.1629,0.1617,0.1617,0.1617,0.1625,0.164,1.0717,1.0717,1.0717,1.0717,1.0717,1.0711,1.069,1.0555,1.0453,1.0426,1.0188,0.995,0.995,0.9897,0.9822,0.9822,0.9822,0.9822,0.9822,0.9822,0.9768,0.9646,0.9618,0.9476,0.9248,0.92,0.9062,0.8885,0.8784,0.8642,0.8513,0.837,0.8221,0.8029,0.8214,0.8255,0.8235,0.8313,0.8306,0.8228,0.8119,0.8008,0.7988,0.8015,0.8008,0.7995,0.8015,0.8008,0.7995,0.8015,0.8008,0.7995,0.8015,0.8167,0.832,0.832,0.818,0.8029,0.8049,0.8275,0.8499,0.8696,0.8506,0.8333,0.833,0.8411,0.8404,0.8133,0.818,0.8221,0.8015,0.7988,0.7982,0.7961,0.7916,0.7882,0.7941,0.0,0.7896,0.7975,0.7988,0.7988,0.7988,0.7988,0.7988,0.7988,0.7988,0.0,0.0,0.7988,0.7185,0.5327,0.5277,0.5271,0.5321,0.5156,0.5096,0.5043,0.4938,0.4857,0.4796,0.4796,0.4928,0.5075,0.5062,0.4541,0.3685,0.3674,0.3062,0.2184,0.2145,0.2129,0.2129,0.2136,0.2053,0.1923,1.0717,1.0717,1.0717,1.0717,1.0717,1.0677,1.0548,1.0405,1.0263,1.0071,0.9903,0.9856,0.9856,0.9836,0.9822,0.9822,0.9822,0.9822,0.9822,0.9822,0.9808,0.9788,0.9673,0.953,0.9347,0.9103,0.8905,0.8885,0.8784,0.8696,0.8669,0.852,0.837,0.8235,0.8313,0.8201,0.8035,0.8214,0.8194,0.8085,0.8194,0.816,0.8002,0.8187,0.8153,0.8008,0.8187,0.8153,0.8008,0.8187,0.8147,0.8015,0.8194,0.8248,0.832,0.832,0.8255,0.8262,0.8384,0.8364,0.8397,0.8804,0.8581,0.8336,0.8587,0.856,0.8431,0.8269,0.8255,0.8221,0.8015,0.7988,0.7948,0.7868,0.7887,0.7921,0.7862,0.0,0.7961,0.7988,0.7988,0.7988,0.7988,0.7988,0.7988,0.7988,0.7988,0.7988,0.7988,0.7988,0.7839,0.7534,0.7484,0.7101,0.6308,0.5474,0.5043,0.4933,0.4873,0.4829,0.4889,0.4889,0.4905,0.4934,0.4942,0.4827,0.4684,0.469,0.4642,0.4594,0.4564,0.453,0.4593,0.4665,0.4028,0.307,1.0717,1.0717,1.0717,1.0717,1.0717,1.0697,1.0622,1.0487,1.0344,1.0195,1.0039,0.9849,0.9829,0.9822,0.9822,0.9822,0.9822,0.9822,0.9822,0.9747,0.9707,0.9707,0.9564,0.9415,0.9316,0.9049,0.8885,0.8885,0.8784,0.871,0.871,0.8554,0.8404,0.8327,0.835,0.8303,0.8174,0.8323,0.8343,0.8282,0.8357,0.8296,0.818,0.833,0.8296,0.8174,0.8248,0.8221,0.8174,0.8248,0.8221,0.8174,0.8248,0.8377,0.8492,0.8411,0.8384,0.8397,0.8465,0.8431,0.8472,0.879,0.8723,0.854,0.8676,0.8716,0.8662,0.8431,0.8452,0.8438,0.8208,0.8167,0.8113,0.7957,0.7923,0.0,0.0,0.7923,0.7894,0.7982,0.7988,0.7988,0.7988,0.7988,0.7988,0.7988,0.7988,0.7988,0.7988,0.7988,0.7988,0.7988,0.8119,0.794,0.7494,0.7033,0.6802,0.6744,0.6563,0.6559,0.6563,0.6686,0.6746,0.6865,0.6815,0.6558,0.6071,0.5903,0.5554,0.5066,0.4975,0.4938,0.4942,0.4988,0.4727,0.426,1.0717,1.0717,1.0717,1.0717,1.0717,1.0711,1.067,1.0568,1.0439,1.0297,1.0148,0.9943,0.989,0.9842,0.9822,0.9822,0.9822,0.9822,0.9822,0.9686,0.9612,0.9612,0.9429,0.933,0.9214,0.9015,0.8885,0.8885,0.8818,0.8764,0.8764,0.8642,0.8513,0.8377,0.8486,0.8438,0.8333,0.8425,0.8445,0.8384,0.8452,0.8397,0.834,0.8465,0.8445,0.8374,0.8364,0.835,0.8374,0.8364,0.835,0.8374,0.8364,0.8526,0.8689,0.8567,0.856,0.8581,0.8547,0.8506,0.8554,0.8804,0.8825,0.8716,0.8757,0.8797,0.8804,0.8587,0.8628,0.8628,0.837,0.8347,0.8221,0.8015,0.0,0.0,0.0,0.7916,0.7909,0.7975,0.7988,0.7988,0.7988,0.7988,0.7988,0.7988,0.7988,0.7988,0.7988,0.7988,0.7988,0.7988,0.8187,0.832,0.832,0.8354,0.8354,0.832,0.8147,0.8022,0.7995,0.8201,0.833,0.8431,0.8431,0.8026,0.7357,0.7125,0.6532,0.5831,0.5694,0.5615,0.5619,0.5667,0.5615,0.5475,1.0717,1.0717,1.0717,1.0717,1.0717,1.067,1.0527,1.05,1.0439,1.0297,1.0148,0.9984,0.997,0.9842,0.9822,0.9822,0.9822,0.9822,0.9822,0.9686,0.9612,0.9612,0.9327,0.9221,0.9207,0.9015,0.8885,0.8885,0.8871,0.8865,0.8865,0.8858,0.8825,0.8676,0.8689,0.8533,0.8333,0.8425,0.8323,0.8049,0.837,0.8397,0.8354,0.8587,0.8601,0.8486,0.8628,0.8587,0.8486,0.8628,0.8581,0.8492,0.8635,0.8696,0.871,0.8696,0.8798,0.8817,0.873,0.8587,0.8554,0.8804,0.8825,0.875,0.8838,0.8871,0.8838,0.873,0.8703,0.8662,0.8499,0.8357,0.8221,0.8015,0.0,0.0,0.7848,0.7894,0.7975,0.7988,0.7988,0.7988,0.7988,0.7988,0.7988,0.7988,0.7988,0.7988,0.7988,0.7988,0.7988,0.7988,0.8187,0.832,0.832,0.8397,0.8397,0.832,0.8306,0.818,0.7995,0.8201,0.8327,0.834,0.834,0.8289,0.8186,0.7969,0.7989,0.8064,0.8051,0.8044,0.8077,0.8348,0.7618,0.6606,1.0446,1.0521,1.0555,1.0466,1.0602,1.067,1.0514,1.0575,1.0548,1.031,1.0229,1.012,0.993,0.9856,0.9822,0.9822,0.9822,0.9822,0.9822,0.9768,0.9659,0.9476,0.9323,0.9207,0.9207,0.9015,0.8885,0.8885,0.8885,0.8885,0.8885,0.8885,0.8804,0.871,0.871,0.8594,0.8411,0.856,0.856,0.8472,0.8682,0.8676,0.8567,0.8771,0.8757,0.8628,0.8689,0.8676,0.8635,0.8689,0.8669,0.8635,0.8696,0.8777,0.8797,0.8797,0.8825,0.8804,0.8845,0.8811,0.8791,0.8851,0.8838,0.8811,0.8871,0.8885,0.8865,0.8811,0.8797,0.8804,0.8655,0.8581,0.8465,0.8221,0.0,0.8262,0.8119,0.8147,0.818,0.818,0.8099,0.7988,0.7988,0.7988,0.7988,0.7988,0.7988,0.7988,0.7988,0.7988,0.7988,0.7988,0.8099,0.8174,0.832,0.8411,0.8459,0.8397,0.8368,0.8289,0.8316,0.8377,0.8452,0.854,0.854,0.8601,0.8662,0.8323,0.8269,0.8384,0.8201,0.8126,0.8153,0.8364,0.8138,0.7696,1.0283,1.0358,1.0412,1.0358,1.0514,1.0616,1.0507,1.0622,1.0616,1.0317,1.0283,1.0181,0.9924,0.9849,0.9822,0.9822,0.9822,0.9822,0.9822,0.9781,0.9666,0.9462,0.9306,0.9262,0.9214,0.9055,0.8981,0.8885,0.8885,0.8885,0.8885,0.8885,0.8824,0.8784,0.8784,0.8696,0.856,0.8669,0.8682,0.8655,0.8804,0.8804,0.873,0.8824,0.8817,0.8784,0.8784,0.8784,0.8784,0.8784,0.8784,0.8784,0.8784,0.8797,0.8885,0.8885,0.8811,0.8804,0.8858,0.8885,0.8885,0.8885,0.8885,0.8885,0.8885,0.8885,0.8885,0.8885,0.8885,0.8851,0.8804,0.8743,0.8642,0.8438,0.8452,0.8431,0.834,0.832,0.8255,0.8201,0.8106,0.7988,0.7988,0.7988,0.7988,0.7988,0.8085,0.8113,0.8113,0.8113,0.8092,0.7988,0.8035,0.8167,0.832,0.8411,0.8479,0.8479,0.8431,0.8431,0.8486,0.8533,0.8608,0.871,0.871,0.8771,0.8784,0.8438,0.835,0.8459,0.8208,0.814,0.8194,0.835,0.8411,0.8425,1.0276,1.0276,1.0324,1.046,1.0487,1.0487,1.0487,1.0616,1.0609,1.0317,1.0276,1.0222,1.0004,0.9849,0.9822,0.9822,0.9822,0.9822,0.9822,0.9686,0.9612,0.9612,0.9462,0.9306,0.9214,0.9207,0.9083,0.8885,0.8885,0.8885,0.8885,0.8885,0.8885,0.8885,0.8885,0.8797,0.871,0.871,0.8621,0.8499,0.8648,0.871,0.873,0.8824,0.8885,0.8885,0.8885,0.8885,0.8885,0.8885,0.8885,0.8885,0.8885,0.8885,0.8885,0.8885,0.8885,0.8885,0.8885,0.8885,0.8885,0.8885,0.8885,0.8885,0.8885,0.8885,0.8885,0.8885,0.8885,0.8885,0.8885,0.8811,0.871,0.871,0.8581,0.8438,0.8347,0.8327,0.8214,0.8015,0.7995,0.7995,0.7995,0.7995,0.7995,0.7995,0.818,0.832,0.8327,0.832,0.8201,0.7995,0.8187,0.832,0.832,0.8411,0.8479,0.8486,0.8635,0.8628,0.8492,0.8642,0.871,0.871,0.871,0.871,0.8689,0.8391,0.8357,0.8465,0.8374,0.8357,0.8499,0.8655,0.871,0.871,0.9958,1.0046,1.01,1.0032,1.0202,1.0304,1.0195,1.031,1.0344,1.0141,1.012,1.0059,0.9903,0.9849,0.9822,0.9822,0.9822,0.9822,0.9822,0.9781,0.9754,0.9754,0.9517,0.9306,0.9214,0.9207,0.9083,0.8885,0.8885,0.8885,0.8885,0.8885,0.8885,0.8885,0.8885,0.8858,0.8817,0.8817,0.8845,0.8804,0.8797,0.8817,0.8817,0.8865,0.8885,0.8885,0.8885,0.8885,0.8885,0.8885,0.8885,0.8885,0.8885,0.8885,0.8885,0.8885,0.8885,0.8885,0.8885,0.8885,0.8885,0.8885,0.8885,0.8885,0.8885,0.8885,0.8885,0.8885,0.8885,0.8885,0.8885,0.8844,0.8832,0.873,0.8764,0.875,0.8601,0.8581,0.856,0.8513,0.8418,0.835,0.835,0.835,0.835,0.835,0.8303,0.8368,0.8411,0.8221,0.814,0.8201,0.814,0.8106,0.8106,0.8357,0.8533,0.8642,0.8581,0.8635,0.8798,0.8737,0.8771,0.8817,0.8817,0.8817,0.8845,0.854,0.8445,0.8465,0.8374,0.8347,0.8364,0.8615,0.8581,0.8431,0.9822,0.9897,0.9889,0.9856,1.0066,1.0154,1.0004,1.0181,1.0202,0.9923,0.995,0.993,0.9836,0.9822,0.9822,0.9822,0.9822,0.9822,0.9822,0.9822,0.9822,0.9822,0.9652,0.9483,0.934,0.933,0.9171,0.9022,0.8912,0.8885,0.8885,0.8885,0.8885,0.8885,0.8885,0.8885,0.8885,0.8885,0.8885,0.8885,0.8885,0.8885,0.8885,0.8885,0.8885,0.8885,0.8885,0.8885,0.8885,0.8885,0.8885,0.8885,0.8885,0.8885,0.8885,0.8885,0.8885,0.8898,0.9008,0.8981,0.8898,0.9008,0.9022,0.9008,0.8898,0.8981,0.9008,0.8898,0.8885,0.8885,0.8885,0.8885,0.8851,0.8818,0.8824,0.8831,0.873,0.871,0.8689,0.8628,0.854,0.8479,0.8479,0.8479,0.8506,0.8567,0.8438,0.8418,0.8567,0.8343,0.8228,0.832,0.818,0.8133,0.8133,0.8309,0.8472,0.8621,0.8648,0.8757,0.8878,0.8845,0.8797,0.8885,0.8885,0.8885,0.8865,0.8676,0.8574,0.856,0.8411,0.835,0.8377,0.8554,0.8506,0.8377,0.9822,0.9822,0.9863,0.9943,0.9963,0.9963,0.9963,1.0148,1.0141,0.9856,0.9883,0.9916,0.9836,0.9822,0.9822,0.9822,0.9822,0.9822,0.9822,0.9822,0.9822,0.9822,0.9822,0.9761,0.9632,0.9483,0.932,0.9207,0.9022,0.8898,0.8885,0.8885,0.8885,0.8885,0.8885,0.8885,0.8885,0.8885,0.8885,0.8885,0.8885,0.8885,0.8885,0.8885,0.8885,0.8885,0.8885,0.8885,0.8885,0.8885,0.8892,0.8898,0.8885,0.8892,0.8905,0.8905,0.8892,0.8967,0.9173,0.9055,0.8988,0.918,0.9228,0.9207,0.8994,0.9055,0.9173,0.9001,0.8912,0.8905,0.8919,0.8912,0.8905,0.8905,0.8892,0.8838,0.875,0.873,0.8676,0.854,0.852,0.852,0.852,0.852,0.8581,0.8723,0.8587,0.8567,0.8723,0.8574,0.8431,0.8368,0.8347,0.834,0.834,0.8354,0.8377,0.8506,0.8784,0.8871,0.8885,0.8885,0.8885,0.8885,0.8885,0.8878,0.8851,0.875,0.8689,0.8676,0.852,0.8472,0.8479,0.8479,0.8472,0.8465,0.9822,0.9822,0.9829,0.9863,0.9869,0.9869,0.9869,0.9897,0.9897,0.9829,0.9849,0.9856,0.9822,0.9822,0.9822,0.9822,0.9822,0.9822,0.9822,0.9822,0.9822,0.9822,0.9822,0.9808,0.9774,0.9632,0.9429,0.9207,0.918,0.9049,0.8885,0.8885,0.8885,0.8885,0.8885,0.8885,0.8885,0.8885,0.8885,0.8885,0.8885,0.8885,0.8885,0.8885,0.8885,0.8885,0.8885,0.8885,0.8885,0.8885,0.9015,0.9089,0.8974,0.9015,0.9166,0.9166,0.9028,0.8967,0.9173,0.9187,0.9173,0.92,0.9334,0.9442,0.9171,0.9187,0.9234,0.9266,0.9191,0.9144,0.9266,0.9184,0.9166,0.9166,0.9015,0.8871,0.8838,0.8838,0.8824,0.8845,0.8838,0.8838,0.8838,0.8838,0.8797,0.8831,0.875,0.873,0.8824,0.8628,0.852,0.8615,0.8499,0.8438,0.8438,0.8554,0.8628,0.8662,0.873,0.8825,0.8885,0.8885,0.8885,0.8885,0.8885,0.8817,0.875,0.8594,0.8533,0.852,0.837,0.8384,0.8479,0.8479,0.8411,0.8368,0.9822,0.9822,0.9822,0.9822,0.9822,0.9822,0.9822,0.9822,0.9822,0.9822,0.9822,0.9822,0.9822,0.9822,0.9822,0.9822,0.9822,0.9822,0.9822,0.9822,0.9822,0.9822,0.9822,0.9822,0.9822,0.9747,0.9598,0.9367,0.9357,0.9184,0.9042,0.9042,0.9008,0.8885,0.8885,0.8885,0.8885,0.8885,0.8981,0.9042,0.9042,0.9083,0.915,0.915,0.915,0.915,0.915,0.9103,0.9055,0.9123,0.915,0.9207,0.915,0.915,0.9221,0.9296,0.9157,0.9089,0.9313,0.932,0.9337,0.9354,0.949,0.9551,0.9313,0.932,0.9374,0.9381,0.932,0.9344,0.9367,0.9316,0.9207,0.9207,0.9028,0.8885,0.8885,0.8885,0.8885,0.8885,0.8885,0.8885,0.8885,0.8885,0.8885,0.8885,0.8798,0.8777,0.8871,0.8716,0.8628,0.871,0.8635,0.8587,0.8587,0.8669,0.875,0.8818,0.8818,0.8804,0.8885,0.8885,0.8885,0.8885,0.8885,0.8838,0.8811,0.873,0.8615,0.8472,0.8397,0.833,0.8269,0.8269,0.8269,0.8333,0.9822,0.9822,0.9822,0.9822,0.9822,0.9822,0.9822,0.9822,0.9822,0.9822,0.9822,0.9822,0.9822,0.9842,0.9863,0.9863,0.9863,0.9863,0.9863,0.9836,0.9822,0.9822,0.9822,0.9822,0.9822,0.9822,0.9754,0.9612,0.9483,0.934,0.9248,0.9248,0.9117,0.8974,0.8974,0.8905,0.8885,0.8885,0.9022,0.9207,0.9207,0.9303,0.9381,0.9381,0.9381,0.9381,0.9381,0.93,0.9268,0.934,0.9313,0.9303,0.9347,0.9313,0.9316,0.9381,0.9313,0.9309,0.9537,0.9517,0.9449,0.9578,0.9625,0.9612,0.9483,0.9537,0.9578,0.9476,0.9435,0.9429,0.9449,0.9334,0.9282,0.9255,0.9069,0.8912,0.8885,0.8885,0.8885,0.8885,0.8885,0.8885,0.8885,0.8885,0.8885,0.8885,0.8818,0.8804,0.8878,0.8818,0.875,0.875,0.875,0.875,0.875,0.875,0.8811,0.8885,0.8885,0.8885,0.8885,0.8885,0.8885,0.8885,0.8885,0.8871,0.8844,0.8844,0.875,0.852,0.8492,0.833,0.8056,0.8008,0.814,0.834,0.9822,0.9822,0.9822,0.9822,0.9822,0.9822,0.9822,0.9822,0.9822,0.9822,0.9822,0.9822,0.9822,0.9876,0.9957,0.9957,0.9957,0.9957,0.9957,0.9897,0.9822,0.9822,0.9822,0.9822,0.9822,0.9822,0.9754,0.9612,0.9591,0.9503,0.9347,0.9347,0.9266,0.918,0.918,0.9055,0.8885,0.8885,0.9022,0.9207,0.9207,0.9303,0.9381,0.9381,0.9381,0.9381,0.9381,0.9367,0.9354,0.9374,0.9456,0.953,0.9415,0.9456,0.9551,0.9571,0.9469,0.9388,0.9564,0.9591,0.9585,0.9605,0.97,0.9788,0.9768,0.968,0.9639,0.9741,0.9666,0.9618,0.9741,0.9646,0.9503,0.9374,0.9282,0.9083,0.8898,0.8885,0.8885,0.8885,0.8885,0.8885,0.8885,0.8885,0.8885,0.8885,0.8865,0.8865,0.8885,0.8865,0.8851,0.8851,0.8851,0.8851,0.8851,0.8851,0.8865,0.8885,0.8885,0.8885,0.8885,0.8885,0.8885,0.8885,0.8885,0.8811,0.8743,0.8743,0.8716,0.8669,0.8533,0.8459,0.8391,0.8083,0.814,0.8327,0.9822,0.9822,0.9822,0.9822,0.9822,0.9822,0.9822,0.9822,0.9822,0.9822,0.9822,0.9822,0.9822,0.9883,0.9896,0.9977,0.9984,1.0024,1.0175,1.0032,0.9889,0.9889,0.9869,0.9822,0.9822,0.9822,0.9788,0.9727,0.9727,0.9652,0.951,0.951,0.9429,0.9337,0.9337,0.9245,0.9184,0.9184,0.9273,0.9408,0.9408,0.9496,0.9625,0.9625,0.9625,0.9625,0.9625,0.9578,0.9517,0.9598,0.9618,0.9612,0.9625,0.9618,0.9625,0.9707,0.9625,0.9544,0.9686,0.9727,0.9727,0.9727,0.9774,0.9822,0.9822,0.9774,0.9747,0.9808,0.9774,0.9747,0.9808,0.9707,0.9585,0.9517,0.9306,0.9187,0.9069,0.8988,0.8885,0.8885,0.8885,0.8885,0.8885,0.8885,0.8885,0.8885,0.8885,0.8885,0.8885,0.8885,0.8885,0.8885,0.8885,0.8885,0.8885,0.8885,0.8885,0.8885,0.8885,0.8885,0.8885,0.8885,0.8885,0.8885,0.8885,0.8844,0.8838,0.8838,0.8784,0.8703,0.8635,0.856,0.8465,0.8336,0.833,0.8397]}]]